[[{"header":{"parameterUnit":"m.s-1","parameterCategory":1,"la1":31.0,"la2":29.5877,"lo1":-88.7671,"lo2":-86.6584,"dy":0.0162,"dx":0.0185,"nx":115,"ny":88,"refTime":"2024-08-20T06:00:00:Z","depth":0,"parameterNumber":2,"parameterNumberName":"U-component_of_WINDS"},"data":[0.0,0.0,0.0,0.0,0.0,0.0,0.0,0.0,0.0,0.0,0.0,0.0,0.0,0.0,0.0,0.0,0.0,0.0,0.0,0.0,0.0,0.0,0.0,0.0,0.0,0.0,0.0,0.0,0.0,0.0,0.0,0.0,0.0,0.0,0.0,0.0,0.0,0.0,0.0,0.0,0.0,0.0,0.0,0.0,0.0,0.0,0.0,0.0,0.0,0.0,0.0,0.0,0.0,0.0,0.0,0.0,0.0,0.0,0.0,0.0,0.0,0.0,0.0,0.0,0.0,0.0,0.0,0.0,0.0,0.0,0.0,0.0,0.0,0.0,0.0,0.0,0.0,0.0,0.0,0.0,0.0,0.0,0.0,0.0,0.0,0.0,0.0,0.0,0.0,0.0,0.0,0.0,0.0,0.0,0.0,0.0,0.0,0.0,0.0,0.0,0.0,0.0,0.0,0.0,0.0,0.0,0.0,0.0,0.0,0.0,0.0,0.0,0.0,0.0,0.0,0.0,0.0,0.0,0.0,0.0,0.0,0.0,0.0,0.0,0.0,0.0,0.0,0.0,0.0,0.0,0.0,0.0,0.0,0.0,0.0,0.0,0.0,0.0,0.0,0.0,0.0,0.0,0.0,0.0,0.0,0.0,0.0,0.0,0.0,0.0,0.0,0.0,0.0,0.0,0.0,0.0,0.0,0.0,0.0,0.0,0.0,0.0,0.0,0.0,0.0,0.0,0.0,0.0,0.0,0.0,0.0,0.0,0.0,0.0,0.0,0.0,0.0,0.0,0.0,0.0,0.0,0.0,0.0,0.0,0.0,0.0,0.0,0.0,0.0,0.0,0.0,0.0,0.0,0.0,0.0,0.0,0.0,0.0,0.0,0.0,0.0,0.0,0.0,0.0,0.0,0.0,0.0,0.0,0.0,0.0,0.0,0.0,0.0,0.0,0.0,0.0,0.0,0.0,0.0,0.0,0.0,0.0,0.0,0.0,0.0,0.0,0.0,0.0,0.0,0.0,0.0,0.0,0.0,0.0,0.0,0.0,0.0,0.0,0.0,0.0,0.0,0.0,0.0,0.0,0.0,0.0,0.0,0.0,0.0,0.0,0.0,0.0,0.0,0.0,0.0,0.0,0.0,0.0,0.0,0.0,0.0,0.0,0.0,0.0,0.0,0.0,0.0,0.0,0.0,0.0,0.0,0.0,0.0,0.0,0.0,0.0,0.0,0.0,0.0,0.0,0.0,0.0,0.0,0.0,0.0,0.0,0.0,0.0,0.0,0.0,0.0,0.0,0.0,0.0,0.0,0.0,0.0,0.0,0.0,0.0,0.0,0.0,0.0,0.0,0.0,0.0,0.0,0.0,0.0,0.0,0.0,0.0,0.0,0.0,0.0,0.0,0.0,0.0,0.0,0.0,0.0,0.0,0.0,0.0,0.0,0.0,0.0,0.0,0.0,0.0,0.0,0.0,0.0,0.0,0.0,0.0,0.0,0.0,0.0,0.0,0.0,0.0,0.0,0.0,0.0,0.0,0.0,0.0,0.0,0.0,0.0,0.0,0.0,0.0,0.0,0.0,0.0,0.0,0.0,0.0,0.0,0.0,0.0,0.0,0.0,0.0,0.0,0.0,0.0,0.0,0.0,0.0,0.0,0.0,0.0,0.0,0.0,0.0,0.0,0.0,0.0,0.0,0.0,0.0,0.0,0.0,0.0,0.0,0.0,0.0,0.0,0.0,0.0,0.0,0.0,0.0,0.0,0.0,0.0,0.0,0.0,0.0,0.0,0.0,0.0,0.0,0.0,0.0,0.0,0.0,0.0,0.0,0.0,0.0,0.0,0.0,0.0,0.0,0.0,0.0,0.0,0.0,0.0,0.0,0.0,0.0,0.0,0.0,0.0,0.0,0.0,0.0,0.0,0.0,0.0,0.0,0.0,0.0,0.0,0.0,0.0,0.0,0.0,0.0,0.0,0.0,0.0,0.0,0.0,0.0,0.0,0.0,0.0,0.0,0.0,0.0,0.0,0.0,0.0,0.0,0.0,0.0,0.0,0.0,0.0,0.0,0.0,0.0,0.0,0.0,0.0,0.0,0.0,0.0,0.0,0.0,0.0,0.0,0.0,0.0,0.0,0.0,0.0,0.0,0.0,0.0,0.0,0.0,0.0,0.0,0.0,0.0,0.0,0.0,0.0,0.0,0.0,0.0,0.0,0.0,0.0,0.0,0.0,0.0,0.0,0.0,0.0,0.0,0.0,0.0,0.0,0.0,0.0,0.0,0.0,0.0,0.0,0.0,0.0,0.0,0.0,0.0,0.0,0.0,0.0,0.0,0.0,0.0,0.0,0.0,0.0,0.0,0.0,0.0,0.0,0.0,0.0,0.0,0.0,0.0,0.0,0.0,0.0,0.0,0.0,0.0,0.0,0.0,0.0,0.0,0.0,0.0,0.0,0.0,0.0,0.0,0.0,0.0,0.0,0.0,0.0,0.0,0.0,0.0,0.0,0.0,0.0,0.0,0.0,0.0,0.0,0.0,0.0,0.0,0.0,0.0,0.0,0.0,0.0,0.0,0.0,0.0,0.0,0.0,0.0,0.0,0.0,0.0,0.0,0.0,0.0,0.0,0.0,0.0,0.0,0.0,0.0,0.0,0.0,0.0,0.0,0.0,0.0,0.0,0.0,0.0,0.0,0.0,0.0,0.0,0.0,0.0,0.0,0.0,0.0,0.0,0.0,0.0,0.0,0.0,0.0,0.0,0.0,0.0,0.0,0.0,0.0,0.0,0.0,0.0,0.0,0.0,0.0,0.0,0.0,0.0,0.0,0.0,0.0,0.0,0.0,0.0,0.0,0.0,0.0,0.0,0.0,0.0,0.0,0.0,0.0,0.0,0.0,0.0,0.0,0.0,0.0,0.0,0.0,0.0,0.0,0.0,0.0,0.0,0.0,0.0,0.0,0.0,0.0,0.0,0.0,0.0,0.0,0.0,0.0,0.0,0.0,0.0,0.0,0.0,0.0,0.0,0.0,0.0,0.0,0.0,0.0,0.0,0.0,0.0,0.0,0.0,0.0,0.0,0.0,0.0,0.0,0.0,0.0,0.0,0.0,0.0,0.0,0.0,0.0,0.0,0.0,0.0,0.0,0.0,0.0,0.0,0.0,0.0,0.0,0.0,0.0,0.0,0.0,0.0,0.0,0.0,0.0,0.0,0.0,0.0,0.0,0.0,0.0,0.0,0.0,0.0,0.0,0.0,0.0,0.0,0.0,0.0,0.0,0.0,0.0,0.0,0.0,0.0,0.0,0.0,0.0,0.0,0.0,0.0,0.0,0.0,0.0,0.0,0.0,0.0,0.0,0.0,0.0,0.0,0.0,0.0,0.0,0.0,0.0,0.0,0.0,0.0,0.0,0.0,0.0,0.0,0.0,0.0,0.0,0.0,0.0,0.0,0.0,0.0,0.0,0.0,0.0,0.0,0.0,0.0,0.0,0.0,0.0,0.0,0.0,0.0,0.0,0.0,0.0,0.0,0.0,0.0,0.0,0.0,0.0,0.0,0.0,0.0,0.0,0.0,0.0,0.0,0.0,0.0,0.0,0.0,0.0,0.0,0.0,0.0,0.0,0.0,0.0,0.0,0.0,0.0,0.0,0.0,0.0,0.0,0.0,0.0,0.0,0.0,0.0,0.0,0.0,0.0,0.0,0.0,0.0,0.0,0.0,0.0,0.0,0.0,0.0,0.0,0.0,0.0,0.0,0.0,0.0,0.0,0.0,0.0,0.0,0.0,0.0,0.0,0.0,0.0,0.0,0.0,0.0,0.0,0.0,0.0,0.0,0.0,0.0,0.0,0.0,0.0,0.0,0.0,0.0,0.0,0.0,0.0,0.0,0.0,0.0,0.0,0.0,0.0,0.0,0.0,0.0,0.0,0.0,0.0,0.0,0.0,0.0,0.0,0.0,0.0,0.0,0.0,0.0,0.0,0.0,0.0,0.0,0.0,0.0,0.0,0.0,0.0,0.0,0.0,0.0,0.0,0.0,0.0,0.0,0.0,0.0,0.0,0.0,0.0,0.0,0.0,0.0,0.0,0.0,0.0,0.0,0.0,0.0,0.0,0.0,0.0,0.0,0.0,0.0,0.0,0.0,0.0,0.0,0.0,0.0,0.0,0.0,0.0,0.0,0.0,0.0,0.0,0.0,0.0,0.0,0.0,0.0,0.0,0.0,0.0,0.0,0.0,0.0,0.0,0.0,0.0,0.0,0.0,0.0,0.0,0.0,0.0,-1.3516,0.0,0.0,0.0,0.0,0.0,0.0,0.0,0.0,0.0,0.0,0.0,0.0,0.0,0.0,0.0,0.0,0.0,0.0,0.0,0.0,0.0,0.0,0.0,0.0,0.0,0.0,0.0,0.0,0.0,0.0,0.0,0.0,0.0,0.0,0.0,0.0,0.0,0.0,0.0,0.0,0.0,0.0,0.0,0.0,0.0,0.0,0.0,0.0,0.0,0.0,0.0,0.0,0.0,0.0,0.0,0.0,0.0,0.0,0.0,0.0,0.0,0.0,0.0,0.0,0.0,0.0,0.0,0.0,0.0,0.0,0.0,0.0,0.0,0.0,0.0,0.0,0.0,0.0,0.0,0.0,0.0,0.0,0.0,0.0,0.0,0.0,0.0,0.0,0.0,0.0,0.0,0.0,0.0,0.0,0.0,0.0,0.0,0.0,0.0,0.0,0.0,0.0,0.0,0.0,0.0,0.0,0.0,0.0,0.0,0.0,-1.5248,-1.5825,-1.577,-1.529,-1.4443,0.0,0.0,0.0,0.0,0.0,0.0,0.0,0.0,0.0,0.0,0.0,0.0,0.0,0.0,0.0,0.0,0.0,0.0,0.0,0.0,0.0,0.0,0.0,0.0,0.0,0.0,0.0,0.0,0.0,0.0,0.0,0.0,0.0,0.0,0.0,0.0,0.0,0.0,0.0,0.0,0.0,0.0,0.0,0.0,0.0,0.0,0.0,0.0,0.0,0.0,0.0,0.0,0.0,0.0,0.0,0.0,0.0,0.0,0.0,0.0,0.0,0.0,0.0,0.0,0.0,0.0,0.0,0.0,0.0,0.0,0.0,0.0,0.0,0.0,0.0,0.0,0.0,0.0,0.0,0.0,0.0,0.0,0.0,0.0,0.0,0.0,0.0,0.0,0.0,0.0,0.0,0.0,0.0,0.0,0.0,0.0,0.0,0.0,0.0,0.0,0.0,0.0,0.0,0.0,0.0,0.0,0.0,0.0,0.0,0.0,0.0,0.0,-1.703,-1.6319,-1.5595,0.0,0.0,0.0,0.0,0.0,0.0,0.0,0.0,0.0,0.0,0.0,0.0,0.0,0.0,0.0,0.0,0.0,0.0,0.0,0.0,0.0,0.0,0.0,0.0,0.0,0.0,0.0,0.0,0.0,0.0,0.0,0.0,0.0,0.0,0.0,0.0,0.0,0.0,0.0,0.0,0.0,0.0,0.0,0.0,0.0,0.0,0.0,0.0,0.0,0.0,0.0,0.0,0.0,0.0,0.0,0.0,0.0,0.0,0.0,0.0,0.0,0.0,0.0,0.0,0.0,0.0,0.0,0.0,0.0,0.0,0.0,0.0,0.0,0.0,0.0,0.0,0.0,0.0,0.0,0.0,0.0,0.0,0.0,0.0,0.0,0.0,0.0,0.0,0.0,0.0,0.0,0.0,0.0,0.0,0.0,0.0,0.0,0.0,0.0,0.0,0.0,0.0,0.0,0.0,0.0,0.0,0.0,0.0,0.0,0.0,-1.8301,-2.0102,-1.9713,0.0,-1.716,0.0,0.0,0.0,0.0,0.0,0.0,0.0,0.0,0.0,0.0,0.0,0.0,0.0,0.0,0.0,0.0,0.0,0.0,0.0,0.0,0.0,0.0,0.0,0.0,0.0,0.0,0.0,0.0,0.0,0.0,0.0,0.0,0.0,0.0,0.0,0.0,0.0,0.0,0.0,0.0,0.0,0.0,0.0,0.0,0.0,0.0,0.0,0.0,0.0,0.0,0.0,0.0,0.0,0.0,0.0,0.0,0.0,0.0,0.0,0.0,0.0,0.0,0.0,0.0,0.0,0.0,0.0,0.0,0.0,0.0,0.0,0.0,0.0,0.0,0.0,0.0,0.0,0.0,0.0,0.0,0.0,0.0,0.0,0.0,0.0,0.0,0.0,0.0,0.0,0.0,0.0,0.0,0.0,0.0,0.0,0.0,0.0,0.0,0.0,0.0,0.0,0.0,0.0,0.0,0.0,0.0,0.0,0.0,0.0,0.0,-1.9196,-2.0469,-1.9609,-1.8702,0.0,0.0,0.0,0.0,0.0,0.0,0.0,0.0,0.0,0.0,0.0,0.0,0.0,0.0,0.0,0.0,0.0,0.0,0.0,0.0,0.0,0.0,0.0,0.0,0.0,0.0,0.0,0.0,0.0,0.0,0.0,0.0,0.0,0.0,0.0,0.0,0.0,0.0,0.0,0.0,0.0,0.0,0.0,0.0,0.0,0.0,0.0,0.0,0.0,0.0,0.0,0.0,0.0,0.0,0.0,0.0,0.0,0.0,0.0,0.0,0.0,0.0,0.0,0.0,0.0,0.0,0.0,0.0,0.0,0.0,0.0,0.0,0.0,0.0,0.0,0.0,0.0,0.0,0.0,0.0,0.0,0.0,0.0,0.0,0.0,0.0,0.0,0.0,0.0,0.0,0.0,0.0,0.0,0.0,0.0,0.0,0.0,0.0,0.0,0.0,0.0,0.0,0.0,0.0,0.0,0.0,0.0,0.0,0.0,0.0,-1.9673,-2.0565,-2.1629,-2.1007,-1.9946,-1.8538,0.0,0.0,0.0,0.0,0.0,0.0,0.0,0.0,0.0,0.0,0.0,0.0,0.0,0.0,0.0,0.0,0.0,0.0,0.0,0.0,0.0,0.0,0.0,0.0,0.0,0.0,0.0,0.0,0.0,0.0,0.0,0.0,0.0,0.0,0.0,0.0,0.0,0.0,0.0,0.0,0.0,0.0,0.0,0.0,0.0,0.0,0.0,0.0,0.0,0.0,0.0,0.0,0.0,0.0,0.0,0.0,0.0,0.0,0.0,0.0,0.0,0.0,0.0,0.0,0.0,0.0,0.0,0.0,0.0,0.0,0.0,0.0,0.0,0.0,0.0,0.0,0.0,0.0,0.0,0.0,0.0,0.0,0.0,0.0,0.0,0.0,0.0,0.0,0.0,0.0,0.0,0.0,0.0,0.0,0.0,0.0,0.0,0.0,0.0,0.0,0.0,0.0,0.0,0.0,0.0,0.0,0.0,0.0,-2.2237,-2.2098,-2.2895,-2.4752,-2.5294,-2.355,0.0,0.0,0.0,0.0,0.0,0.0,0.0,0.0,0.0,0.0,0.0,0.0,0.0,0.0,0.0,0.0,0.0,0.0,0.0,0.0,0.0,0.0,0.0,0.0,0.0,0.0,0.0,0.0,0.0,0.0,0.0,0.0,0.0,0.0,0.0,0.0,0.0,0.0,0.0,0.0,0.0,0.0,0.0,0.0,0.0,0.0,0.0,0.0,0.0,0.0,0.0,0.0,0.0,0.0,0.0,0.0,0.0,0.0,0.0,0.0,0.0,0.0,0.0,0.0,0.0,0.0,0.0,0.0,0.0,0.0,0.0,0.0,0.0,0.0,0.0,0.0,0.0,0.0,0.0,0.0,0.0,0.0,0.0,0.0,0.0,0.0,0.0,0.0,0.0,0.0,0.0,0.0,0.0,0.0,0.0,0.0,0.0,0.0,0.0,0.0,0.0,0.0,0.0,0.0,0.0,0.0,0.0,0.0,0.0,-2.1153,-2.299,-2.5201,-2.7614,-2.5541,-2.3615,0.0,0.0,0.0,0.0,0.0,0.0,0.0,0.0,0.0,0.0,0.0,0.0,0.0,0.0,0.0,0.0,0.0,0.0,0.0,0.0,0.0,0.0,0.0,0.0,0.0,0.0,0.0,0.0,0.0,0.0,0.0,0.0,0.0,0.0,0.0,0.0,0.0,0.0,0.0,0.0,0.0,0.0,0.0,0.0,0.0,0.0,0.0,0.0,0.0,0.0,0.0,0.0,0.0,0.0,0.0,0.0,0.0,0.0,0.0,0.0,0.0,0.0,0.0,0.0,0.0,0.0,0.0,0.0,0.0,0.0,0.0,0.0,0.0,0.0,0.0,0.0,0.0,0.0,0.0,0.0,0.0,0.0,0.0,0.0,0.0,0.0,0.0,0.0,0.0,0.0,0.0,0.0,0.0,0.0,0.0,0.0,0.0,0.0,0.0,0.0,0.0,0.0,0.0,0.0,0.0,0.0,0.0,0.0,0.0,-2.2006,0.0,-2.778,0.0,-2.6503,-2.4268,0.0,0.0,0.0,0.0,0.0,0.0,0.0,0.0,0.0,0.0,0.0,0.0,0.0,0.0,0.0,0.0,0.0,0.0,0.0,0.0,0.0,0.0,0.0,0.0,0.0,0.0,0.0,0.0,0.0,0.0,0.0,0.0,0.0,0.0,0.0,0.0,0.0,0.0,0.0,0.0,0.0,0.0,0.0,0.0,0.0,0.0,0.0,0.0,0.0,0.0,0.0,0.0,0.0,0.0,0.0,0.0,0.0,0.0,0.0,0.0,0.0,0.0,0.0,0.0,0.0,0.0,0.0,0.0,0.0,0.0,0.0,0.0,0.0,0.0,0.0,0.0,0.0,0.0,0.0,0.0,0.0,0.0,0.0,0.0,0.0,0.0,0.0,0.0,0.0,0.0,0.0,0.0,0.0,0.0,0.0,0.0,0.0,0.0,0.0,0.0,0.0,0.0,0.0,0.0,0.0,0.0,0.0,0.0,-2.0347,-2.533,-2.9267,-3.0393,-2.882,-2.8446,-2.5702,0.0,0.0,0.0,0.0,0.0,0.0,0.0,0.0,0.0,0.0,0.0,0.0,0.0,0.0,0.0,0.0,0.0,0.0,0.0,0.0,0.0,0.0,0.0,0.0,0.0,0.0,0.0,0.0,0.0,0.0,0.0,0.0,0.0,0.0,0.0,0.0,0.0,0.0,0.0,0.0,0.0,0.0,0.0,0.0,0.0,0.0,0.0,0.0,0.0,0.0,0.0,0.0,0.0,0.0,0.0,0.0,0.0,0.0,0.0,0.0,0.0,0.0,0.0,0.0,0.0,0.0,0.0,0.0,0.0,0.0,0.0,0.0,0.0,0.0,0.0,0.0,0.0,0.0,0.0,0.0,0.0,0.0,0.0,0.0,0.0,0.0,0.0,0.0,0.0,0.0,0.0,0.0,0.0,0.0,0.0,0.0,0.0,0.0,0.0,0.0,0.0,0.0,0.0,0.0,0.0,0.0,0.0,0.0,0.0,-2.6068,-2.879,-3.04,-3.0589,-2.8094,-2.5704,0.0,0.0,0.0,0.0,0.0,0.0,0.0,0.0,0.0,0.0,0.0,0.0,0.0,0.0,0.0,0.0,0.0,0.0,0.0,0.0,0.0,0.0,0.0,0.0,0.0,0.0,0.0,0.0,0.0,0.0,0.0,0.0,0.0,0.0,0.0,0.0,0.0,0.0,0.0,0.0,0.0,0.0,0.0,0.0,0.0,0.0,0.0,0.0,0.0,0.0,0.0,0.0,0.0,0.0,0.0,0.0,0.0,0.0,0.0,0.0,0.0,0.0,0.0,0.0,0.0,0.0,0.0,0.0,0.0,0.0,0.0,0.0,0.0,0.0,0.0,0.0,0.0,0.0,0.0,0.0,0.0,0.0,0.0,0.0,0.0,0.0,0.0,0.0,0.0,0.0,0.0,0.0,0.0,0.0,0.0,0.0,0.0,0.0,0.0,0.0,0.0,0.0,0.0,0.0,0.0,0.0,0.0,0.0,0.0,-2.9028,-3.0585,-3.1454,-3.1529,-2.8725,-2.6278,-2.4359,0.0,0.0,0.0,0.0,0.0,0.0,0.0,0.0,0.0,0.0,0.0,0.0,0.0,0.0,0.0,0.0,0.0,0.0,0.0,0.0,0.0,0.0,0.0,0.0,0.0,0.0,0.0,0.0,0.0,0.0,0.0,0.0,0.0,0.0,0.0,0.0,0.0,0.0,0.0,0.0,0.0,0.0,0.0,0.0,0.0,0.0,0.0,0.0,0.0,0.0,0.0,0.0,0.0,0.0,0.0,0.0,0.0,0.0,0.0,0.0,0.0,0.0,0.0,0.0,0.0,0.0,0.0,0.0,0.0,0.0,0.0,0.0,0.0,0.0,0.0,0.0,0.0,0.0,0.0,0.0,0.0,0.0,0.0,0.0,0.0,0.0,0.0,0.0,0.0,0.0,0.0,0.0,0.0,0.0,0.0,0.0,0.0,0.0,0.0,0.0,0.0,0.0,0.0,0.0,0.0,0.0,0.0,0.0,-3.3274,-3.3931,-3.3439,-3.1759,-3.0191,-2.7463,0.0,0.0,0.0,0.0,0.0,0.0,0.0,0.0,0.0,0.0,0.0,0.0,0.0,0.0,0.0,0.0,0.0,0.0,0.0,0.0,0.0,0.0,0.0,0.0,0.0,0.0,0.0,0.0,0.0,0.0,0.0,0.0,0.0,0.0,0.0,0.0,0.0,0.0,0.0,0.0,0.0,0.0,0.0,0.0,0.0,0.0,0.0,0.0,0.0,0.0,0.0,0.0,0.0,0.0,0.0,0.0,0.0,0.0,0.0,0.0,0.0,0.0,0.0,0.0,0.0,0.0,0.0,0.0,0.0,0.0,0.0,0.0,0.0,0.0,0.0,0.0,0.0,0.0,0.0,0.0,0.0,0.0,0.0,0.0,0.0,0.0,0.0,0.0,0.0,0.0,0.0,0.0,0.0,0.0,0.0,0.0,0.0,0.0,0.0,0.0,0.0,0.0,0.0,0.0,0.0,0.0,0.0,0.0,0.0,-3.0855,-3.3013,-3.443,-3.497,-3.1278,-2.8295,0.0,0.0,0.0,0.0,0.0,0.0,0.0,0.0,0.0,0.0,0.0,0.0,0.0,0.0,0.0,0.0,0.0,0.0,0.0,0.0,0.0,0.0,0.0,0.0,0.0,0.0,0.0,0.0,0.0,0.0,0.0,0.0,0.0,0.0,0.0,0.0,0.0,0.0,0.0,0.0,0.0,0.0,0.0,0.0,0.0,0.0,0.0,0.0,0.0,0.0,0.0,0.0,0.0,0.0,0.0,0.0,0.0,0.0,0.0,0.0,0.0,0.0,0.0,0.0,0.0,0.0,0.0,0.0,0.0,0.0,0.0,0.0,0.0,0.0,0.0,0.0,0.0,0.0,0.0,0.0,0.0,0.0,0.0,0.0,0.0,0.0,0.0,0.0,0.0,0.0,0.0,0.0,0.0,0.0,0.0,0.0,0.0,0.0,0.0,0.0,0.0,0.0,0.0,0.0,0.0,0.0,0.0,0.0,-3.0289,-3.2029,-3.3917,-3.5489,-3.6664,-3.2594,-2.9323,0.0,0.0,0.0,0.0,0.0,0.0,0.0,0.0,0.0,0.0,0.0,0.0,0.0,0.0,0.0,0.0,0.0,0.0,0.0,0.0,0.0,0.0,0.0,0.0,0.0,0.0,0.0,0.0,0.0,0.0,0.0,0.0,0.0,0.0,0.0,0.0,0.0,0.0,0.0,0.0,0.0,0.0,0.0,0.0,0.0,0.0,0.0,0.0,0.0,0.0,0.0,0.0,0.0,0.0,0.0,0.0,0.0,0.0,0.0,0.0,0.0,0.0,0.0,0.0,0.0,0.0,0.0,0.0,0.0,0.0,0.0,0.0,0.0,0.0,0.0,0.0,0.0,0.0,0.0,0.0,0.0,0.0,0.0,0.0,0.0,0.0,0.0,0.0,0.0,0.0,0.0,0.0,0.0,0.0,0.0,0.0,0.0,0.0,0.0,0.0,0.0,0.0,0.0,0.0,0.0,0.0,0.0,0.0,-3.2183,-3.4678,-3.5555,-3.6266,-3.6746,-3.3807,-3.0493,0.0,0.0,0.0,0.0,0.0,0.0,0.0,0.0,0.0,0.0,0.0,0.0,0.0,0.0,0.0,0.0,0.0,0.0,0.0,0.0,0.0,0.0,0.0,0.0,0.0,0.0,0.0,0.0,0.0,0.0,0.0,0.0,0.0,0.0,0.0,0.0,0.0,0.0,0.0,0.0,0.0,0.0,0.0,0.0,0.0,0.0,0.0,0.0,0.0,0.0,0.0,0.0,0.0,0.0,0.0,0.0,0.0,0.0,0.0,0.0,0.0,0.0,0.0,0.0,0.0,0.0,0.0,0.0,0.0,0.0,0.0,0.0,0.0,0.0,0.0,0.0,0.0,0.0,0.0,0.0,0.0,0.0,0.0,0.0,0.0,0.0,0.0,0.0,0.0,0.0,0.0,0.0,0.0,0.0,0.0,0.0,0.0,0.0,0.0,0.0,0.0,0.0,0.0,0.0,0.0,0.0,0.0,0.0,-3.1404,-3.3006,-3.4864,-3.5696,-3.5363,-3.3555,-3.1527,0.0,0.0,0.0,0.0,0.0,0.0,0.0,0.0,0.0,0.0,0.0,0.0,0.0,0.0,0.0,0.0,0.0,0.0,0.0,0.0,0.0,0.0,0.0,0.0,0.0,0.0,0.0,0.0,0.0,0.0,0.0,0.0,0.0,0.0,0.0,0.0,0.0,0.0,0.0,0.0,0.0,0.0,0.0,0.0,0.0,0.0,0.0,0.0,-2.1412,0.0,0.0,0.0,0.0,0.0,0.0,0.0,0.0,0.0,0.0,0.0,0.0,0.0,0.0,0.0,0.0,0.0,0.0,0.0,0.0,0.0,0.0,0.0,0.0,0.0,0.0,0.0,0.0,0.0,0.0,0.0,0.0,0.0,0.0,0.0,0.0,0.0,0.0,0.0,0.0,0.0,0.0,0.0,0.0,0.0,0.0,0.0,0.0,0.0,0.0,0.0,0.0,0.0,0.0,0.0,0.0,0.0,0.0,0.0,-3.1741,-3.3294,-3.4626,-3.5111,-3.4771,-3.3783,-3.2171,0.0,0.0,0.0,0.0,0.0,0.0,0.0,0.0,0.0,0.0,0.0,0.0,0.0,0.0,0.0,0.0,0.0,0.0,0.0,0.0,0.0,0.0,0.0,0.0,0.0,0.0,0.0,0.0,0.0,0.0,0.0,0.0,0.0,0.0,0.0,0.0,0.0,0.0,0.0,0.0,0.0,0.0,0.0,0.0,0.0,0.0,0.0,0.0,0.0,0.0,0.0,0.0,0.0,0.0,0.0,0.0,0.0,0.0,0.0,0.0,0.0,0.0,0.0,0.0,0.0,0.0,0.0,0.0,0.0,0.0,0.0,0.0,0.0,0.0,0.0,0.0,0.0,0.0,0.0,0.0,0.0,0.0,0.0,0.0,0.0,0.0,0.0,0.0,0.0,0.0,0.0,0.0,0.0,0.0,0.0,0.0,0.0,0.0,0.0,0.0,0.0,0.0,0.0,0.0,0.0,0.0,0.0,-3.0078,-3.2233,-3.4219,-3.4521,-3.4593,-3.4502,-3.4027,-3.2416,-2.9615,0.0,0.0,0.0,0.0,0.0,0.0,0.0,0.0,0.0,0.0,0.0,0.0,0.0,0.0,0.0,0.0,0.0,0.0,0.0,0.0,0.0,0.0,0.0,0.0,0.0,0.0,0.0,0.0,0.0,0.0,0.0,0.0,0.0,0.0,0.0,0.0,0.0,0.0,-1.9912,-2.1977,0.0,0.0,0.0,0.0,0.0,0.0,0.0,0.0,-2.4438,0.0,0.0,0.0,0.0,0.0,0.0,0.0,0.0,0.0,0.0,0.0,0.0,0.0,0.0,0.0,0.0,0.0,0.0,0.0,0.0,0.0,0.0,0.0,0.0,0.0,0.0,0.0,0.0,0.0,0.0,0.0,0.0,0.0,0.0,0.0,0.0,0.0,0.0,0.0,0.0,0.0,0.0,0.0,0.0,0.0,0.0,0.0,0.0,0.0,0.0,0.0,0.0,0.0,0.0,0.0,0.0,-3.0232,-3.0212,-3.1507,-3.4219,-3.4349,-3.4129,-3.3636,-3.3585,-3.186,-2.8404,0.0,0.0,0.0,0.0,0.0,0.0,0.0,0.0,0.0,0.0,0.0,0.0,0.0,0.0,0.0,0.0,0.0,0.0,0.0,0.0,0.0,0.0,0.0,0.0,0.0,0.0,0.0,0.0,0.0,0.0,0.0,0.0,0.0,0.0,0.0,0.0,0.0,0.0,0.0,-2.3796,-2.4909,0.0,0.0,0.0,0.0,0.0,0.0,0.0,0.0,-2.4522,0.0,0.0,0.0,0.0,0.0,0.0,0.0,0.0,0.0,0.0,0.0,0.0,0.0,0.0,0.0,0.0,0.0,0.0,0.0,0.0,0.0,0.0,0.0,0.0,0.0,0.0,0.0,0.0,0.0,0.0,0.0,0.0,0.0,0.0,0.0,0.0,0.0,0.0,0.0,0.0,0.0,0.0,0.0,0.0,0.0,0.0,0.0,0.0,0.0,0.0,0.0,0.0,0.0,0.0,0.0,-2.9038,-3.0742,-3.2237,-3.3616,-3.3697,-3.3428,-3.2798,-3.1788,-3.02,0.0,0.0,0.0,0.0,0.0,0.0,0.0,0.0,0.0,0.0,0.0,0.0,0.0,0.0,0.0,0.0,0.0,0.0,0.0,0.0,0.0,0.0,0.0,0.0,0.0,0.0,0.0,0.0,0.0,0.0,0.0,0.0,0.0,0.0,0.0,0.0,0.0,0.0,0.0,0.0,-2.4164,-2.4949,-2.6099,0.0,0.0,0.0,0.0,0.0,0.0,-2.5044,-2.4548,0.0,0.0,0.0,0.0,0.0,0.0,0.0,0.0,0.0,0.0,0.0,0.0,0.0,0.0,0.0,0.0,0.0,0.0,0.0,0.0,0.0,0.0,0.0,0.0,0.0,0.0,0.0,0.0,0.0,0.0,0.0,0.0,0.0,0.0,0.0,0.0,0.0,0.0,0.0,0.0,0.0,0.0,0.0,0.0,0.0,0.0,0.0,0.0,0.0,0.0,0.0,0.0,0.0,0.0,0.0,-2.7325,-3.0529,-3.2433,-3.2838,-3.2788,-3.2494,-3.1932,-3.0114,-2.8563,0.0,0.0,0.0,0.0,0.0,0.0,0.0,0.0,0.0,0.0,0.0,0.0,0.0,0.0,0.0,0.0,0.0,0.0,0.0,0.0,0.0,0.0,0.0,0.0,0.0,0.0,0.0,0.0,0.0,0.0,0.0,0.0,0.0,0.0,0.0,0.0,0.0,0.0,0.0,0.0,0.0,-2.5393,-2.6536,-2.6386,0.0,0.0,0.0,0.0,-2.6285,-2.5416,0.0,0.0,0.0,0.0,0.0,0.0,0.0,0.0,0.0,0.0,0.0,0.0,0.0,0.0,0.0,0.0,0.0,0.0,0.0,0.0,0.0,0.0,0.0,0.0,0.0,0.0,0.0,0.0,0.0,0.0,0.0,0.0,0.0,0.0,0.0,0.0,0.0,0.0,0.0,0.0,0.0,0.0,0.0,0.0,0.0,0.0,0.0,0.0,0.0,0.0,0.0,0.0,0.0,0.0,0.0,0.0,-2.6495,-2.837,-3.0214,-3.1996,-3.151,-3.1121,-3.1024,-2.9626,-2.783,0.0,0.0,0.0,0.0,0.0,0.0,0.0,0.0,0.0,0.0,0.0,0.0,0.0,0.0,0.0,0.0,0.0,0.0,0.0,0.0,0.0,0.0,0.0,0.0,0.0,0.0,0.0,0.0,0.0,0.0,0.0,0.0,0.0,0.0,0.0,0.0,0.0,0.0,0.0,0.0,0.0,-2.7635,-2.6824,-2.7053,-2.7078,0.0,0.0,-2.644,-2.6408,-2.6272,0.0,0.0,0.0,0.0,0.0,0.0,0.0,0.0,0.0,0.0,0.0,0.0,0.0,0.0,0.0,0.0,0.0,0.0,0.0,0.0,0.0,0.0,0.0,0.0,0.0,0.0,0.0,0.0,0.0,0.0,0.0,0.0,0.0,0.0,0.0,0.0,0.0,0.0,0.0,0.0,0.0,0.0,0.0,0.0,0.0,0.0,0.0,0.0,0.0,0.0,0.0,0.0,0.0,0.0,0.0,-2.4305,-2.6258,-2.8705,-3.0441,-3.1325,-3.1066,-3.0516,-2.9745,-2.8336,-2.6568,0.0,0.0,0.0,0.0,0.0,0.0,0.0,0.0,0.0,0.0,0.0,0.0,0.0,0.0,0.0,0.0,0.0,0.0,0.0,0.0,0.0,0.0,0.0,0.0,0.0,0.0,0.0,0.0,0.0,0.0,0.0,0.0,0.0,0.0,0.0,0.0,0.0,0.0,0.0,0.0,0.0,0.0,-2.7131,-2.7333,0.0,0.0,0.0,-2.6746,-2.6907,0.0,0.0,0.0,0.0,0.0,0.0,0.0,0.0,0.0,0.0,0.0,0.0,0.0,0.0,0.0,0.0,0.0,0.0,0.0,0.0,0.0,0.0,0.0,0.0,0.0,0.0,0.0,0.0,0.0,0.0,0.0,0.0,0.0,0.0,0.0,0.0,0.0,0.0,0.0,0.0,0.0,0.0,0.0,0.0,0.0,0.0,0.0,0.0,0.0,0.0,0.0,0.0,0.0,0.0,0.0,0.0,0.0,-2.5781,-2.8846,-3.0493,-3.0555,-3.0561,-2.9986,-2.8822,-2.7591,0.0,0.0,0.0,0.0,0.0,0.0,0.0,0.0,0.0,0.0,0.0,0.0,0.0,0.0,0.0,0.0,0.0,0.0,0.0,0.0,0.0,0.0,0.0,0.0,0.0,0.0,0.0,-1.4052,0.0,0.0,0.0,0.0,0.0,0.0,0.0,0.0,0.0,0.0,0.0,0.0,0.0,0.0,-2.6896,-2.7425,-2.7738,-2.7915,0.0,0.0,-2.7007,-2.7304,-2.6622,-2.5896,0.0,0.0,0.0,0.0,0.0,0.0,0.0,0.0,0.0,0.0,0.0,0.0,0.0,0.0,0.0,0.0,0.0,0.0,0.0,0.0,0.0,0.0,0.0,0.0,0.0,0.0,0.0,0.0,0.0,0.0,0.0,0.0,0.0,0.0,0.0,0.0,0.0,0.0,0.0,0.0,0.0,0.0,0.0,0.0,0.0,0.0,0.0,0.0,0.0,0.0,0.0,0.0,0.0,0.0,0.0,-2.4867,-2.7734,-2.9362,-2.9595,-2.9595,-2.9353,-2.8806,-2.8029,-2.6478,0.0,0.0,0.0,0.0,0.0,0.0,0.0,0.0,0.0,0.0,0.0,0.0,0.0,0.0,0.0,0.0,0.0,0.0,0.0,0.0,0.0,0.0,0.0,0.0,0.0,0.0,0.0,0.0,0.0,0.0,0.0,0.0,0.0,0.0,0.0,0.0,0.0,0.0,0.0,0.0,0.0,-2.8673,-2.7633,-2.8464,-2.8961,0.0,0.0,-2.7451,-2.749,-2.7391,-2.6888,-2.5537,0.0,0.0,0.0,0.0,0.0,0.0,0.0,0.0,0.0,0.0,0.0,0.0,0.0,0.0,0.0,0.0,0.0,0.0,0.0,0.0,0.0,0.0,0.0,0.0,0.0,0.0,0.0,0.0,0.0,0.0,0.0,0.0,0.0,0.0,0.0,0.0,0.0,0.0,0.0,0.0,0.0,0.0,0.0,0.0,0.0,0.0,0.0,0.0,0.0,0.0,0.0,0.0,0.0,-2.4235,-2.4977,-2.8014,-2.9659,-2.9748,-2.9748,-2.9371,-2.8576,-2.789,-2.6463,0.0,0.0,0.0,0.0,0.0,0.0,0.0,0.0,0.0,0.0,0.0,0.0,0.0,0.0,0.0,0.0,0.0,0.0,0.0,0.0,0.0,0.0,0.0,0.0,0.0,0.0,0.0,0.0,-1.735,-1.7946,-1.8627,0.0,0.0,0.0,0.0,0.0,0.0,0.0,0.0,0.0,0.0,-2.8721,-2.8608,-2.9,0.0,0.0,-2.8203,-2.7907,-2.7455,-2.7044,-2.6557,-2.5916,-2.4595,0.0,0.0,0.0,0.0,0.0,0.0,0.0,0.0,0.0,0.0,0.0,0.0,0.0,0.0,0.0,0.0,0.0,0.0,0.0,0.0,0.0,0.0,0.0,0.0,0.0,0.0,0.0,0.0,0.0,0.0,0.0,0.0,0.0,0.0,0.0,0.0,0.0,0.0,0.0,0.0,0.0,0.0,0.0,0.0,0.0,0.0,0.0,0.0,0.0,0.0,0.0,0.0,-2.4159,-2.5161,-2.8001,-2.948,-2.9531,-2.9637,-2.9261,-2.843,-2.794,-2.6609,0.0,0.0,0.0,0.0,0.0,0.0,0.0,0.0,0.0,0.0,0.0,0.0,0.0,0.0,0.0,0.0,0.0,0.0,0.0,0.0,0.0,0.0,0.0,0.0,0.0,0.0,0.0,0.0,-1.8449,-1.8948,-1.9289,0.0,0.0,0.0,0.0,0.0,0.0,0.0,0.0,0.0,0.0,-2.8727,-2.8973,-2.9168,-2.9131,-2.8643,-2.8278,-2.7944,-2.7519,-2.7098,-2.6532,-2.5802,0.0,0.0,0.0,0.0,0.0,0.0,0.0,0.0,0.0,0.0,0.0,0.0,0.0,0.0,0.0,0.0,0.0,0.0,0.0,0.0,0.0,0.0,0.0,0.0,0.0,0.0,0.0,0.0,0.0,0.0,-2.3616,0.0,0.0,0.0,0.0,0.0,0.0,0.0,0.0,0.0,0.0,0.0,0.0,0.0,0.0,0.0,0.0,0.0,0.0,0.0,0.0,0.0,0.0,-2.3737,-2.5302,-2.7404,-2.8549,-2.8732,-2.8982,-2.8881,-2.8419,-2.8361,-2.7142,-2.4544,0.0,0.0,0.0,0.0,0.0,0.0,0.0,0.0,0.0,0.0,0.0,0.0,0.0,0.0,0.0,0.0,0.0,0.0,0.0,0.0,0.0,0.0,0.0,0.0,0.0,0.0,-1.8804,-1.8902,-1.8913,0.0,0.0,0.0,0.0,0.0,0.0,0.0,0.0,0.0,0.0,-2.7421,-2.8971,-2.8404,-2.8882,-2.9194,-2.899,-2.8058,-2.7433,-2.7729,-2.7732,-2.7072,0.0,0.0,0.0,0.0,0.0,0.0,0.0,0.0,0.0,0.0,0.0,0.0,0.0,0.0,0.0,0.0,0.0,0.0,0.0,0.0,0.0,0.0,0.0,0.0,0.0,0.0,0.0,-2.8671,-2.7409,0.0,0.0,0.0,0.0,0.0,0.0,0.0,0.0,0.0,0.0,0.0,-2.6063,-2.6325,0.0,0.0,0.0,0.0,0.0,0.0,0.0,0.0,0.0,0.0,0.0,0.0,-2.4358,-2.56,-2.7748,-2.8905,-2.8959,-2.8803,-2.8537,-2.8194,-2.7495,-2.5932,-2.3378,0.0,0.0,0.0,0.0,0.0,0.0,0.0,0.0,0.0,0.0,0.0,0.0,0.0,0.0,0.0,0.0,0.0,0.0,0.0,0.0,0.0,0.0,0.0,0.0,0.0,-1.9241,0.0,0.0,0.0,0.0,0.0,0.0,0.0,0.0,0.0,0.0,0.0,-2.5409,-2.6455,-2.7724,-2.8623,-2.8796,-2.8662,-2.8698,0.0,0.0,0.0,0.0,0.0,0.0,0.0,0.0,0.0,0.0,0.0,0.0,0.0,0.0,-2.0834,-1.9958,-1.9419,-1.9228,-1.9583,0.0,0.0,0.0,0.0,0.0,0.0,0.0,0.0,0.0,0.0,0.0,0.0,0.0,0.0,-3.0483,0.0,-2.8988,0.0,0.0,0.0,0.0,0.0,0.0,0.0,0.0,-2.767,-2.8264,-2.8626,-2.8771,-2.8469,0.0,-2.7253,-2.5761,0.0,0.0,0.0,0.0,0.0,0.0,0.0,0.0,-2.4748,-2.6019,-2.769,-2.8558,-2.8494,-2.8319,-2.8125,-2.7889,-2.6871,-2.5497,-2.3755,-2.3129,-2.2265,0.0,0.0,0.0,0.0,0.0,0.0,0.0,0.0,0.0,0.0,0.0,0.0,0.0,0.0,0.0,0.0,0.0,0.0,0.0,0.0,0.0,0.0,0.0,-2.0012,0.0,0.0,0.0,0.0,0.0,0.0,0.0,0.0,0.0,-2.4476,-2.5199,-2.6233,-2.743,-2.8115,-2.8518,-2.8715,0.0,0.0,0.0,0.0,0.0,0.0,0.0,-2.5779,-2.5187,-2.4023,-2.321,-2.3262,-2.2608,-2.1994,-2.1838,0.0,0.0,-2.0881,-2.0373,-2.0174,-2.0642,-2.0747,-2.0739,-2.074,-2.0879,-2.0918,0.0,0.0,0.0,0.0,0.0,0.0,0.0,0.0,-3.1875,-3.1406,0.0,-3.0791,0.0,0.0,0.0,0.0,0.0,-2.7342,0.0,0.0,-3.1758,-3.2469,-3.2379,-3.1628,-3.0989,-3.0413,-2.9993,-2.895,-2.7239,-2.497,0.0,0.0,0.0,0.0,0.0,0.0,-2.4908,-2.6572,-2.73,-2.7584,-2.7457,-2.76,-2.7605,-2.7424,-2.6503,-2.5839,-2.5531,-2.4603,-2.353,-2.232,-2.2194,0.0,0.0,0.0,0.0,0.0,0.0,0.0,0.0,0.0,0.0,0.0,0.0,0.0,0.0,0.0,0.0,0.0,0.0,0.0,0.0,-2.0412,0.0,0.0,0.0,0.0,0.0,0.0,0.0,0.0,0.0,0.0,-2.5176,-2.6324,-2.7438,-2.7939,0.0,0.0,0.0,0.0,-2.7963,-2.7445,-2.6789,-2.6405,-2.6296,-2.6274,-2.5786,-2.4508,0.0,0.0,-2.2824,-2.2522,-2.2377,-2.1932,-2.1901,-2.1994,-2.2439,-2.2045,-2.1727,-2.1826,-2.1477,-2.1129,-2.0771,-2.0752,-2.0683,-3.5853,0.0,0.0,0.0,0.0,-3.291,-3.3809,-3.5451,-3.5185,-3.4284,-3.2956,-3.2834,0.0,0.0,0.0,0.0,0.0,0.0,-3.0001,-3.125,-3.1611,-3.2063,-3.2481,-3.226,-3.1809,-3.1203,-3.105,-3.0315,-2.8944,-2.8235,-2.6182,-2.2937,0.0,0.0,0.0,0.0,-2.6012,-2.7089,-2.778,-2.8029,-2.7886,-2.7205,-2.6695,-2.6363,-2.6073,-2.5708,-2.519,-2.489,-2.4374,-2.3586,-2.2686,0.0,0.0,0.0,0.0,0.0,0.0,0.0,0.0,0.0,0.0,0.0,0.0,0.0,0.0,0.0,0.0,0.0,0.0,0.0,-2.0711,-2.1256,-2.1661,0.0,0.0,0.0,0.0,0.0,0.0,0.0,0.0,0.0,-2.7598,-2.769,-2.7828,0.0,0.0,-2.8073,-2.7545,-2.7487,-2.7462,-2.7415,-2.6898,0.0,-2.6177,-2.5502,-2.488,-2.4503,-2.4356,-2.399,-2.3131,-2.2998,-2.2946,-2.2801,-2.2791,-2.2936,-2.3349,-2.2553,-2.1881,-2.1807,-2.1709,-2.174,-2.1879,-2.1444,-2.1207,-3.6836,-3.5364,-3.4632,-3.4445,-3.4609,-3.4165,-3.4947,-3.647,-3.6073,-3.5448,-3.4625,-3.407,-3.2237,-2.9587,-2.9144,0.0,0.0,0.0,-3.1322,-3.2309,-3.2556,-3.2875,-3.3206,-3.3006,-3.2687,-3.228,-3.1971,-3.1319,-3.0349,-3.0304,-2.8641,-2.5509,0.0,0.0,-2.4775,-2.5941,-2.6945,-2.7705,-2.8086,-2.8209,-2.803,-2.7107,-2.6492,-2.6272,-2.602,-2.5725,-2.5386,-2.5372,-2.5091,-2.4472,-2.3727,-2.2981,0.0,0.0,0.0,0.0,0.0,0.0,0.0,0.0,0.0,0.0,0.0,-1.8206,-1.8128,0.0,0.0,0.0,-1.9766,-2.0803,-2.2259,-2.2891,0.0,0.0,0.0,0.0,0.0,0.0,0.0,-2.7042,-2.7966,-2.8689,-2.8964,-2.8941,-2.8873,-2.8873,-2.8517,-2.8149,-2.7851,0.0,-2.7126,-2.6899,-2.6528,-2.6082,-2.5558,-2.4955,-2.4504,-2.4498,-2.4333,-2.3991,-2.3557,-2.3453,-2.3401,-2.3246,-2.3194,-2.3277,-2.3557,-2.2915,-2.2333,-2.2362,-2.2201,-2.2159,-2.2261,-2.1466,-2.1072,-3.7011,-3.6811,-3.6008,-3.5625,-3.5565,-3.5422,-3.5385,-3.5369,-3.5415,-3.5399,-3.5355,-3.4692,-3.3391,-3.1654,-3.0509,0.0,-3.0961,-3.2121,-3.2977,-3.359,-3.4138,-3.438,-3.4385,-3.3852,-3.3561,-3.3474,-3.2688,-3.2006,-3.1495,-3.1296,-3.0326,-2.867,-2.8008,-2.762,-2.7491,-2.7465,-2.7781,-2.844,-2.834,-2.8168,-2.798,-2.7272,-2.6863,-2.6807,-2.6217,-2.5865,-2.5823,-2.5767,-2.5486,-2.4964,-2.4827,-2.4013,-2.232,0.0,0.0,0.0,0.0,0.0,0.0,0.0,0.0,0.0,0.0,0.0,0.0,0.0,0.0,0.0,-2.176,0.0,-2.4213,-2.49,0.0,0.0,0.0,-2.6593,-2.6674,-2.7461,-2.8057,-2.8134,0.0,0.0,-2.9561,-2.994,-3.0193,-3.0158,-2.9309,-2.8677,-2.8654,-2.7721,-2.6862,-2.6063,-2.5853,-2.5517,-2.4754,-2.4562,-2.4509,-2.4497,-2.4507,-2.4321,-2.4022,-2.3929,-2.3795,-2.3422,-2.3308,-2.3329,-2.3308,-2.3288,-2.3207,-2.3062,-2.2752,-2.2359,-2.2024,-2.1128,-2.0428,-3.6935,-3.6615,-3.5891,-3.583,-3.618,-3.6168,-3.6138,-3.6138,-3.6138,-3.5856,-3.5385,-3.5203,-3.4623,-3.367,-3.338,-3.3354,-3.3529,-3.3819,-3.4037,-3.4196,-3.4341,-3.438,-3.4399,-3.4254,-3.3935,-3.3489,-3.2688,-3.2006,-3.1495,-3.074,-3.0219,-2.9894,-2.9617,-2.8784,-2.7438,-2.8369,-2.887,-2.8763,-2.8734,-2.8448,-2.7849,-2.7651,-2.7326,-2.6792,-2.6217,-2.5683,-2.5231,-2.4767,-2.4458,-2.4303,-2.3421,-2.2738,-2.2276,-2.0796,0.0,0.0,0.0,0.0,0.0,0.0,0.0,0.0,0.0,-2.0673,-1.9471,0.0,-2.2116,0.0,-2.2914,-2.4156,-2.5245,-2.5846,0.0,0.0,-2.7208,-2.7346,-2.808,-2.8379,-2.8689,-2.9091,-2.9676,-3.0044,-3.0044,-3.0147,-3.0067,-2.9722,-2.9114,-2.8563,-2.8195,-2.7288,-2.6498,-2.5979,-2.5591,-2.5168,-2.4625,-2.4507,-2.4507,-2.4507,-2.4507,-2.4456,-2.4363,-2.4342,-2.4301,-2.424,-2.4177,-2.4187,-2.4114,-2.3785,-2.3239,-2.2727,-2.2542,-2.2459,-2.2317,-2.0995,-2.0123,-3.5944,-3.5706,-3.527,-3.5237,-3.5529,-3.5529,-3.5514,-3.5529,-3.5529,-3.5302,-3.4971,-3.4957,-3.4754,-3.4414,-3.438,-3.438,-3.438,-3.438,-3.438,-3.438,-3.438,-3.438,-3.438,-3.438,-3.408,-3.3489,-3.293,-3.2248,-3.1399,-3.0821,-3.0399,-3.0219,-3.0142,-2.9553,-2.8495,-2.9211,-2.9494,-2.9296,-2.9266,-2.9019,-2.8605,-2.8324,-2.7918,-2.7256,-2.6624,-2.6006,-2.5428,-2.4812,-2.4414,-2.4149,-2.3216,-2.2591,-2.2311,-2.1173,-2.031,0.0,0.0,0.0,0.0,0.0,0.0,0.0,0.0,0.0,0.0,0.0,-2.3752,-2.3936,-2.4923,-2.5957,-2.6955,-2.7506,-2.8126,-2.8896,-2.8735,-2.8769,-2.9309,-2.9378,-2.9493,-2.9791,-3.0055,-3.0216,-3.0216,-3.0021,-2.9802,-2.9527,-2.885,-2.8287,-2.7958,-2.7156,-2.6373,-2.5937,-2.5496,-2.5031,-2.4572,-2.4507,-2.4507,-2.4507,-2.4507,-2.4507,-2.4507,-2.4507,-2.4411,-2.4153,-2.4282,-2.4272,-2.3734,-2.357,-2.3178,-2.2259,-2.1957,-2.1845,-2.1537,-2.0651,-2.0099,-3.4698,-3.4631,-3.4481,-3.438,-3.438,-3.438,-3.438,-3.438,-3.438,-3.438,-3.438,-3.438,-3.438,-3.438,-3.438,-3.438,-3.438,-3.438,-3.438,-3.438,-3.438,-3.437,-3.4298,-3.4264,-3.3931,-3.3369,-3.3023,-3.2353,-3.1303,-3.1031,-3.0608,-3.0064,-2.9958,-2.9806,-2.9639,-2.956,-2.9591,-2.9761,-2.9651,-2.9602,-2.9602,-2.9083,-2.8478,-2.7819,-2.7087,-2.6358,-2.5673,-2.5079,-2.4514,-2.4055,-2.3502,-2.2942,-2.2405,-2.1881,-2.1506,0.0,-2.0935,0.0,0.0,0.0,0.0,0.0,0.0,0.0,0.0,-2.463,-2.5612,-2.6616,-2.7185,-2.7832,-2.8723,-2.9274,-2.9757,-3.0158,-3.0216,-3.0216,-3.0216,-3.0216,-3.0216,-3.0216,-3.0216,-3.0204,-3.0101,-2.9757,-2.9493,-2.9217,-2.8551,-2.7947,-2.7725,-2.6975,-2.6249,-2.5895,-2.5422,-2.4914,-2.4583,-2.4507,-2.4454,-2.4411,-2.4325,-2.4325,-2.4196,-2.4186,-2.4013,-2.3537,-2.3787,-2.3787,-2.257,-2.2862,-2.2687,-2.1373,-2.1159,-2.1007,-2.0477,-2.0107,-1.9733,-3.4597,-3.4448,-3.4414,-3.438,-3.438,-3.438,-3.438,-3.438,-3.438,-3.438,-3.438,-3.438,-3.438,-3.438,-3.438,-3.438,-3.438,-3.438,-3.438,-3.438,-3.438,-3.4138,-3.3674,-3.3512,-3.3114,-3.2479,-3.164,-3.1219,-3.1148,-3.0276,-2.9871,-2.9822,-2.9156,-2.8807,-2.873,0.0,0.0,0.0,-2.9588,-2.9602,-2.9602,-2.9504,-2.89,-2.7804,-2.6655,0.0,-2.4395,-2.3748,-2.333,-2.3225,-2.3122,0.0,0.0,0.0,0.0,0.0,0.0,0.0,0.0,0.0,0.0,0.0,-2.5141,-2.4586,-2.4217,-2.5727,-2.7036,-2.7656,-2.8528,-2.9148,-2.9332,-2.9791,-3.0112,-3.0204,-3.0216,-3.0216,-3.0216,-3.0216,-3.0216,-3.0216,-3.0216,-3.0067,-2.9711,-2.955,-2.9171,-2.8448,-2.8103,-2.7691,-2.6907,-2.6368,-2.5843,-2.5411,-2.4956,-2.4625,-2.4497,-2.4464,-2.4229,-2.3851,-2.3667,-2.3484,-2.2974,-2.2843,-2.2843,-2.2633,-2.2711,-2.2799,-2.2394,-2.2104,-2.157,-2.0393,-2.0357,-2.0456,-2.024,-1.9559,-1.9018,-3.4481,0.0,-3.3962,-3.3825,0.0,-3.3811,-3.3604,-3.3325,-3.4079,-3.438,-3.438,-3.438,-3.438,-3.438,-3.438,-3.438,-3.438,-3.438,-3.438,-3.438,-3.4298,-3.3946,-3.3324,-3.3159,-3.2378,-3.116,-3.0563,-2.9952,-2.9408,-2.8843,-2.861,-2.8648,-2.8214,-2.8019,-2.7986,-2.7657,-2.7848,-2.8578,-2.8532,-2.8578,-2.8578,-2.8578,-2.8112,-2.7186,0.0,0.0,0.0,0.0,0.0,0.0,0.0,0.0,0.0,0.0,0.0,-2.3601,-2.4333,-2.4753,-2.4695,-2.5337,-2.6046,-2.6765,-2.6771,-2.6589,-2.6255,-2.7272,-2.8264,-2.9022,-2.9561,-2.9848,-2.986,-3.0078,-3.0216,-3.0216,-3.0216,-3.0216,-3.0216,-3.0216,-3.0216,-3.0193,-3.0009,-2.9768,-2.9527,-2.9022,-2.8586,-2.8057,-2.7539,-2.6997,-2.6357,-2.6052,-2.5686,-2.4999,-2.4658,-2.4368,-2.4067,-2.398,-2.3754,-2.3125,-2.295,-2.2809,-2.2448,-2.2394,-2.2306,-2.2006,-2.2183,-2.2227,-2.1516,-2.1347,-2.1078,-2.0039,-1.9637,-1.9463,-1.9255,-1.898,-1.8611,-3.4011,-3.3942,-3.3262,-3.3003,-3.3003,-3.3017,-3.2648,-3.2182,0.0,0.0,0.0,-3.4025,-3.4011,-3.4011,-3.4011,-3.3977,-3.3977,-3.3962,-3.3928,-3.3942,-3.3722,-3.3255,-3.2572,-3.239,-3.1347,-2.964,-2.9389,-2.877,-2.771,-2.7571,-2.7504,-2.7471,-2.7384,-2.7237,-2.7136,-2.7103,-2.7116,-2.7136,-2.7384,-2.7504,-2.7504,-2.7504,-2.7163,-2.6498,-2.6388,-2.6065,-2.5458,-2.4942,-2.4486,-2.4158,-2.3786,-2.3773,-2.4302,-2.4711,-2.5336,-2.6178,-2.6767,-2.703,-2.7042,-2.7368,-2.7615,-2.7576,-2.7782,-2.8035,-2.8289,-2.8553,-2.9134,-3.0021,-3.017,-3.0216,-3.0216,-3.0216,-3.0216,-3.0216,-3.0216,-3.0216,-3.0216,-3.0124,-2.9976,-2.984,-2.9374,-2.8989,-2.862,-2.7935,-2.7445,-2.7206,-2.6504,-2.5893,-2.5538,-2.5464,-2.5264,-2.4487,-2.4229,-2.4057,-2.3493,-2.3319,-2.3047,-2.2369,-2.2227,-2.2183,-2.2085,-2.2041,-2.1828,-2.1302,-2.1704,-2.1481,-2.0645,-2.0781,-2.0817,-1.9812,-1.9242,-1.8781,-1.8265,-1.8396,-1.8388,-3.2434,-3.2412,-3.229,-3.2254,-3.2268,-3.2254,-3.2196,-3.2123,-3.234,-3.2412,-3.2412,-3.2434,-3.2412,-3.2448,-3.2412,-3.2448,-3.2412,-3.2232,-3.216,-3.2146,-3.1951,-3.1285,-3.0225,-3.0025,-2.9293,-2.808,-2.7888,-2.7716,-2.755,-2.7484,-2.7504,-2.7404,-2.6879,-2.6242,-2.5652,-2.5616,-2.5604,-2.5639,-2.6879,-2.7504,-2.7504,-2.7504,-2.7196,-2.6525,-2.6003,-2.5433,-2.4827,-2.4639,-2.4715,-2.509,-2.5479,-2.5913,-2.6417,-2.6489,-2.6621,-2.6789,-2.727,-2.757,-2.7621,-2.8062,-2.835,-2.8311,-2.8075,-2.8023,-2.8289,-2.868,-2.9127,-2.9594,-2.9952,-3.0216,-3.0216,-3.017,-3.0125,-3.017,-3.017,-3.0216,-3.0091,-2.9714,-2.9195,-2.8487,-2.7999,-2.7173,-2.6267,-2.5803,-2.5495,-2.4889,-2.4764,-2.4264,-2.3877,-2.4209,-2.4368,-2.3851,-2.3634,-2.3363,-2.2721,-2.2536,-2.2271,-2.1668,-2.1535,-2.1347,-2.0862,-2.0781,-2.0727,-2.051,-2.0645,-2.0555,-2.0292,-2.0337,-2.0238,-1.9737,-1.9546,-1.9142,-1.8357,-1.8265,-1.8032,-3.2123,-3.2051,-3.1636,-3.1452,-3.1415,-3.1046,-3.1071,-3.1378,-3.1046,-3.1331,-3.2074,-3.1978,-3.1942,-3.1928,-3.1819,-3.1769,-3.1756,-3.1659,-3.1623,-3.1609,-3.1156,-3.0436,-2.9618,-2.9148,-2.8234,-2.7061,-2.6934,-2.671,-2.6333,-2.6299,-2.6321,-2.6299,-2.5965,-2.5616,-2.5347,-2.5312,-2.5312,-2.5312,-2.5953,-2.6286,-2.6321,-2.6299,-2.6161,-2.5843,-2.5549,-2.5326,-2.5046,-2.5235,-2.5492,-2.5721,-2.6262,-2.6791,-2.7282,-2.7318,-2.7488,-2.7726,-2.8017,-2.815,-2.815,-2.8378,-2.851,-2.851,-2.8231,-2.8056,-2.8099,-2.8317,-2.8657,-2.9022,-2.9538,-2.9825,-2.9792,-2.9545,-2.9382,-2.9382,-2.8899,-2.85,-2.8261,-2.8065,-2.7679,-2.7016,-2.65,-2.5962,-2.5303,-2.4977,-2.465,-2.4155,-2.3833,-2.3357,-2.278,-2.3062,-2.3256,-2.2984,-2.2906,-2.2589,-2.2006,-2.1872,-2.1561,-2.0907,-2.0781,-2.069,-2.0337,-2.0292,-2.0292,-2.0292,-2.0292,-2.0292,-2.0292,-2.0292,-2.0201,-2.0056,-1.9737,-1.9371,-1.9004,-1.8542,-1.7939,-3.1576,-3.1502,-3.0921,-3.0645,-3.0582,-3.0037,-3.0139,-3.0595,-3.0037,-3.047,-3.1466,-3.1341,-3.1281,-3.123,-3.1044,-3.0957,-3.0957,-3.0919,-3.0869,-3.0803,-3.0134,-2.9479,-2.8873,-2.8212,-2.7278,-2.6258,-2.6139,-2.5861,-2.5347,-2.5312,-2.5312,-2.5312,-2.5312,-2.5312,-2.5312,-2.5312,-2.5312,-2.5312,-2.5312,-2.5312,-2.5312,-2.5312,-2.5312,-2.5312,-2.5312,-2.5312,-2.5336,-2.5817,-2.6154,-2.6298,-2.6765,-2.7318,-2.7822,-2.7702,-2.7751,-2.8119,-2.8007,-2.7874,-2.7874,-2.7886,-2.7926,-2.7874,-2.7713,-2.7522,-2.7324,-2.7262,-2.7663,-2.842,-2.901,-2.9221,-2.9012,-2.8777,-2.8468,-2.8225,-2.7657,-2.7202,-2.6703,-2.648,-2.6129,-2.563,-2.5043,-2.4645,-2.4419,-2.4099,-2.3691,-2.328,-2.2877,-2.235,-2.1996,-2.1917,-2.1917,-2.1961,-2.205,-2.1917,-2.1311,-2.1132,-2.0916,-2.0337,-2.0337,-2.0337,-2.0292,-2.0292,-2.0292,-2.0292,-2.0292,-2.0292,-2.0292,-2.0292,-2.0292,-2.0238,-2.0011,-1.9691,-1.9317,-1.8681,-1.7939,-3.0037,-3.0011,-2.9972,-2.9895,-2.9895,-2.9818,-2.9856,-2.9895,-2.983,-2.9869,-3.0075,-2.9729,-2.9639,-2.96,-2.9457,-2.938,-2.938,-2.9145,-2.9094,-2.9045,-2.8295,-2.7657,-2.7236,-2.6603,-2.5997,-2.5454,-2.5453,-2.5418,-2.5312,-2.5312,-2.5312,-2.5312,-2.5312,-2.5276,-2.5276,-2.5276,-2.5276,-2.5312,-2.5312,-2.5312,-2.5312,-2.5312,-2.5312,-2.5312,-2.5312,-2.5312,-2.5276,-2.5817,-2.6334,-2.6801,-2.728,-2.7846,-2.8235,-2.7683,-2.725,-2.7296,-2.6535,-2.6038,-2.6069,-2.6038,-2.6121,-2.6038,-2.5944,-2.5746,-2.5537,-2.5295,-2.5955,-2.7513,-2.8451,-2.8324,-2.7745,-2.783,-2.7592,-2.6877,-2.69,-2.7061,-2.6424,-2.6179,-2.5439,-2.4227,-2.3634,-2.2989,-2.2428,-2.2204,-2.19,-2.165,-2.1212,-2.0862,-2.0772,-2.0736,-2.0682,-2.0736,-2.1042,-2.1177,-2.0645,-2.0428,-2.0428,-2.0292,-2.0292,-2.0292,-2.0292,-2.0292,-2.0292,-2.0292,-2.0292,-2.0292,-2.0292,-2.0292,-2.0292,-2.0292,-2.0155,-1.9965,-1.9096,-1.855,-1.8032,-2.9779,-2.9779,-2.9779,-2.9779,-2.9779,-2.9779,-2.9779,-2.9779,-2.9779,-2.9779,-2.9663,-2.887,-2.8727,-2.9197,-2.8895,-2.8749,-2.8749,-2.8657,-2.8618,-2.8569,-2.7996,-2.7414,-2.6873,-2.6358,-2.5817,-2.5336,-2.5312,-2.5312,-2.5312,-2.5312,-2.5312,-2.5229,-2.4862,-2.46,-2.4564,-2.4156,-2.4168,-2.4564,-2.46,-2.4588,-2.4636,-2.504,-2.5312,-2.5312,-2.5312,-2.5052,-2.4729,-2.5359,-2.5692,-2.5511,-2.6149,-2.6649,-2.6894,-2.6588,-2.637,-2.637,-2.6038,-2.5746,-2.5663,-2.5621,-2.5621,-2.5621,-2.5305,-2.5094,-2.5189,-2.4872,-2.5051,-2.5776,-2.6346,-2.6443,-2.6135,-2.6034,-2.5757,-2.5374,-2.4955,-2.4531,-2.4086,-2.3893,-2.3396,-2.27,-2.2403,-2.2157,-2.1776,-2.1463,-2.123,-2.0952,-2.06,-2.0292,-2.0292,-2.0292,-2.0292,-2.0337,-2.06,-2.06,-2.0337,-2.0292,-2.0292,-2.0292,-2.0292,-2.0292,-2.0292,-2.0292,-2.0292,-2.0292,-2.0292,-2.0292,-2.0292,-2.0292,-2.0292,-2.0292,-2.0292,-2.0056,-1.9363,-1.9142,-1.8673,-2.9175,-2.9052,-2.904,-2.9052,-2.9091,-2.9052,-2.9052,-2.9052,-2.9013,-2.8961,-2.8882,-2.7799,-2.7678,-2.8171,-2.7914,-2.7753,-2.7753,-2.7753,-2.7753,-2.7695,-2.7214,-2.6683,-2.6194,-2.5667,-2.5151,-2.4718,-2.4636,-2.4647,-2.4683,-2.4683,-2.4683,-2.4564,-2.4084,-2.3781,-2.3756,-2.3243,-2.3279,-2.3745,-2.3793,-2.3781,-2.3866,-2.4384,-2.4683,-2.4695,-2.4788,-2.4557,-2.4031,-2.4894,-2.5161,-2.4628,-2.5341,-2.5777,-2.5777,-2.5579,-2.5316,-2.5115,-2.5073,-2.4988,-2.4861,-2.4787,-2.4776,-2.4734,-2.4382,-2.4211,-2.4264,-2.4016,-2.38,-2.3754,-2.4038,-2.4307,-2.4568,-2.4406,-2.4209,-2.3907,-2.3224,-2.273,-2.241,-2.2327,-2.2235,-2.1769,-2.1794,-2.1687,-2.1642,-2.1329,-2.0997,-2.0952,-2.06,-2.0292,-2.0292,-2.0292,-2.0292,-2.0292,-2.0292,-2.0292,-2.0292,-2.0292,-2.0292,-2.0292,-2.0292,-2.0292,-2.0292,-2.0292,-2.0292,-2.0292,-2.0292,-2.0292,-2.0292,-2.0292,-2.0292,-2.0292,-2.0292,-2.0147,-1.9637,-1.9592,-1.9234,-2.764,-2.7296,-2.7221,-2.7313,-2.7232,-2.7273,-2.7273,-2.7354,-2.7098,-2.6976,-2.7017,-2.6408,-2.6202,-2.6284,-2.6058,-2.5944,-2.5986,-2.6069,-2.608,-2.6025,-2.5513,-2.496,-2.4478,-2.3957,-2.3574,-2.339,-2.3394,-2.3276,-2.3217,-2.3169,-2.3095,-2.3143,-2.3102,-2.3043,-2.3075,-2.3008,-2.3016,-2.313,-2.313,-2.3075,-2.3113,-2.315,-2.3209,-2.3227,-2.3519,-2.3711,-2.3716,-2.4523,-2.4944,-2.4944,-2.538,-2.5694,-2.5652,-2.4988,-2.4198,-2.343,-2.3309,-2.3309,-2.3309,-2.3135,-2.3057,-2.2969,-2.2818,-2.2476,-2.253,-2.2441,-2.2299,-2.1919,-2.2124,-2.2444,-2.3125,-2.3456,-2.3283,-2.2648,-2.2731,-2.262,-2.2346,-2.2263,-2.2099,-2.1787,-2.1687,-2.1696,-2.1687,-2.1266,-2.1033,-2.0907,-2.0555,-2.0292,-2.0292,-2.0292,-2.0292,-2.0292,-2.0292,-2.0292,-2.0292,-2.0292,-2.0292,-2.0292,-2.0292,-2.0292,-2.0292,-2.0292,-2.0292,-2.0292,-2.0292,-2.0292,-2.0292,-2.0292,-2.0292,-2.0292,-2.0292,-2.0102,-1.9828,-1.9691,-1.9371,-2.7538,-2.711,-2.7098,-2.7098,-2.7098,-2.6987,-2.6894,-2.6894,-2.6689,-2.6607,-2.6431,-2.5661,-2.5284,-2.5252,-2.4425,-2.4701,-2.5735,-2.5777,-2.5777,-2.5766,-2.5603,-2.5235,-2.4788,-2.4592,-2.4092,-2.3476,-2.3367,-2.3241,-2.3005,-2.2995,-2.2995,-2.2948,-2.2755,-2.2625,-2.2601,-2.2403,-2.2537,-2.3,-2.3079,-2.304,-2.3047,-2.3089,-2.2814,-2.2368,-2.3147,-2.3494,-2.3292,-2.3862,-2.394,-2.3408,-2.3825,-2.4059,-2.4059,-2.3777,-2.3474,-2.3135,-2.3101,-2.3047,-2.2925,-2.2662,-2.253,-2.253,-2.2176,-2.1998,-2.2052,-2.1919,-2.1785,-2.1741,-2.1687,-2.19,-2.2097,-2.2342,-2.2302,-2.2015,-2.2034,-2.2099,-2.1943,-2.1897,-2.1887,-2.1723,-2.1687,-2.1651,-2.1517,-2.1239,-2.0952,-2.0781,-2.0518,-2.0337,-2.0292,-2.0292,-2.0292,-2.0292,-2.0292,-2.0292,-2.0292,-2.0292,-2.0292,-2.0292,-2.0292,-2.0292,-2.0292,-2.0292,-2.0292,-2.0292,-2.0292,-2.0292,-2.0292,-2.0292,-2.0292,-2.0292,-2.0292,-2.0184,-2.0056,-1.9704,-1.9575,-2.6701,-2.629,-2.6174,-2.6174,-2.6133,-2.5902,-2.5819,-2.5819,-2.561,-2.5526,-2.5358,-2.4595,-2.4243,-2.4125,-2.343,-2.3724,-2.4861,-2.4904,-2.4946,-2.4904,-2.4935,-2.4651,-2.4282,-2.4178,-2.3829,-2.3137,-2.3061,-2.2921,-2.2668,-2.2636,-2.2674,-2.2629,-2.2355,-2.226,-2.2201,-2.2025,-2.2205,-2.2635,-2.2727,-2.2717,-2.2717,-2.2717,-2.2521,-2.2271,-2.2828,-2.316,-2.293,-2.3262,-2.3293,-2.283,-2.2945,-2.3101,-2.3101,-2.3101,-2.3101,-2.3101,-2.3101,-2.3057,-2.2891,-2.2564,-2.2397,-2.2388,-2.1998,-2.1776,-2.1963,-2.1776,-2.1687,-2.1687,-2.1687,-2.1687,-2.1687,-2.1741,-2.1687,-2.1687,-2.1687,-2.1687,-2.1687,-2.1696,-2.1696,-2.1696,-2.1687,-2.1651,-2.1472,-2.1186,-2.0961,-2.0781,-2.051,-2.0292,-2.0292,-2.0292,-2.0102,-1.9866,-1.9774,-1.9492,-1.9209,-1.8926,-1.9774,-1.9957,-2.0011,-2.0102,-2.0056,-2.0102,-2.0147,-2.0192,-2.0246,-2.0292,-2.0292,-2.0246,-2.0246,-2.0192,-2.0221,-2.0158,-1.9914,-1.9654,-1.9182,-2.5018,-2.4634,-2.4325,-2.4411,-2.4401,-2.4176,-2.3874,-2.396,-2.3754,-2.3797,-2.3787,-2.3319,-2.3309,-2.3178,-2.3178,-2.3178,-2.3309,-2.3387,-2.3387,-2.3353,-2.3309,-2.3136,-2.2791,-2.2824,-2.2597,-2.2132,-2.1989,-2.1979,-2.2014,-2.2025,-2.1994,-2.194,-2.1991,-2.204,-2.1936,-2.2004,-2.2004,-2.2117,-2.2146,-2.2065,-2.1955,-2.2117,-2.2261,-2.248,-2.2598,-2.264,-2.2572,-2.2934,-2.312,-2.3096,-2.3071,-2.3101,-2.3101,-2.3101,-2.3101,-2.3101,-2.3101,-2.3101,-2.3013,-2.2608,-2.2353,-2.2353,-2.1963,-2.1687,-2.1741,-2.1731,-2.1687,-2.1687,-2.1687,-2.1687,-2.1687,-2.1687,-2.1687,-2.1687,-2.1687,-2.1687,-2.1687,-2.1687,-2.1687,-2.1687,-2.1687,-2.1687,-2.1597,-2.1275,-2.0952,-2.0673,-2.0365,-2.0011,-1.982,-1.9774,-1.9683,-1.9072,-1.8788,-1.8603,-1.7948,-1.7475,-1.8603,-1.9538,-1.9637,-1.9683,-1.9492,-1.9438,-1.9347,-1.9401,-1.9355,-1.9355,-1.9355,-1.9355,-1.9492,-1.9538,-1.9741,-1.9617,-1.912,-1.8623,-1.8247,-2.5019,-2.4723,-2.4382,-2.411,-2.3937,-2.3667,-2.358,-2.3537,-2.3319,-2.3232,-2.3232,-2.3135,-2.3101,-2.3101,-2.3101,-2.3101,-2.3101,-2.3101,-2.3101,-2.3091,-2.3101,-2.3033,-2.2916,-2.2886,-2.2682,-2.2324,-2.2021,-2.1894,-2.1914,-2.1914,-2.1936,-2.1934,-2.2187,-2.2305,-2.2334,-2.2588,-2.2701,-2.2754,-2.2711,-2.2711,-2.2701,-2.2744,-2.2769,-2.2877,-2.2896,-2.2896,-2.2906,-2.3023,-2.3091,-2.3101,-2.3101,-2.3101,-2.3101,-2.3101,-2.3047,-2.2935,-2.2891,-2.2891,-2.2838,-2.2495,-2.2274,-2.2274,-2.1954,-2.1731,-2.1687,-2.1687,-2.1687,-2.1687,-2.1687,-2.1687,-2.1687,-2.1687,-2.1687,-2.1687,-2.1687,-2.1687,-2.1687,-2.1687,-2.1687,-2.1687,-2.1687,-2.1651,-2.1472,-2.115,-2.0529,-1.9886,-1.9484,-1.9117,-1.8465,-1.8465,-1.818,-1.7801,-1.7716,-1.7623,-1.7016,-1.6687,-1.7289,-1.8087,-1.8419,-1.8842,-1.8742,-1.8688,-1.8596,-1.8557,-1.8511,-1.8511,-1.8465,-1.8465,-1.865,-1.8465,-1.8311,-1.8072,-1.7734,-1.7474,-1.7235,-2.5033,-2.4696,-2.4173,-2.3841,-2.3667,-2.345,-2.3373,-2.3329,-2.3188,-2.3101,-2.3101,-2.3101,-2.3101,-2.3101,-2.3101,-2.3101,-2.3057,-2.2775,-2.2599,-2.2643,-2.3003,-2.3091,-2.3101,-2.3101,-2.2984,-2.2754,-2.248,-2.2353,-2.2353,-2.2353,-2.2353,-2.2422,-2.2617,-2.2701,-2.2764,-2.2955,-2.3101,-2.3101,-2.3081,-2.3101,-2.3091,-2.3101,-2.3101,-2.3091,-2.3091,-2.3101,-2.3101,-2.3101,-2.3101,-2.3101,-2.3101,-2.3101,-2.3101,-2.3091,-2.3047,-2.2925,-2.2838,-2.2803,-2.2759,-2.2362,-2.2141,-2.2176,-2.1919,-2.1696,-2.1687,-2.1687,-2.1687,-2.1687,-2.1687,-2.1687,-2.1687,-2.1687,-2.1687,-2.1687,-2.1687,-2.1687,-2.1687,-2.1687,-2.1687,-2.1642,-2.1365,-2.1177,-2.0952,-2.0221,-1.9695,-1.8872,-1.8457,-1.8133,-1.7483,-1.7382,-1.7149,-1.6922,-1.6734,-1.6499,-1.6177,-1.6082,-1.6075,-1.6546,-1.6969,-1.7483,-1.7755,-1.7801,-1.7755,-1.7801,-1.7809,-1.7855,-1.7809,-1.7716,-1.7708,-1.7336,-1.7088,-1.704,-1.6982,-1.675,-1.6416,-2.4746,-2.4282,-2.3604,-2.3178,-2.3135,-2.2916,-2.2731,-2.2872,-2.2818,-2.2731,-2.2775,-2.2687,-2.2775,-2.2818,-2.2643,-2.2643,-2.274,-2.2006,-2.1596,-2.1828,-2.228,-2.2643,-2.2589,-2.2599,-2.2526,-2.2629,-2.2644,-2.2707,-2.2446,-2.2509,-2.2916,-2.2591,-2.2547,-2.2843,-2.2585,-2.2872,-2.2687,-2.2643,-2.2731,-2.2731,-2.2731,-2.2775,-2.2775,-2.2775,-2.2731,-2.2687,-2.2643,-2.2775,-2.296,-2.3091,-2.3101,-2.3101,-2.3091,-2.3047,-2.2916,-2.2925,-2.2794,-2.2618,-2.2574,-2.2087,-2.1954,-2.2097,-2.1874,-2.1687,-2.1687,-2.1553,-2.141,-2.141,-2.132,-2.132,-2.132,-2.1275,-2.132,-2.1463,-2.1365,-2.1454,-2.1597,-2.1463,-2.1186,-2.1141,-2.0718,-2.0204,-2.0121,-1.9055,-1.8311,-1.7848,-1.7475,-1.7149,-1.6781,-1.6499,-1.6499,-1.6224,-1.5805,-1.5568,-1.5289,-1.5235,-1.5235,-1.5466,-1.5798,-1.617,-1.6593,-1.6633,-1.6586,-1.668,-1.6868,-1.7008,-1.6915,-1.6633,-1.6539,-1.6398,-1.6296,-1.6325,-1.6159,-1.5839,-1.567,-2.2776,-2.2425,-2.1708,-2.123,-2.1096,-2.1006,-2.1006,-2.0962,-2.0998,-2.1096,-2.1006,-2.0953,-2.1051,-2.0962,-2.1006,-2.0962,-2.0953,-2.0728,-2.0602,-2.0638,-2.0818,-2.0962,-2.0953,-2.1006,-2.1006,-2.1051,-2.1141,-2.0962,-2.0953,-2.1096,-2.1096,-2.0962,-2.1141,-2.1042,-2.0962,-2.1096,-2.0953,-2.0953,-2.1006,-2.1051,-2.1051,-2.1051,-2.0953,-2.0953,-2.1006,-2.1051,-2.1096,-2.1686,-2.2413,-2.3047,-2.3101,-2.3101,-2.296,-2.2413,-2.2192,-2.2246,-2.1248,-2.1033,-2.1767,-2.1311,-2.1221,-2.1963,-2.1642,-2.1687,-2.1696,-2.1042,-2.0763,-2.0529,-2.0076,-1.9621,-1.9621,-1.9666,-1.9621,-1.9666,-2.0212,-2.0583,-2.0529,-2.0031,-1.9575,-1.953,-1.9384,-1.9247,-1.9018,-1.8411,-1.7623,-1.7016,-1.6499,-1.5981,-1.5704,-1.5425,-1.533,-1.5051,-1.4723,-1.4586,-1.449,-1.4442,-1.4442,-1.4532,-1.4717,-1.486,-1.5099,-1.5146,-1.5051,-1.5003,-1.5425,-1.5656,-1.533,-1.4956,-1.5092,-1.5514,-1.5298,-1.5199,-1.4988,-1.4765,-1.4813,-2.1743,-2.154,-2.0778,-2.0322,-2.0187,-2.0187,-2.0187,-2.0187,-2.0187,-2.0187,-2.0187,-2.0187,-2.0187,-2.0187,-2.0232,-2.0187,-2.0141,-1.9778,-1.9604,-1.9559,-1.9193,-1.9467,-2.0005,-2.0187,-2.0187,-2.0187,-2.0187,-2.0232,-2.0232,-2.0187,-2.0187,-2.0277,-2.0187,-2.0187,-2.0277,-2.0187,-2.0187,-2.0232,-2.0187,-2.0187,-2.0187,-2.0187,-2.0232,-2.0232,-2.0187,-2.0187,-2.0322,-2.0773,-2.1364,-2.1863,-2.2236,-2.2334,-2.1872,-2.1364,-2.115,-2.1293,-2.0158,-1.9985,-2.0439,-2.0068,-2.0031,-2.0492,-2.0538,-2.0492,-2.0357,-1.994,-1.9658,-1.9567,-1.9063,-1.8834,-1.8796,-1.8796,-1.8796,-1.8934,-1.8972,-1.9255,-1.9613,-1.9201,-1.8888,-1.8696,-1.8427,-1.8149,-1.8149,-1.7404,-1.6655,-1.5994,-1.5473,-1.5003,-1.458,-1.4346,-1.4298,-1.4298,-1.4298,-1.4346,-1.4346,-1.4346,-1.4298,-1.4346,-1.4346,-1.4298,-1.4298,-1.4298,-1.4346,-1.4442,-1.4346,-1.4298,-1.4298,-1.4298,-1.449,-1.4675,-1.4346,-1.4298,-1.4298,-1.4298,-1.4298,-2.1083,-2.1016,-2.0226,-1.9914,-1.9824,-1.9869,-1.9687,-1.9832,-1.9695,-1.9733,-1.9733,-1.9815,-1.9596,-1.9914,-1.955,-1.9778,-1.9733,-1.8918,-1.8696,-1.8419,-1.8102,-1.828,-1.9459,-1.9559,-1.955,-1.9596,-1.9824,-1.9741,-1.9559,-1.9687,-1.9824,-1.9596,-1.9687,-1.9824,-1.955,-1.9695,-1.9869,-1.9687,-1.955,-1.9559,-1.9559,-1.9559,-1.9513,-1.9505,-1.955,-1.9559,-1.965,-1.9877,-1.9968,-1.9824,-2.0917,-2.1096,-2.0413,-2.0232,-2.0059,-1.984,-1.9384,-1.8972,-1.9101,-1.8972,-1.8796,-1.9018,-1.9026,-1.8796,-1.898,-1.8834,-1.8657,-1.865,-1.8557,-1.8241,-1.8187,-1.8326,-1.8234,-1.8048,-1.7591,-1.7692,-1.8241,-1.8473,-1.8473,-1.8473,-1.7645,-1.7232,-1.681,-1.6062,-1.5178,-1.554,-1.5016,-1.4627,-1.4394,-1.4346,-1.4298,-1.4298,-1.4298,-1.4298,-1.4298,-1.4298,-1.4298,-1.4298,-1.4298,-1.4298,-1.4298,-1.4298,-1.4298,-1.4298,-1.4298,-1.4298,-1.4298,-1.4298,-1.4298,-1.4298,-1.4298,-1.4298,-1.4298,-1.4298,-1.4298,-1.8981,-1.8912,-1.8197,-1.7917,-1.7917,-1.7924,-1.7963,-1.8017,-1.7963,-1.8102,-1.7963,-1.7963,-1.801,-1.801,-1.8102,-1.7924,-1.8102,-1.7777,-1.7598,-1.7598,-1.7466,-1.7466,-1.7963,-1.8056,-1.801,-1.8056,-1.7963,-1.7963,-1.801,-1.8149,-1.7971,-1.801,-1.8195,-1.7963,-1.801,-1.8149,-1.7917,-1.7917,-1.801,-1.8102,-1.8102,-1.8102,-1.8102,-1.8102,-1.8056,-1.7878,-1.7885,-1.838,-1.8288,-1.8141,-1.9185,-2.0187,-1.9923,-1.9376,-1.9201,-1.9018,-1.8064,-1.7738,-1.8427,-1.8102,-1.7963,-1.8511,-1.8519,-1.8796,-1.8742,-1.801,-1.7692,-1.7458,-1.6951,-1.6716,-1.6709,-1.6527,-1.6615,-1.6662,-1.6426,-1.6292,-1.6426,-1.652,-1.6615,-1.652,-1.6386,-1.6157,-1.6109,-1.5696,-1.5131,-1.5035,-1.4742,-1.44,-1.4298,-1.4298,-1.4298,-1.4298,-1.4298,-1.4298,-1.4298,-1.4298,-1.4298,-1.4298,-1.4298,-1.4298,-1.4298,-1.4298,-1.4298,-1.4298,-1.4298,-1.4298,-1.4298,-1.4298,-1.4298,-1.4298,-1.4298,-1.4298,-1.4298,-1.4298,-1.4298,-1.8438,-1.8255,-1.7765,-1.7465,-1.7301,-1.7286,-1.7286,-1.7286,-1.7286,-1.7286,-1.7286,-1.7286,-1.7286,-1.7286,-1.7286,-1.7333,-1.7286,-1.72,-1.7239,-1.7239,-1.7099,-1.7059,-1.7106,-1.7052,-1.7052,-1.7239,-1.7333,-1.7286,-1.7286,-1.72,-1.7246,-1.7153,-1.7153,-1.7192,-1.7044,-1.7145,-1.7279,-1.7286,-1.7239,-1.7286,-1.7286,-1.7286,-1.7286,-1.7286,-1.7192,-1.7113,-1.7113,-1.734,-1.7185,-1.7091,-1.7824,-1.8603,-1.8611,-1.8156,-1.7971,-1.7831,-1.7185,-1.6629,-1.7084,-1.699,-1.681,-1.7358,-1.7404,-1.7412,-1.7358,-1.685,-1.6669,-1.6487,-1.6157,-1.5825,-1.5825,-1.5825,-1.5825,-1.5825,-1.5825,-1.5825,-1.5825,-1.5825,-1.5825,-1.5825,-1.592,-1.5784,-1.5601,-1.5267,-1.5035,-1.4885,-1.464,-1.4298,-1.4298,-1.4298,-1.4298,-1.4298,-1.4298,-1.4298,-1.4298,-1.4298,-1.4298,-1.4298,-1.4298,-1.4298,-1.4298,-1.4298,-1.4298,-1.4298,-1.4298,-1.4298,-1.4298,-1.4298,-1.4298,-1.4298,-1.4298,-1.4298,-1.4298,-1.4298,-1.4298,-1.8247,-1.8072,-1.7606,-1.7242,-1.6979,-1.6904,-1.6857,-1.6904,-1.6951,-1.6763,-1.6951,-1.6958,-1.6763,-1.6897,-1.7044,-1.7138,-1.7239,-1.7113,-1.7113,-1.7153,-1.6918,-1.6878,-1.6878,-1.6824,-1.6817,-1.7145,-1.7138,-1.7138,-1.7099,-1.7012,-1.6925,-1.6932,-1.6932,-1.6871,-1.677,-1.6958,-1.7052,-1.6965,-1.7106,-1.7246,-1.7246,-1.7246,-1.7246,-1.7099,-1.7019,-1.6885,-1.6784,-1.673,-1.6534,-1.6487,-1.6487,-1.6636,-1.6737,-1.6737,-1.6541,-1.6629,-1.6359,-1.6258,-1.6157,-1.5967,-1.592,-1.5825,-1.5872,-1.5872,-1.592,-1.6015,-1.5967,-1.592,-1.5825,-1.5825,-1.5825,-1.5825,-1.5825,-1.5825,-1.5825,-1.5825,-1.5825,-1.5825,-1.5825,-1.5784,-1.5737,-1.5642,-1.5452,-1.5213,-1.4975,-1.4742,-1.4496,-1.4298,-1.4298,-1.4298,-1.4298,-1.4298,-1.4298,-1.4298,-1.4298,-1.4298,-1.4298,-1.4298,-1.4298,-1.425,-1.4298,-1.4298,-1.4298,-1.4298,-1.4298,-1.4298,-1.4298,-1.4298,-1.4298,-1.4298,-1.4298,-1.4298,-1.4298,-1.4298,-1.4298,-1.6784,-1.7251,-1.6064,-1.5519,-1.5486,-1.548,-1.5575,-1.548,-1.5575,-1.548,-1.5527,-1.5527,-1.5575,-1.5669,-1.619,-1.6662,-1.685,-1.6676,-1.6737,-1.6777,-1.6588,-1.6494,-1.6298,-1.615,-1.6386,-1.6676,-1.6574,-1.6426,-1.6629,-1.6683,-1.6487,-1.6588,-1.6683,-1.6581,-1.6581,-1.6676,-1.677,-1.6737,-1.6925,-1.7019,-1.7066,-1.7019,-1.6972,-1.6824,-1.6737,-1.6595,-1.6414,-1.6312,-1.617,-1.5974,-1.5927,-1.6076,-1.6312,-1.6494,-1.6447,-1.6312,-1.6218,-1.6028,-1.5832,-1.5825,-1.5825,-1.5825,-1.5825,-1.5825,-1.5825,-1.5825,-1.5825,-1.5825,-1.5825,-1.5825,-1.5825,-1.5825,-1.5825,-1.5825,-1.5825,-1.5825,-1.5825,-1.5825,-1.5825,-1.5784,-1.5683,-1.5493,-1.5255,-1.5064,-1.4831,-1.464,-1.4442,-1.4298,-1.4298,-1.4298,-1.4298,-1.4298,-1.4298,-1.4298,-1.4298,-1.4298,-1.4298,-1.4298,-1.4298,-1.4154,-1.4202,-1.4298,-1.4298,-1.4052,-1.4154,-1.4298,-1.4298,-1.4298,-1.4298,-1.4298,-1.4298,-1.4298,-1.4298,-1.4298,-1.4298,-1.6315,-1.6447,-1.5635,-1.5233,-1.5118,-1.5105,-1.5105,-1.5105,-1.5105,-1.5105,-1.5105,-1.5105,-1.5105,-1.5146,-1.5092,-1.5317,-1.5311,-1.5086,-1.5092,-1.5134,-1.4895,-1.4806,-1.4806,-1.4704,-1.4555,-1.4555,-1.4555,-1.5086,-1.5669,-1.5622,-1.5622,-1.5764,-1.6062,-1.6353,-1.6305,-1.644,-1.6393,-1.6447,-1.6588,-1.673,-1.6784,-1.673,-1.6683,-1.6588,-1.64,-1.6312,-1.6218,-1.6028,-1.5927,-1.5832,-1.5825,-1.5879,-1.5974,-1.6069,-1.6163,-1.6123,-1.6028,-1.5974,-1.5832,-1.5825,-1.5825,-1.5825,-1.5825,-1.5825,-1.5825,-1.5825,-1.5825,-1.5825,-1.5825,-1.5825,-1.5825,-1.5825,-1.5825,-1.5825,-1.5825,-1.5825,-1.5825,-1.5825,-1.573,-1.573,-1.5588,-1.535,-1.5016,-1.4825,-1.4634,-1.449,-1.4388,-1.4346,-1.4298,-1.4298,-1.4298,-1.41,-1.4052,-1.3908,-1.3908,-1.3859,-1.3811,-1.3859,-1.3908,-1.3763,-1.3763,-1.3709,-1.3613,-1.3414,-1.3661,-1.3908,-1.4298,-1.4298,-1.4298,-1.4298,-1.4298,-1.4298,-1.4298,-1.4298,-1.4298,-1.575,-1.557,-1.5152,-1.4819,-1.464,-1.4627,-1.458,-1.4621,-1.443,-1.4334,-1.4478,-1.428,-1.4184,-1.4232,-1.398,-1.3686,-1.3434,-1.3355,-1.3451,-1.3542,-1.3307,-1.3022,-1.2926,-1.2829,-1.292,-1.3162,-1.2678,-1.3156,-1.422,-1.4364,-1.4322,-1.4418,-1.5153,-1.5397,-1.5194,-1.5235,-1.5629,-1.5676,-1.5771,-1.5906,-1.5913,-1.5913,-1.5859,-1.5812,-1.5629,-1.5397,-1.5201,-1.5051,-1.4956,-1.5057,-1.5201,-1.5343,-1.5248,-1.535,-1.5493,-1.5547,-1.5642,-1.5778,-1.5825,-1.5825,-1.5825,-1.5825,-1.5825,-1.5825,-1.5825,-1.5825,-1.5825,-1.5825,-1.5825,-1.5825,-1.5825,-1.5825,-1.5825,-1.5825,-1.5825,-1.5825,-1.5825,-1.573,-1.5445,-1.5397,-1.5397,-1.5207,-1.4831,-1.4634,-1.449,-1.4442,-1.4346,-1.4346,-1.4298,-1.4298,-1.425,-1.3908,-1.3661,-1.3468,-1.3372,-1.3221,-1.3076,-1.2877,-1.2877,-1.278,-1.2829,-1.2926,-1.2732,-1.2533,-1.278,-1.3028,-1.3661,-1.4298,-1.4298,-1.4298,-1.4298,-1.4298,-1.4298,-1.4298,-1.4298,-1.4128,-1.4517,-1.3536,-1.3072,-1.3098,-1.3098,-1.3098,-1.3044,-1.2657,-1.236,-1.2554,-1.2014,-1.1868,-1.1917,-1.2247,-1.2721,-1.3054,-1.292,-1.2732,-1.2678,-1.2684,-1.2538,-1.263,-1.2732,-1.2344,-1.215,-1.1658,-1.2047,-1.2727,-1.2872,-1.2969,-1.3065,-1.3264,-1.3167,-1.3553,-1.3698,-1.3119,-1.3258,-1.3505,-1.365,-1.3698,-1.3698,-1.3596,-1.3451,-1.336,-1.3457,-1.3553,-1.3505,-1.3409,-1.3409,-1.4046,-1.395,-1.3409,-1.3998,-1.3806,-1.3944,-1.4567,-1.5778,-1.5581,-1.5439,-1.5439,-1.5391,-1.5486,-1.573,-1.5486,-1.554,-1.5635,-1.5825,-1.573,-1.5683,-1.5588,-1.5635,-1.573,-1.5629,-1.5439,-1.5486,-1.554,-1.4908,-1.4717,-1.4478,-1.428,-1.4634,-1.4592,-1.4448,-1.4298,-1.4298,-1.4298,-1.4154,-1.4058,-1.3865,-1.3769,-1.3329,-1.3033,-1.284,-1.2791,-1.264,-1.2441,-1.2096,-1.1999,-1.1901,-1.1755,-1.1804,-1.1663,-1.1565,-1.1809,-1.2344,-1.3125,-1.3661,-1.4106,-1.4154,-1.3902,-1.4052,-1.4298,-1.4298,-1.4298,-1.2659,-1.2728,-1.216,-1.1878,-1.1883,-1.1883,-1.1878,-1.1829,-1.1634,-1.1536,-1.1487,-1.134,-1.1047,-1.09,-1.0993,-1.1135,-1.1277,-1.1277,-1.1135,-1.1228,-1.1228,-1.1135,-1.0939,-1.0939,-1.0939,-1.0988,-1.0596,-1.0449,-1.1033,-1.1565,-1.1853,-1.1901,-1.2393,-1.2829,-1.249,-1.2635,-1.2732,-1.2775,-1.2877,-1.2883,-1.2877,-1.2877,-1.278,-1.2684,-1.2635,-1.2587,-1.2581,-1.2684,-1.2684,-1.278,-1.3264,-1.3167,-1.2877,-1.3119,-1.3119,-1.2969,-1.3457,-1.3986,-1.3986,-1.404,-1.4178,-1.4082,-1.4082,-1.3986,-1.4136,-1.4573,-1.4621,-1.4034,-1.4621,-1.4914,-1.4771,-1.4376,-1.4526,-1.4621,-1.4615,-1.4328,-1.428,-1.4034,-1.365,-1.3409,-1.3167,-1.3318,-1.3468,-1.3318,-1.298,-1.2883,-1.2834,-1.2786,-1.2743,-1.27,-1.2603,-1.2559,-1.2316,-1.2116,-1.2116,-1.2063,-1.1907,-1.1658,-1.1463,-1.1268,-1.0734,-1.0538,-1.0538,-1.0734,-1.1023,-1.1707,-1.249,-1.2689,-1.2737,-1.3071,-1.336,-1.3511,-1.3715,-1.4202,-1.4202,-1.1207,-1.1057,-1.1157,-1.1194,-1.1194,-1.1194,-1.1243,-1.1194,-1.1047,-1.0998,-1.0949,-1.085,-1.056,-1.0314,-1.0216,-1.0117,-0.9723,-0.9624,-0.9624,-0.9624,-0.9624,-0.9723,-0.9871,-0.9723,-0.9723,-0.9624,-0.9821,-0.9821,-0.9965,-1.0355,-1.0788,-1.0832,-1.1326,-1.1712,-1.1858,-1.1712,-1.1668,-1.1668,-1.1717,-1.1712,-1.176,-1.1814,-1.1809,-1.1858,-1.1907,-1.1955,-1.1907,-1.1858,-1.1809,-1.1809,-1.2145,-1.215,-1.1809,-1.2052,-1.2052,-1.1809,-1.1907,-1.1912,-1.2198,-1.2436,-1.2587,-1.2684,-1.2684,-1.3022,-1.2974,-1.3463,-1.3709,-1.3022,-1.3414,-1.3854,-1.3757,-1.3167,-1.336,-1.3457,-1.336,-1.2974,-1.2678,-1.2727,-1.2533,-1.2096,-1.1804,-1.1458,-1.1609,-1.1707,-1.1609,-1.1463,-1.137,-1.1419,-1.1521,-1.1678,-1.1629,-1.1634,-1.1145,-1.0998,-1.0944,-1.0988,-1.1033,-1.1028,-1.0828,-1.0435,-0.9854,-0.9608,-0.9558,-0.985,-1.0145,-1.0145,-1.0391,-1.0881,-1.137,-1.195,-1.2441,-1.2732,-1.3028,-1.3565,-1.41,-0.9899,-0.9838,-1.0757,-1.1096,-1.1145,-1.1194,-1.1145,-1.0998,-1.0605,-1.0359,-1.0162,-0.992,-0.9628,-0.9628,-0.9624,-0.9624,-0.9624,-0.9624,-0.9624,-0.9624,-0.9624,-0.9624,-0.9624,-0.9624,-0.9624,-0.9624,-0.9624,-0.9624,-0.9624,-0.9772,-0.9867,-0.9772,-1.0261,-1.0015,-1.0064,-1.0355,-1.0306,-1.0306,-1.0306,-1.0212,-1.0158,-1.0113,-1.0113,-1.0064,-0.9916,-0.9821,-0.9821,-1.0113,-1.0212,-1.0256,-1.0886,-1.0984,-1.065,-1.0935,-1.0935,-1.0498,-1.0355,-1.0355,-1.0547,-1.1468,-1.2441,-1.2635,-1.249,-1.2247,-1.2198,-1.2538,-1.2684,-1.249,-1.2587,-1.278,-1.2829,-1.2727,-1.2393,-1.2484,-1.229,-1.1955,-1.176,-1.1799,-1.1507,-1.0925,-1.0534,-1.0288,-1.0145,-1.0346,-1.0636,-1.0538,-1.0788,-1.0841,-1.0944,-1.0998,-1.085,-1.0605,-0.9969,-0.9673,-0.9525,-0.9669,-1.001,-0.9908,-0.9706,-0.9316,-0.8775,-0.8676,-0.892,-0.8722,-0.892,-0.8581,-0.8531,-0.9509,-1.0342,-1.0979,-1.1419,-1.1663,-1.2052,-1.249,-1.327,-0.8315,-0.8184,-0.8574,-0.932,-1.0216,-1.0216,-1.0216,-1.0064,-0.9472,-0.8825,-0.8474,-0.8233,-0.8432,-0.8733,-0.8882,-0.9179,-0.9529,-0.9624,-0.9575,-0.9624,-0.9624,-0.9575,-0.9624,-0.9525,-0.9624,-0.9579,-0.9579,-0.9624,-0.9624,-0.9624,-0.9624,-0.9624,-0.9624,-0.9624,-0.9624,-0.9624,-0.9624,-0.9624,-0.9624,-0.9624,-0.9624,-0.9624,-0.9624,-0.9624,-0.9624,-0.9624,-0.9673,-0.9624,-0.9624,-0.9723,-1.0064,-0.992,-0.9727,-1.0158,-1.0015,-0.9673,-0.9624,-0.9624,-0.9624,-1.0404,-1.0743,-1.0792,-1.0743,-1.0886,-1.1082,-1.1375,-1.1277,-1.1228,-1.1468,-1.176,-1.1755,-1.1272,-1.0841,-1.1272,-1.1272,-1.0935,-1.0739,-1.073,-1.0435,-0.9854,-0.9509,-0.9266,-0.9122,-0.9031,-0.9418,-0.971,-1.006,-1.031,-1.0408,-1.0413,-1.0265,-1.0216,-0.9677,-0.948,-0.9381,-0.9282,-0.9187,-0.8985,-0.8783,-0.8581,-0.8432,-0.8432,-0.8528,-0.8137,-0.7988,-0.8137,-0.8382,-0.8772,-0.9361,-0.9998,-1.0342,-1.0587,-1.0979,-1.1463,-1.2247,-0.7321,-0.7191,-0.7185,-0.7836,-0.8829,-0.8878,-0.8882,-0.8783,-0.8333,-0.7786,-0.7185,-0.7235,-0.7487,-0.7935,-0.8035,-0.8233,-0.863,-0.8779,-0.8829,-0.8779,-0.873,-0.8878,-0.8977,-0.9076,-0.9126,-0.9278,-0.9529,-0.9624,-0.9624,-0.9624,-0.9624,-0.9624,-0.9624,-0.9624,-0.9624,-0.9624,-0.9624,-0.9624,-0.9624,-0.9624,-0.9624,-0.9624,-0.9624,-0.9624,-0.9624,-0.9624,-0.9624,-0.9624,-0.9624,-0.9624,-0.9673,-0.9624,-0.9628,-0.9624,-0.9624,-0.9624,-0.9624,-0.9624,-0.9624,-0.9624,-0.9624,-0.9867,-0.9821,-0.9772,-0.9821,-1.0306,-1.0355,-1.0019,-1.0404,-1.0739,-1.0739,-1.0158,-0.9916,-1.035,-1.0006,-0.9616,-0.9517,-0.9414,-0.9118,-0.8726,-0.8581,-0.8581,-0.873,-0.8733,-0.9126,-0.9468,-0.9719,-0.992,-0.9871,-0.9871,-0.9821,-0.9772,-0.9624,-0.9579,-0.9579,-0.9381,-0.9137,-0.9034,-0.8832,-0.8581,-0.8428,-0.8382,-0.8283,-0.8088,-0.7988,-0.7988,-0.8184,-0.8428,-0.8676,-0.897,-0.9266,-0.9509,-1.0149,-1.0636,-1.1224,-0.7141,-0.7185,-0.7138,-0.7188,-0.7285,-0.7285,-0.7335,-0.7487,-0.7288,-0.7138,-0.6936,-0.6986,-0.7039,-0.7188,-0.7238,-0.7388,-0.7584,-0.7534,-0.7534,-0.7633,-0.7733,-0.7487,-0.7686,-0.8081,-0.8432,-0.8634,-0.8882,-0.9179,-0.9377,-0.9179,-0.9278,-0.9377,-0.9278,-0.9525,-0.9575,-0.9624,-0.9624,-0.9624,-0.9624,-0.9624,-0.9624,-0.9624,-0.9624,-0.9624,-0.9624,-0.9624,-0.9624,-0.9624,-0.9624,-0.9624,-0.9624,-0.9624,-0.9624,-0.9624,-0.9624,-0.9624,-0.9624,-0.9624,-0.9624,-0.9624,-0.9624,-0.9624,-0.9624,-0.9624,-0.9624,-0.9723,-0.9817,-0.9628,-0.9821,-0.9821,-0.9624,-0.948,-0.948,-0.9327,-0.9031,-0.8779,-0.873,-0.8584,-0.8386,-0.8287,-0.8187,-0.8137,-0.8382,-0.868,-0.9027,-0.9324,-0.9525,-0.9575,-0.9529,-0.9529,-0.9575,-0.9579,-0.9579,-0.948,-0.943,-0.9282,-0.9137,-0.9034,-0.8882,-0.863,-0.8428,-0.8333,-0.8184,-0.8038,-0.7988,-0.7988,-0.7988,-0.8038,-0.8283,-0.8482,-0.8283,-0.8528,-0.9217,-0.9805,-1.0243,-0.5636,-0.5634,-0.5636,-0.5584,-0.5784,-0.6786,-0.7185,-0.7086,-0.6639,-0.6089,-0.5687,-0.5636,-0.5939,-0.6239,-0.6439,-0.6639,-0.7086,-0.7185,-0.7185,-0.7135,-0.7086,-0.7235,-0.7285,-0.7338,-0.7587,-0.7686,-0.7935,-0.8134,-0.7935,-0.8184,-0.8084,-0.8081,-0.863,-0.908,-0.9476,-0.9624,-0.9624,-0.9624,-0.9624,-0.9624,-0.9624,-0.9624,-0.9624,-0.9624,-0.9624,-0.9624,-0.9624,-0.9624,-0.9624,-0.9624,-0.9624,-0.9624,-0.9624,-0.9624,-0.9624,-0.9624,-0.9624,-0.9624,-0.9624,-0.9624,-0.9624,-0.9624,-0.9624,-0.9624,-0.9624,-0.9624,-0.9624,-0.9579,-0.9579,-0.9579,-0.9579,-0.9381,-0.9282,-0.9183,-0.8931,-0.863,-0.8482,-0.8287,-0.8088,-0.8088,-0.8038,-0.8137,-0.8333,-0.8432,-0.873,-0.8977,-0.9179,-0.9426,-0.948,-0.9525,-0.9575,-0.9529,-0.9484,-0.9385,-0.9286,-0.9084,-0.8931,-0.8882,-0.8779,-0.868,-0.8482,-0.8233,-0.8137,-0.8038,-0.7988,-0.7988,-0.7988,-0.7988,-0.7988,-0.8038,-0.7988,-0.7988,-0.8482,-0.8874,-0.9019,-0.4782,-0.4782,-0.4782,-0.4782,-0.4985,-0.5937,-0.6387,-0.6287,-0.5789,-0.5288,-0.4885,-0.4834,-0.5085,-0.5489,-0.5639,-0.5737,-0.6387,-0.6334,-0.6334,-0.6387,-0.6337,-0.6237,-0.6334,-0.6689,-0.6739,-0.6842,-0.7089,-0.7285,-0.7388,-0.7235,-0.7285,-0.7484,-0.7686,-0.8134,-0.868,-0.908,-0.9624,-0.9624,-0.9624,-0.9624,-0.9624,-0.9624,-0.9624,-0.9624,-0.9624,-0.9624,-0.9624,-0.9624,-0.9624,-0.9624,-0.9624,-0.9624,-0.9624,-0.9624,-0.9624,-0.9624,-0.9624,-0.9624,-0.9624,-0.9624,-0.9624,-0.9624,-0.9628,-0.9624,-0.9624,-0.9624,-0.9624,-0.9579,-0.9529,-0.948,-0.943,-0.9183,-0.8931,-0.8832,-0.8634,-0.8333,-0.8237,-0.8088,-0.8038,-0.7988,-0.7988,-0.8137,-0.8237,-0.8283,-0.8382,-0.8581,-0.8832,-0.913,-0.9377,-0.9377,-0.9426,-0.9381,-0.9282,-0.913,-0.8981,-0.8829,-0.873,-0.868,-0.8581,-0.8531,-0.8382,-0.8137,-0.8088,-0.8041,-0.8038,-0.7988,-0.7988,-0.7988,-0.7988,-0.7988,-0.7988,-0.7988,-0.7988,-0.8137,-0.8382,-0.4782,-0.4782,-0.4782,-0.4782,-0.4834,-0.4935,-0.4935,-0.4885,-0.4834,-0.4834,-0.4782,-0.4782,-0.4885,-0.4834,-0.4834,-0.4935,-0.5035,-0.5035,-0.5085,-0.5035,-0.5236,-0.5083,-0.5286,-0.5689,-0.5889,-0.6189,-0.6439,-0.6587,-0.6986,-0.6736,-0.6736,-0.6936,-0.6989,-0.7238,-0.7736,-0.8432,-0.9027,-0.9076,-0.908,-0.913,-0.9229,-0.9377,-0.9476,-0.9525,-0.9624,-0.9624,-0.9624,-0.9624,-0.9624,-0.9624,-0.9624,-0.9624,-0.9624,-0.9624,-0.9624,-0.9624,-0.9624,-0.9624,-0.9624,-0.9624,-0.9525,-0.9529,-0.9529,-0.9579,-0.9579,-0.9529,-0.9525,-0.943,-0.9331,-0.9236,-0.9137,-0.8832,-0.8531,-0.8382,-0.8233,-0.8088,-0.8038,-0.7988,-0.7988,-0.7988,-0.7988,-0.8038,-0.8088,-0.8088,-0.8184,-0.8283,-0.8485,-0.8684,-0.8931,-0.9027,-0.9076,-0.913,-0.9031,-0.8825,-0.8676,-0.8531,-0.8432,-0.8386,-0.8283,-0.8187,-0.8038,-0.8041,-0.8038,-0.8038,-0.7988,-0.7988,-0.7988,-0.7988,-0.7988,-0.7988,-0.7988,-0.7988,-0.7988,-0.7988,-0.8137,-0.4782,-0.4782,-0.4782,-0.4782,-0.4782,-0.4782,-0.4782,-0.4782,-0.4782,-0.4782,-0.4782,-0.4782,-0.4782,-0.4782,-0.4784,-0.4782,-0.4782,-0.4782,-0.4834,-0.4782,-0.4782,-0.4782,-0.4885,-0.5085,-0.5186,-0.5236,-0.5436,-0.5687,-0.5534,-0.5534,-0.5586,-0.5486,-0.6139,-0.6289,-0.6689,-0.7385,-0.7683,-0.7982,-0.7982,-0.8382,-0.863,-0.873,-0.9027,-0.9327,-0.948,-0.9529,-0.9579,-0.9628,-0.9624,-0.9624,-0.9624,-0.9624,-0.9624,-0.9624,-0.9624,-0.9624,-0.9624,-0.9624,-0.9624,-0.9575,-0.9426,-0.9179,-0.9183,-0.9331,-0.9331,-0.9229,-0.9175,-0.9027,-0.8882,-0.8783,-0.8786,-0.8584,-0.8382,-0.8233,-0.8134,-0.8038,-0.7988,-0.7988,-0.7988,-0.7988,-0.7988,-0.7988,-0.7988,-0.7988,-0.8088,-0.8088,-0.8187,-0.8386,-0.8535,-0.863,-0.8779,-0.8832,-0.8733,-0.8531,-0.8432,-0.8287,-0.8187,-0.8091,-0.8038,-0.7988,-0.7988,-0.7988,-0.7988,-0.7988,-0.7988,-0.7988,-0.7988,-0.7988,-0.7988,-0.7988,-0.7988,-0.7988,-0.7988,-0.7988,-0.7988,-0.4782,-0.4782,-0.4782,-0.4782,-0.4782,-0.4782,-0.4782,-0.4782,-0.4782,-0.4782,-0.4782,-0.4782,-0.4782,-0.4782,-0.4782,-0.4782,-0.4782,-0.4782,-0.4782,-0.4782,-0.4734,-0.4782,-0.4782,-0.4784,-0.4834,-0.4782,-0.4782,-0.4983,-0.4782,-0.4782,-0.4834,-0.4935,-0.5386,-0.5486,-0.5687,-0.5987,-0.6187,-0.6487,-0.6886,-0.7385,-0.7733,-0.7935,-0.8432,-0.8931,-0.913,-0.9232,-0.9529,-0.9575,-0.9579,-0.9628,-0.9624,-0.9624,-0.9624,-0.9624,-0.9624,-0.9579,-0.948,-0.943,-0.9327,-0.8775,-0.8627,-0.8375,-0.8077,-0.7627,-0.7826,-0.7875,-0.8071,-0.8124,-0.823,-0.8283,-0.8382,-0.8435,-0.8333,-0.8233,-0.8137,-0.7988,-0.7988,-0.7988,-0.7988,-0.7988,-0.7988,-0.7988,-0.7988,-0.7988,-0.7988,-0.8038,-0.8038,-0.8137,-0.8237,-0.8287,-0.8482,-0.8634,-0.8435,-0.8237,-0.8137,-0.8137,-0.8088,-0.8041,-0.8038,-0.7988,-0.7988,-0.7988,-0.7988,-0.7988,-0.7988,-0.7988,-0.7988,-0.7988,-0.7988,-0.7988,-0.7988,-0.7988,-0.7988,-0.7988,-0.7988,-0.4634,-0.4634,-0.4686,-0.4583,-0.4684,-0.4583,-0.4583,-0.4684,-0.4583,-0.4686,-0.4734,-0.4782,-0.4782,-0.4784,-0.4684,-0.4634,-0.4533,-0.4483,-0.4383,-0.4634,-0.4433,-0.4433,-0.4583,-0.4736,-0.4684,-0.4734,-0.4782,-0.4782,-0.4782,-0.4782,-0.4782,-0.4782,-0.4885,-0.4985,-0.5035,-0.5085,-0.5286,-0.5436,-0.6087,-0.6786,-0.6989,-0.7188,-0.7487,-0.8134,-0.8432,-0.8584,-0.9229,-0.948,-0.9529,-0.9579,-0.9624,-0.9624,-0.9624,-0.9529,-0.9529,-0.9476,-0.9278,-0.9183,-0.8878,-0.8223,-0.7574,-0.7024,-0.6221,-0.5774,-0.5974,-0.6672,-0.7021,-0.6921,-0.6874,-0.6977,-0.7077,-0.7129,-0.708,-0.7335,-0.7487,-0.7686,-0.7988,-0.7988,-0.7988,-0.7988,-0.7988,-0.7988,-0.7988,-0.7988,-0.7988,-0.7988,-0.7988,-0.8038,-0.8038,-0.8088,-0.8187,-0.8386,-0.8237,-0.8088,-0.8088,-0.8038,-0.8038,-0.7988,-0.7988,-0.7988,-0.7988,-0.7988,-0.7988,-0.7988,-0.7988,-0.7988,-0.7988,-0.7988,-0.7988,-0.7988,-0.7988,-0.7988,-0.7988,-0.7988,-0.7988,-0.3581,-0.3581,-0.3581,-0.3581,-0.3581,-0.3581,-0.3583,-0.3583,-0.3581,-0.4033,-0.4684,-0.4784,-0.4734,-0.4634,-0.4282,-0.4183,-0.4133,-0.3932,-0.363,-0.3682,-0.3732,-0.3982,-0.4133,-0.4183,-0.4383,-0.4684,-0.4782,-0.4684,-0.4634,-0.4684,-0.4784,-0.4782,-0.4734,-0.4634,-0.4734,-0.4734,-0.4734,-0.4684,-0.5135,-0.5787,-0.6039,-0.6339,-0.6639,-0.7238,-0.7537,-0.7885,-0.8382,-0.873,-0.908,-0.943,-0.9579,-0.9624,-0.9624,-0.943,-0.9282,-0.9232,-0.9031,-0.8931,-0.8528,-0.7723,-0.6971,-0.6476,-0.5777,-0.4776,-0.4574,-0.5472,-0.5772,-0.5572,-0.5525,-0.5625,-0.5824,-0.5877,-0.5979,-0.6384,-0.6889,-0.7388,-0.7885,-0.7988,-0.7988,-0.7988,-0.7988,-0.7988,-0.7988,-0.7988,-0.7988,-0.7988,-0.7988,-0.7988,-0.7988,-0.8038,-0.8038,-0.8137,-0.8137,-0.8038,-0.7988,-0.7988,-0.7988,-0.7988,-0.7988,-0.7988,-0.7988,-0.7988,-0.7988,-0.7988,-0.7988,-0.7988,-0.7988,-0.7988,-0.7988,-0.7988,-0.7988,-0.7988,-0.7988,-0.7988,-0.7988,-0.318,-0.318,-0.318,-0.318,-0.318,-0.318,-0.318,-0.318,-0.318,-0.3531,-0.4033,-0.4083,-0.4083,-0.4083,-0.3732,-0.3632,-0.3581,-0.3381,-0.3331,-0.323,-0.313,-0.3381,-0.3581,-0.363,-0.3731,-0.4033,-0.4083,-0.4033,-0.4183,-0.4083,-0.4083,-0.4332,-0.4334,-0.4234,-0.4383,-0.4433,-0.4332,-0.4083,-0.4332,-0.4583,-0.4987,-0.5238,-0.5842,-0.6389,-0.6739,-0.7036,-0.7531,-0.7829,-0.8028,-0.8226,-0.8124,-0.8874,-0.8977,-0.9076,-0.9031,-0.8931,-0.8829,-0.8627,-0.8173,-0.7223,-0.6171,-0.5625,-0.4377,-0.2973,-0.2773,-0.3524,-0.3974,-0.3875,-0.4175,-0.4325,-0.5024,-0.5227,-0.5277,-0.5579,-0.6334,-0.7036,-0.7587,-0.7988,-0.7988,-0.7988,-0.7988,-0.7988,-0.7988,-0.7988,-0.7988,-0.7988,-0.7988,-0.7988,-0.7988,-0.7988,-0.7988,-0.7988,-0.7988,-0.7988,-0.7988,-0.7988,-0.7988,-0.7988,-0.7988,-0.7988,-0.7988,-0.7988,-0.7988,-0.7988,-0.7988,-0.7988,-0.7988,-0.7988,-0.7988,-0.7988,-0.7988,-0.7988,-0.7988,-0.7988,-0.7988,-0.2978,-0.2978,-0.2978,-0.2978,-0.2978,-0.2978,-0.2978,-0.2978,-0.2978,-0.2978,-0.2927,-0.2876,-0.2928,-0.318,-0.3079,-0.313,-0.3029,-0.2777,-0.2877,-0.2877,-0.2879,-0.2927,-0.3027,-0.313,-0.3229,-0.333,-0.3381,-0.3381,-0.3432,-0.3432,-0.3581,-0.3731,-0.3632,-0.3432,-0.3783,-0.3883,-0.3783,-0.3632,-0.3632,-0.363,-0.3831,-0.4083,-0.4836,-0.5388,-0.5639,-0.5782,-0.6429,-0.6725,-0.6728,-0.6775,-0.6722,-0.7524,-0.8124,-0.8375,-0.8627,-0.8528,-0.8131,-0.8031,-0.7528,-0.5924,-0.5074,-0.4173,-0.2471,-0.1717,-0.1718,-0.1919,-0.2371,-0.2622,-0.2973,-0.3274,-0.3974,-0.4325,-0.4325,-0.4774,-0.5629,-0.6534,-0.7135,-0.7736,-0.7789,-0.7839,-0.7988,-0.7988,-0.7988,-0.7988,-0.7988,-0.7988,-0.7988,-0.7988,-0.7988,-0.7988,-0.7988,-0.7988,-0.7988,-0.7988,-0.7988,-0.7988,-0.7988,-0.7988,-0.7988,-0.7988,-0.7988,-0.7988,-0.7988,-0.7988,-0.7988,-0.7988,-0.7988,-0.7988,-0.7988,-0.7988,-0.7988,-0.7988,-0.7988,-0.7988,-0.7988,-0.192,-0.192,-0.192,-0.192,-0.1919,-0.1919,-0.1919,-0.192,-0.192,-0.1919,-0.1768,-0.1363,-0.1615,-0.313,-0.2725,-0.2422,-0.2118,-0.1968,-0.1919,-0.192,-0.1817,-0.2119,-0.2321,-0.227,-0.2775,-0.2877,-0.2928,-0.313,-0.2877,-0.3029,-0.318,-0.333,-0.3279,-0.318,-0.3281,-0.3331,-0.3279,-0.313,-0.313,-0.3229,-0.3179,-0.338,-0.343,-0.3682,-0.3731,-0.418,-0.4678,-0.4979,-0.5327,-0.5577,-0.5824,-0.6473,-0.7123,-0.7524,-0.773,-0.7928,-0.7534,-0.703,-0.6229,-0.4826,-0.4024,-0.3623,-0.232,-0.1667,-0.1617,-0.1617,-0.1919,-0.1919,-0.212,-0.212,-0.2521,-0.2521,-0.2622,-0.3624,-0.4576,-0.5529,-0.6331,-0.6786,-0.7089,-0.749,-0.7889,-0.7939,-0.7988,-0.7988,-0.7988,-0.7988,-0.7988,-0.7988,-0.7988,-0.7988,-0.7988,-0.7988,-0.7988,-0.7988,-0.7988,-0.7988,-0.7988,-0.7988,-0.7988,-0.7988,-0.7988,-0.7988,-0.7988,-0.7988,-0.7988,-0.7988,-0.7988,-0.7988,-0.7988,-0.7988,-0.7988,-0.7988,-0.7988,-0.7988,-0.7988]},{"header":{"parameterUnit":"m.s-1","parameterCategory":1,"la1":31.0,"la2":29.5877,"lo1":-88.7671,"lo2":-86.6584,"dy":0.0162,"dx":0.0185,"nx":115,"ny":88,"refTime":"2024-08-20T06:00:00:Z","depth":0,"parameterNumber":3,"parameterNumberName":"V-component_of_WINDS"},"data":[0.0,0.0,0.0,0.0,0.0,0.0,0.0,0.0,0.0,0.0,0.0,0.0,0.0,0.0,0.0,0.0,0.0,0.0,0.0,0.0,0.0,0.0,0.0,0.0,0.0,0.0,0.0,0.0,0.0,0.0,0.0,0.0,0.0,0.0,0.0,0.0,0.0,0.0,0.0,0.0,0.0,0.0,0.0,0.0,0.0,0.0,0.0,0.0,0.0,0.0,0.0,0.0,0.0,0.0,0.0,0.0,0.0,0.0,0.0,0.0,0.0,0.0,0.0,0.0,0.0,0.0,0.0,0.0,0.0,0.0,0.0,0.0,0.0,0.0,0.0,0.0,0.0,0.0,0.0,0.0,0.0,0.0,0.0,0.0,0.0,0.0,0.0,0.0,0.0,0.0,0.0,0.0,0.0,0.0,0.0,0.0,0.0,0.0,0.0,0.0,0.0,0.0,0.0,0.0,0.0,0.0,0.0,0.0,0.0,0.0,0.0,0.0,0.0,0.0,0.0,0.0,0.0,0.0,0.0,0.0,0.0,0.0,0.0,0.0,0.0,0.0,0.0,0.0,0.0,0.0,0.0,0.0,0.0,0.0,0.0,0.0,0.0,0.0,0.0,0.0,0.0,0.0,0.0,0.0,0.0,0.0,0.0,0.0,0.0,0.0,0.0,0.0,0.0,0.0,0.0,0.0,0.0,0.0,0.0,0.0,0.0,0.0,0.0,0.0,0.0,0.0,0.0,0.0,0.0,0.0,0.0,0.0,0.0,0.0,0.0,0.0,0.0,0.0,0.0,0.0,0.0,0.0,0.0,0.0,0.0,0.0,0.0,0.0,0.0,0.0,0.0,0.0,0.0,0.0,0.0,0.0,0.0,0.0,0.0,0.0,0.0,0.0,0.0,0.0,0.0,0.0,0.0,0.0,0.0,0.0,0.0,0.0,0.0,0.0,0.0,0.0,0.0,0.0,0.0,0.0,0.0,0.0,0.0,0.0,0.0,0.0,0.0,0.0,0.0,0.0,0.0,0.0,0.0,0.0,0.0,0.0,0.0,0.0,0.0,0.0,0.0,0.0,0.0,0.0,0.0,0.0,0.0,0.0,0.0,0.0,0.0,0.0,0.0,0.0,0.0,0.0,0.0,0.0,0.0,0.0,0.0,0.0,0.0,0.0,0.0,0.0,0.0,0.0,0.0,0.0,0.0,0.0,0.0,0.0,0.0,0.0,0.0,0.0,0.0,0.0,0.0,0.0,0.0,0.0,0.0,0.0,0.0,0.0,0.0,0.0,0.0,0.0,0.0,0.0,0.0,0.0,0.0,0.0,0.0,0.0,0.0,0.0,0.0,0.0,0.0,0.0,0.0,0.0,0.0,0.0,0.0,0.0,0.0,0.0,0.0,0.0,0.0,0.0,0.0,0.0,0.0,0.0,0.0,0.0,0.0,0.0,0.0,0.0,0.0,0.0,0.0,0.0,0.0,0.0,0.0,0.0,0.0,0.0,0.0,0.0,0.0,0.0,0.0,0.0,0.0,0.0,0.0,0.0,0.0,0.0,0.0,0.0,0.0,0.0,0.0,0.0,0.0,0.0,0.0,0.0,0.0,0.0,0.0,0.0,0.0,0.0,0.0,0.0,0.0,0.0,0.0,0.0,0.0,0.0,0.0,0.0,0.0,0.0,0.0,0.0,0.0,0.0,0.0,0.0,0.0,0.0,0.0,0.0,0.0,0.0,0.0,0.0,0.0,0.0,0.0,0.0,0.0,0.0,0.0,0.0,0.0,0.0,0.0,0.0,0.0,0.0,0.0,0.0,0.0,0.0,0.0,0.0,0.0,0.0,0.0,0.0,0.0,0.0,0.0,0.0,0.0,0.0,0.0,0.0,0.0,0.0,0.0,0.0,0.0,0.0,0.0,0.0,0.0,0.0,0.0,0.0,0.0,0.0,0.0,0.0,0.0,0.0,0.0,0.0,0.0,0.0,0.0,0.0,0.0,0.0,0.0,0.0,0.0,0.0,0.0,0.0,0.0,0.0,0.0,0.0,0.0,0.0,0.0,0.0,0.0,0.0,0.0,0.0,0.0,0.0,0.0,0.0,0.0,0.0,0.0,0.0,0.0,0.0,0.0,0.0,0.0,0.0,0.0,0.0,0.0,0.0,0.0,0.0,0.0,0.0,0.0,0.0,0.0,0.0,0.0,0.0,0.0,0.0,0.0,0.0,0.0,0.0,0.0,0.0,0.0,0.0,0.0,0.0,0.0,0.0,0.0,0.0,0.0,0.0,0.0,0.0,0.0,0.0,0.0,0.0,0.0,0.0,0.0,0.0,0.0,0.0,0.0,0.0,0.0,0.0,0.0,0.0,0.0,0.0,0.0,0.0,0.0,0.0,0.0,0.0,0.0,0.0,0.0,0.0,0.0,0.0,0.0,0.0,0.0,0.0,0.0,0.0,0.0,0.0,0.0,0.0,0.0,0.0,0.0,0.0,0.0,0.0,0.0,0.0,0.0,0.0,0.0,0.0,0.0,0.0,0.0,0.0,0.0,0.0,0.0,0.0,0.0,0.0,0.0,0.0,0.0,0.0,0.0,0.0,0.0,0.0,0.0,0.0,0.0,0.0,0.0,0.0,0.0,0.0,0.0,0.0,0.0,0.0,0.0,0.0,0.0,0.0,0.0,0.0,0.0,0.0,0.0,0.0,0.0,0.0,0.0,0.0,0.0,0.0,0.0,0.0,0.0,0.0,0.0,0.0,0.0,0.0,0.0,0.0,0.0,0.0,0.0,0.0,0.0,0.0,0.0,0.0,0.0,0.0,0.0,0.0,0.0,0.0,0.0,0.0,0.0,0.0,0.0,0.0,0.0,0.0,0.0,0.0,0.0,0.0,0.0,0.0,0.0,0.0,0.0,0.0,0.0,0.0,0.0,0.0,0.0,0.0,0.0,0.0,0.0,0.0,0.0,0.0,0.0,0.0,0.0,0.0,0.0,0.0,0.0,0.0,0.0,0.0,0.0,0.0,0.0,0.0,0.0,0.0,0.0,0.0,0.0,0.0,0.0,0.0,0.0,0.0,0.0,0.0,0.0,0.0,0.0,0.0,0.0,0.0,0.0,0.0,0.0,0.0,0.0,0.0,0.0,0.0,0.0,0.0,0.0,0.0,0.0,0.0,0.0,0.0,0.0,0.0,0.0,0.0,0.0,0.0,0.0,0.0,0.0,0.0,0.0,0.0,0.0,0.0,0.0,0.0,0.0,0.0,0.0,0.0,0.0,0.0,0.0,0.0,0.0,0.0,0.0,0.0,0.0,0.0,0.0,0.0,0.0,0.0,0.0,0.0,0.0,0.0,0.0,0.0,0.0,0.0,0.0,0.0,0.0,0.0,0.0,0.0,0.0,0.0,0.0,0.0,0.0,0.0,0.0,0.0,0.0,0.0,0.0,0.0,0.0,0.0,0.0,0.0,0.0,0.0,0.0,0.0,0.0,0.0,0.0,0.0,0.0,0.0,0.0,0.0,0.0,0.0,0.0,0.0,0.0,0.0,0.0,0.0,0.0,0.0,0.0,0.0,0.0,0.0,0.0,0.0,0.0,0.0,0.0,0.0,0.0,0.0,0.0,0.0,0.0,0.0,0.0,0.0,0.0,0.0,0.0,0.0,0.0,0.0,0.0,0.0,0.0,0.0,0.0,0.0,0.0,0.0,0.0,0.0,0.0,0.0,0.0,0.0,0.0,0.0,0.0,0.0,0.0,0.0,0.0,0.0,0.0,0.0,0.0,0.0,0.0,0.0,0.0,0.0,0.0,0.0,0.0,0.0,0.0,0.0,0.0,0.0,0.0,0.0,0.0,0.0,0.0,0.0,0.0,0.0,0.0,0.0,0.0,0.0,0.0,0.0,0.0,0.0,0.0,0.0,0.0,0.0,0.0,0.0,0.0,0.0,0.0,0.0,0.0,0.0,0.0,0.0,0.0,0.0,0.0,0.0,0.0,0.0,0.0,0.0,0.0,0.0,0.0,0.0,0.0,0.0,0.0,0.0,0.0,0.0,0.0,0.0,0.0,0.0,0.0,0.0,0.0,0.0,0.0,0.0,0.0,0.0,0.0,0.0,0.0,0.0,0.0,0.0,0.0,0.0,0.0,0.0,0.0,0.0,0.0,0.0,0.0,0.0,0.0,0.0,0.0,0.0,0.0,0.0,0.0,0.0,0.0,0.0,0.0,0.0,0.0,0.0,0.0,0.0,0.0,0.0,0.0,0.0,0.0,0.0,0.0,0.0,0.0,0.0,3.0092,0.0,0.0,0.0,0.0,0.0,0.0,0.0,0.0,0.0,0.0,0.0,0.0,0.0,0.0,0.0,0.0,0.0,0.0,0.0,0.0,0.0,0.0,0.0,0.0,0.0,0.0,0.0,0.0,0.0,0.0,0.0,0.0,0.0,0.0,0.0,0.0,0.0,0.0,0.0,0.0,0.0,0.0,0.0,0.0,0.0,0.0,0.0,0.0,0.0,0.0,0.0,0.0,0.0,0.0,0.0,0.0,0.0,0.0,0.0,0.0,0.0,0.0,0.0,0.0,0.0,0.0,0.0,0.0,0.0,0.0,0.0,0.0,0.0,0.0,0.0,0.0,0.0,0.0,0.0,0.0,0.0,0.0,0.0,0.0,0.0,0.0,0.0,0.0,0.0,0.0,0.0,0.0,0.0,0.0,0.0,0.0,0.0,0.0,0.0,0.0,0.0,0.0,0.0,0.0,0.0,0.0,0.0,0.0,0.0,0.0,3.1091,3.2179,3.0456,2.9451,2.9288,0.0,0.0,0.0,0.0,0.0,0.0,0.0,0.0,0.0,0.0,0.0,0.0,0.0,0.0,0.0,0.0,0.0,0.0,0.0,0.0,0.0,0.0,0.0,0.0,0.0,0.0,0.0,0.0,0.0,0.0,0.0,0.0,0.0,0.0,0.0,0.0,0.0,0.0,0.0,0.0,0.0,0.0,0.0,0.0,0.0,0.0,0.0,0.0,0.0,0.0,0.0,0.0,0.0,0.0,0.0,0.0,0.0,0.0,0.0,0.0,0.0,0.0,0.0,0.0,0.0,0.0,0.0,0.0,0.0,0.0,0.0,0.0,0.0,0.0,0.0,0.0,0.0,0.0,0.0,0.0,0.0,0.0,0.0,0.0,0.0,0.0,0.0,0.0,0.0,0.0,0.0,0.0,0.0,0.0,0.0,0.0,0.0,0.0,0.0,0.0,0.0,0.0,0.0,0.0,0.0,0.0,0.0,0.0,0.0,0.0,0.0,0.0,3.0644,2.9364,2.8135,0.0,0.0,0.0,0.0,0.0,0.0,0.0,0.0,0.0,0.0,0.0,0.0,0.0,0.0,0.0,0.0,0.0,0.0,0.0,0.0,0.0,0.0,0.0,0.0,0.0,0.0,0.0,0.0,0.0,0.0,0.0,0.0,0.0,0.0,0.0,0.0,0.0,0.0,0.0,0.0,0.0,0.0,0.0,0.0,0.0,0.0,0.0,0.0,0.0,0.0,0.0,0.0,0.0,0.0,0.0,0.0,0.0,0.0,0.0,0.0,0.0,0.0,0.0,0.0,0.0,0.0,0.0,0.0,0.0,0.0,0.0,0.0,0.0,0.0,0.0,0.0,0.0,0.0,0.0,0.0,0.0,0.0,0.0,0.0,0.0,0.0,0.0,0.0,0.0,0.0,0.0,0.0,0.0,0.0,0.0,0.0,0.0,0.0,0.0,0.0,0.0,0.0,0.0,0.0,0.0,0.0,0.0,0.0,0.0,0.0,2.9719,3.2326,3.1624,0.0,2.7462,0.0,0.0,0.0,0.0,0.0,0.0,0.0,0.0,0.0,0.0,0.0,0.0,0.0,0.0,0.0,0.0,0.0,0.0,0.0,0.0,0.0,0.0,0.0,0.0,0.0,0.0,0.0,0.0,0.0,0.0,0.0,0.0,0.0,0.0,0.0,0.0,0.0,0.0,0.0,0.0,0.0,0.0,0.0,0.0,0.0,0.0,0.0,0.0,0.0,0.0,0.0,0.0,0.0,0.0,0.0,0.0,0.0,0.0,0.0,0.0,0.0,0.0,0.0,0.0,0.0,0.0,0.0,0.0,0.0,0.0,0.0,0.0,0.0,0.0,0.0,0.0,0.0,0.0,0.0,0.0,0.0,0.0,0.0,0.0,0.0,0.0,0.0,0.0,0.0,0.0,0.0,0.0,0.0,0.0,0.0,0.0,0.0,0.0,0.0,0.0,0.0,0.0,0.0,0.0,0.0,0.0,0.0,0.0,0.0,0.0,3.0497,3.2442,3.0929,2.9005,0.0,0.0,0.0,0.0,0.0,0.0,0.0,0.0,0.0,0.0,0.0,0.0,0.0,0.0,0.0,0.0,0.0,0.0,0.0,0.0,0.0,0.0,0.0,0.0,0.0,0.0,0.0,0.0,0.0,0.0,0.0,0.0,0.0,0.0,0.0,0.0,0.0,0.0,0.0,0.0,0.0,0.0,0.0,0.0,0.0,0.0,0.0,0.0,0.0,0.0,0.0,0.0,0.0,0.0,0.0,0.0,0.0,0.0,0.0,0.0,0.0,0.0,0.0,0.0,0.0,0.0,0.0,0.0,0.0,0.0,0.0,0.0,0.0,0.0,0.0,0.0,0.0,0.0,0.0,0.0,0.0,0.0,0.0,0.0,0.0,0.0,0.0,0.0,0.0,0.0,0.0,0.0,0.0,0.0,0.0,0.0,0.0,0.0,0.0,0.0,0.0,0.0,0.0,0.0,0.0,0.0,0.0,0.0,0.0,0.0,2.9583,3.0561,3.1916,3.0709,2.8618,2.581,0.0,0.0,0.0,0.0,0.0,0.0,0.0,0.0,0.0,0.0,0.0,0.0,0.0,0.0,0.0,0.0,0.0,0.0,0.0,0.0,0.0,0.0,0.0,0.0,0.0,0.0,0.0,0.0,0.0,0.0,0.0,0.0,0.0,0.0,0.0,0.0,0.0,0.0,0.0,0.0,0.0,0.0,0.0,0.0,0.0,0.0,0.0,0.0,0.0,0.0,0.0,0.0,0.0,0.0,0.0,0.0,0.0,0.0,0.0,0.0,0.0,0.0,0.0,0.0,0.0,0.0,0.0,0.0,0.0,0.0,0.0,0.0,0.0,0.0,0.0,0.0,0.0,0.0,0.0,0.0,0.0,0.0,0.0,0.0,0.0,0.0,0.0,0.0,0.0,0.0,0.0,0.0,0.0,0.0,0.0,0.0,0.0,0.0,0.0,0.0,0.0,0.0,0.0,0.0,0.0,0.0,0.0,0.0,3.0607,2.9325,2.9304,3.1048,3.1515,2.9408,0.0,0.0,0.0,0.0,0.0,0.0,0.0,0.0,0.0,0.0,0.0,0.0,0.0,0.0,0.0,0.0,0.0,0.0,0.0,0.0,0.0,0.0,0.0,0.0,0.0,0.0,0.0,0.0,0.0,0.0,0.0,0.0,0.0,0.0,0.0,0.0,0.0,0.0,0.0,0.0,0.0,0.0,0.0,0.0,0.0,0.0,0.0,0.0,0.0,0.0,0.0,0.0,0.0,0.0,0.0,0.0,0.0,0.0,0.0,0.0,0.0,0.0,0.0,0.0,0.0,0.0,0.0,0.0,0.0,0.0,0.0,0.0,0.0,0.0,0.0,0.0,0.0,0.0,0.0,0.0,0.0,0.0,0.0,0.0,0.0,0.0,0.0,0.0,0.0,0.0,0.0,0.0,0.0,0.0,0.0,0.0,0.0,0.0,0.0,0.0,0.0,0.0,0.0,0.0,0.0,0.0,0.0,0.0,0.0,2.8007,2.8581,2.9769,3.1557,2.9839,2.7528,0.0,0.0,0.0,0.0,0.0,0.0,0.0,0.0,0.0,0.0,0.0,0.0,0.0,0.0,0.0,0.0,0.0,0.0,0.0,0.0,0.0,0.0,0.0,0.0,0.0,0.0,0.0,0.0,0.0,0.0,0.0,0.0,0.0,0.0,0.0,0.0,0.0,0.0,0.0,0.0,0.0,0.0,0.0,0.0,0.0,0.0,0.0,0.0,0.0,0.0,0.0,0.0,0.0,0.0,0.0,0.0,0.0,0.0,0.0,0.0,0.0,0.0,0.0,0.0,0.0,0.0,0.0,0.0,0.0,0.0,0.0,0.0,0.0,0.0,0.0,0.0,0.0,0.0,0.0,0.0,0.0,0.0,0.0,0.0,0.0,0.0,0.0,0.0,0.0,0.0,0.0,0.0,0.0,0.0,0.0,0.0,0.0,0.0,0.0,0.0,0.0,0.0,0.0,0.0,0.0,0.0,0.0,0.0,0.0,2.6636,0.0,2.9856,0.0,2.8483,2.6081,0.0,0.0,0.0,0.0,0.0,0.0,0.0,0.0,0.0,0.0,0.0,0.0,0.0,0.0,0.0,0.0,0.0,0.0,0.0,0.0,0.0,0.0,0.0,0.0,0.0,0.0,0.0,0.0,0.0,0.0,0.0,0.0,0.0,0.0,0.0,0.0,0.0,0.0,0.0,0.0,0.0,0.0,0.0,0.0,0.0,0.0,0.0,0.0,0.0,0.0,0.0,0.0,0.0,0.0,0.0,0.0,0.0,0.0,0.0,0.0,0.0,0.0,0.0,0.0,0.0,0.0,0.0,0.0,0.0,0.0,0.0,0.0,0.0,0.0,0.0,0.0,0.0,0.0,0.0,0.0,0.0,0.0,0.0,0.0,0.0,0.0,0.0,0.0,0.0,0.0,0.0,0.0,0.0,0.0,0.0,0.0,0.0,0.0,0.0,0.0,0.0,0.0,0.0,0.0,0.0,0.0,0.0,0.0,2.3718,2.6986,2.9013,2.9286,2.771,2.7591,2.5257,0.0,0.0,0.0,0.0,0.0,0.0,0.0,0.0,0.0,0.0,0.0,0.0,0.0,0.0,0.0,0.0,0.0,0.0,0.0,0.0,0.0,0.0,0.0,0.0,0.0,0.0,0.0,0.0,0.0,0.0,0.0,0.0,0.0,0.0,0.0,0.0,0.0,0.0,0.0,0.0,0.0,0.0,0.0,0.0,0.0,0.0,0.0,0.0,0.0,0.0,0.0,0.0,0.0,0.0,0.0,0.0,0.0,0.0,0.0,0.0,0.0,0.0,0.0,0.0,0.0,0.0,0.0,0.0,0.0,0.0,0.0,0.0,0.0,0.0,0.0,0.0,0.0,0.0,0.0,0.0,0.0,0.0,0.0,0.0,0.0,0.0,0.0,0.0,0.0,0.0,0.0,0.0,0.0,0.0,0.0,0.0,0.0,0.0,0.0,0.0,0.0,0.0,0.0,0.0,0.0,0.0,0.0,0.0,0.0,2.6411,2.7261,2.7795,2.7907,2.5744,2.3553,0.0,0.0,0.0,0.0,0.0,0.0,0.0,0.0,0.0,0.0,0.0,0.0,0.0,0.0,0.0,0.0,0.0,0.0,0.0,0.0,0.0,0.0,0.0,0.0,0.0,0.0,0.0,0.0,0.0,0.0,0.0,0.0,0.0,0.0,0.0,0.0,0.0,0.0,0.0,0.0,0.0,0.0,0.0,0.0,0.0,0.0,0.0,0.0,0.0,0.0,0.0,0.0,0.0,0.0,0.0,0.0,0.0,0.0,0.0,0.0,0.0,0.0,0.0,0.0,0.0,0.0,0.0,0.0,0.0,0.0,0.0,0.0,0.0,0.0,0.0,0.0,0.0,0.0,0.0,0.0,0.0,0.0,0.0,0.0,0.0,0.0,0.0,0.0,0.0,0.0,0.0,0.0,0.0,0.0,0.0,0.0,0.0,0.0,0.0,0.0,0.0,0.0,0.0,0.0,0.0,0.0,0.0,0.0,0.0,2.608,2.647,2.6687,2.681,2.4318,2.2493,2.1456,0.0,0.0,0.0,0.0,0.0,0.0,0.0,0.0,0.0,0.0,0.0,0.0,0.0,0.0,0.0,0.0,0.0,0.0,0.0,0.0,0.0,0.0,0.0,0.0,0.0,0.0,0.0,0.0,0.0,0.0,0.0,0.0,0.0,0.0,0.0,0.0,0.0,0.0,0.0,0.0,0.0,0.0,0.0,0.0,0.0,0.0,0.0,0.0,0.0,0.0,0.0,0.0,0.0,0.0,0.0,0.0,0.0,0.0,0.0,0.0,0.0,0.0,0.0,0.0,0.0,0.0,0.0,0.0,0.0,0.0,0.0,0.0,0.0,0.0,0.0,0.0,0.0,0.0,0.0,0.0,0.0,0.0,0.0,0.0,0.0,0.0,0.0,0.0,0.0,0.0,0.0,0.0,0.0,0.0,0.0,0.0,0.0,0.0,0.0,0.0,0.0,0.0,0.0,0.0,0.0,0.0,0.0,0.0,2.5648,2.6331,2.6008,2.4701,2.3377,2.2042,0.0,0.0,0.0,0.0,0.0,0.0,0.0,0.0,0.0,0.0,0.0,0.0,0.0,0.0,0.0,0.0,0.0,0.0,0.0,0.0,0.0,0.0,0.0,0.0,0.0,0.0,0.0,0.0,0.0,0.0,0.0,0.0,0.0,0.0,0.0,0.0,0.0,0.0,0.0,0.0,0.0,0.0,0.0,0.0,0.0,0.0,0.0,0.0,0.0,0.0,0.0,0.0,0.0,0.0,0.0,0.0,0.0,0.0,0.0,0.0,0.0,0.0,0.0,0.0,0.0,0.0,0.0,0.0,0.0,0.0,0.0,0.0,0.0,0.0,0.0,0.0,0.0,0.0,0.0,0.0,0.0,0.0,0.0,0.0,0.0,0.0,0.0,0.0,0.0,0.0,0.0,0.0,0.0,0.0,0.0,0.0,0.0,0.0,0.0,0.0,0.0,0.0,0.0,0.0,0.0,0.0,0.0,0.0,0.0,2.1655,2.3169,2.4615,2.57,2.3039,2.1322,0.0,0.0,0.0,0.0,0.0,0.0,0.0,0.0,0.0,0.0,0.0,0.0,0.0,0.0,0.0,0.0,0.0,0.0,0.0,0.0,0.0,0.0,0.0,0.0,0.0,0.0,0.0,0.0,0.0,0.0,0.0,0.0,0.0,0.0,0.0,0.0,0.0,0.0,0.0,0.0,0.0,0.0,0.0,0.0,0.0,0.0,0.0,0.0,0.0,0.0,0.0,0.0,0.0,0.0,0.0,0.0,0.0,0.0,0.0,0.0,0.0,0.0,0.0,0.0,0.0,0.0,0.0,0.0,0.0,0.0,0.0,0.0,0.0,0.0,0.0,0.0,0.0,0.0,0.0,0.0,0.0,0.0,0.0,0.0,0.0,0.0,0.0,0.0,0.0,0.0,0.0,0.0,0.0,0.0,0.0,0.0,0.0,0.0,0.0,0.0,0.0,0.0,0.0,0.0,0.0,0.0,0.0,0.0,2.2209,2.1706,2.2396,2.349,2.4963,2.2506,2.1012,0.0,0.0,0.0,0.0,0.0,0.0,0.0,0.0,0.0,0.0,0.0,0.0,0.0,0.0,0.0,0.0,0.0,0.0,0.0,0.0,0.0,0.0,0.0,0.0,0.0,0.0,0.0,0.0,0.0,0.0,0.0,0.0,0.0,0.0,0.0,0.0,0.0,0.0,0.0,0.0,0.0,0.0,0.0,0.0,0.0,0.0,0.0,0.0,0.0,0.0,0.0,0.0,0.0,0.0,0.0,0.0,0.0,0.0,0.0,0.0,0.0,0.0,0.0,0.0,0.0,0.0,0.0,0.0,0.0,0.0,0.0,0.0,0.0,0.0,0.0,0.0,0.0,0.0,0.0,0.0,0.0,0.0,0.0,0.0,0.0,0.0,0.0,0.0,0.0,0.0,0.0,0.0,0.0,0.0,0.0,0.0,0.0,0.0,0.0,0.0,0.0,0.0,0.0,0.0,0.0,0.0,0.0,0.0,2.2956,2.3611,2.2924,2.2716,2.3017,2.185,2.0908,0.0,0.0,0.0,0.0,0.0,0.0,0.0,0.0,0.0,0.0,0.0,0.0,0.0,0.0,0.0,0.0,0.0,0.0,0.0,0.0,0.0,0.0,0.0,0.0,0.0,0.0,0.0,0.0,0.0,0.0,0.0,0.0,0.0,0.0,0.0,0.0,0.0,0.0,0.0,0.0,0.0,0.0,0.0,0.0,0.0,0.0,0.0,0.0,0.0,0.0,0.0,0.0,0.0,0.0,0.0,0.0,0.0,0.0,0.0,0.0,0.0,0.0,0.0,0.0,0.0,0.0,0.0,0.0,0.0,0.0,0.0,0.0,0.0,0.0,0.0,0.0,0.0,0.0,0.0,0.0,0.0,0.0,0.0,0.0,0.0,0.0,0.0,0.0,0.0,0.0,0.0,0.0,0.0,0.0,0.0,0.0,0.0,0.0,0.0,0.0,0.0,0.0,0.0,0.0,0.0,0.0,0.0,0.0,2.1583,2.1434,2.2265,2.2522,2.2097,2.112,2.0376,0.0,0.0,0.0,0.0,0.0,0.0,0.0,0.0,0.0,0.0,0.0,0.0,0.0,0.0,0.0,0.0,0.0,0.0,0.0,0.0,0.0,0.0,0.0,0.0,0.0,0.0,0.0,0.0,0.0,0.0,0.0,0.0,0.0,0.0,0.0,0.0,0.0,0.0,0.0,0.0,0.0,0.0,0.0,0.0,0.0,0.0,0.0,0.0,2.8031,0.0,0.0,0.0,0.0,0.0,0.0,0.0,0.0,0.0,0.0,0.0,0.0,0.0,0.0,0.0,0.0,0.0,0.0,0.0,0.0,0.0,0.0,0.0,0.0,0.0,0.0,0.0,0.0,0.0,0.0,0.0,0.0,0.0,0.0,0.0,0.0,0.0,0.0,0.0,0.0,0.0,0.0,0.0,0.0,0.0,0.0,0.0,0.0,0.0,0.0,0.0,0.0,0.0,0.0,0.0,0.0,0.0,0.0,0.0,2.1713,2.1673,2.2166,2.2314,2.1939,2.1161,2.0495,0.0,0.0,0.0,0.0,0.0,0.0,0.0,0.0,0.0,0.0,0.0,0.0,0.0,0.0,0.0,0.0,0.0,0.0,0.0,0.0,0.0,0.0,0.0,0.0,0.0,0.0,0.0,0.0,0.0,0.0,0.0,0.0,0.0,0.0,0.0,0.0,0.0,0.0,0.0,0.0,0.0,0.0,0.0,0.0,0.0,0.0,0.0,0.0,0.0,0.0,0.0,0.0,0.0,0.0,0.0,0.0,0.0,0.0,0.0,0.0,0.0,0.0,0.0,0.0,0.0,0.0,0.0,0.0,0.0,0.0,0.0,0.0,0.0,0.0,0.0,0.0,0.0,0.0,0.0,0.0,0.0,0.0,0.0,0.0,0.0,0.0,0.0,0.0,0.0,0.0,0.0,0.0,0.0,0.0,0.0,0.0,0.0,0.0,0.0,0.0,0.0,0.0,0.0,0.0,0.0,0.0,0.0,2.1061,2.2101,2.2649,2.2365,2.2145,2.2033,2.147,2.0801,1.9976,0.0,0.0,0.0,0.0,0.0,0.0,0.0,0.0,0.0,0.0,0.0,0.0,0.0,0.0,0.0,0.0,0.0,0.0,0.0,0.0,0.0,0.0,0.0,0.0,0.0,0.0,0.0,0.0,0.0,0.0,0.0,0.0,0.0,0.0,0.0,0.0,0.0,0.0,2.2855,2.4732,0.0,0.0,0.0,0.0,0.0,0.0,0.0,0.0,2.8237,0.0,0.0,0.0,0.0,0.0,0.0,0.0,0.0,0.0,0.0,0.0,0.0,0.0,0.0,0.0,0.0,0.0,0.0,0.0,0.0,0.0,0.0,0.0,0.0,0.0,0.0,0.0,0.0,0.0,0.0,0.0,0.0,0.0,0.0,0.0,0.0,0.0,0.0,0.0,0.0,0.0,0.0,0.0,0.0,0.0,0.0,0.0,0.0,0.0,0.0,0.0,0.0,0.0,0.0,0.0,0.0,2.0632,2.0523,2.1152,2.2649,2.2628,2.2323,2.1791,2.1654,2.069,1.88,0.0,0.0,0.0,0.0,0.0,0.0,0.0,0.0,0.0,0.0,0.0,0.0,0.0,0.0,0.0,0.0,0.0,0.0,0.0,0.0,0.0,0.0,0.0,0.0,0.0,0.0,0.0,0.0,0.0,0.0,0.0,0.0,0.0,0.0,0.0,0.0,0.0,0.0,0.0,2.6486,2.7665,0.0,0.0,0.0,0.0,0.0,0.0,0.0,0.0,2.8397,0.0,0.0,0.0,0.0,0.0,0.0,0.0,0.0,0.0,0.0,0.0,0.0,0.0,0.0,0.0,0.0,0.0,0.0,0.0,0.0,0.0,0.0,0.0,0.0,0.0,0.0,0.0,0.0,0.0,0.0,0.0,0.0,0.0,0.0,0.0,0.0,0.0,0.0,0.0,0.0,0.0,0.0,0.0,0.0,0.0,0.0,0.0,0.0,0.0,0.0,0.0,0.0,0.0,0.0,0.0,1.9957,2.0785,2.1642,2.2461,2.241,2.2073,2.1503,2.0693,1.9659,0.0,0.0,0.0,0.0,0.0,0.0,0.0,0.0,0.0,0.0,0.0,0.0,0.0,0.0,0.0,0.0,0.0,0.0,0.0,0.0,0.0,0.0,0.0,0.0,0.0,0.0,0.0,0.0,0.0,0.0,0.0,0.0,0.0,0.0,0.0,0.0,0.0,0.0,0.0,0.0,2.6837,2.7708,2.8985,0.0,0.0,0.0,0.0,0.0,0.0,2.8746,2.8426,0.0,0.0,0.0,0.0,0.0,0.0,0.0,0.0,0.0,0.0,0.0,0.0,0.0,0.0,0.0,0.0,0.0,0.0,0.0,0.0,0.0,0.0,0.0,0.0,0.0,0.0,0.0,0.0,0.0,0.0,0.0,0.0,0.0,0.0,0.0,0.0,0.0,0.0,0.0,0.0,0.0,0.0,0.0,0.0,0.0,0.0,0.0,0.0,0.0,0.0,0.0,0.0,0.0,0.0,0.0,1.9,2.0786,2.1876,2.2149,2.1908,2.1609,2.1185,1.9791,1.8772,0.0,0.0,0.0,0.0,0.0,0.0,0.0,0.0,0.0,0.0,0.0,0.0,0.0,0.0,0.0,0.0,0.0,0.0,0.0,0.0,0.0,0.0,0.0,0.0,0.0,0.0,0.0,0.0,0.0,0.0,0.0,0.0,0.0,0.0,0.0,0.0,0.0,0.0,0.0,0.0,0.0,2.8202,2.9407,2.9305,0.0,0.0,0.0,0.0,2.9709,2.9173,0.0,0.0,0.0,0.0,0.0,0.0,0.0,0.0,0.0,0.0,0.0,0.0,0.0,0.0,0.0,0.0,0.0,0.0,0.0,0.0,0.0,0.0,0.0,0.0,0.0,0.0,0.0,0.0,0.0,0.0,0.0,0.0,0.0,0.0,0.0,0.0,0.0,0.0,0.0,0.0,0.0,0.0,0.0,0.0,0.0,0.0,0.0,0.0,0.0,0.0,0.0,0.0,0.0,0.0,0.0,0.0,1.838,1.9271,2.038,2.1581,2.1254,2.0992,2.0926,1.9889,1.8816,0.0,0.0,0.0,0.0,0.0,0.0,0.0,0.0,0.0,0.0,0.0,0.0,0.0,0.0,0.0,0.0,0.0,0.0,0.0,0.0,0.0,0.0,0.0,0.0,0.0,0.0,0.0,0.0,0.0,0.0,0.0,0.0,0.0,0.0,0.0,0.0,0.0,0.0,0.0,0.0,0.0,3.0625,2.9726,3.0045,3.0206,0.0,0.0,2.9493,2.9783,2.9695,0.0,0.0,0.0,0.0,0.0,0.0,0.0,0.0,0.0,0.0,0.0,0.0,0.0,0.0,0.0,0.0,0.0,0.0,0.0,0.0,0.0,0.0,0.0,0.0,0.0,0.0,0.0,0.0,0.0,0.0,0.0,0.0,0.0,0.0,0.0,0.0,0.0,0.0,0.0,0.0,0.0,0.0,0.0,0.0,0.0,0.0,0.0,0.0,0.0,0.0,0.0,0.0,0.0,0.0,0.0,1.7618,1.8514,1.9682,2.0533,2.1179,2.1004,2.0632,2.0063,1.9113,1.7962,0.0,0.0,0.0,0.0,0.0,0.0,0.0,0.0,0.0,0.0,0.0,0.0,0.0,0.0,0.0,0.0,0.0,0.0,0.0,0.0,0.0,0.0,0.0,0.0,0.0,0.0,0.0,0.0,0.0,0.0,0.0,0.0,0.0,0.0,0.0,0.0,0.0,0.0,0.0,0.0,0.0,0.0,3.0132,3.0423,0.0,0.0,0.0,2.9769,3.028,0.0,0.0,0.0,0.0,0.0,0.0,0.0,0.0,0.0,0.0,0.0,0.0,0.0,0.0,0.0,0.0,0.0,0.0,0.0,0.0,0.0,0.0,0.0,0.0,0.0,0.0,0.0,0.0,0.0,0.0,0.0,0.0,0.0,0.0,0.0,0.0,0.0,0.0,0.0,0.0,0.0,0.0,0.0,0.0,0.0,0.0,0.0,0.0,0.0,0.0,0.0,0.0,0.0,0.0,0.0,0.0,0.0,1.8645,2.0198,2.0908,2.0853,2.0808,2.0369,1.9441,1.8611,0.0,0.0,0.0,0.0,0.0,0.0,0.0,0.0,0.0,0.0,0.0,0.0,0.0,0.0,0.0,0.0,0.0,0.0,0.0,0.0,0.0,0.0,0.0,0.0,0.0,0.0,0.0,1.9341,0.0,0.0,0.0,0.0,0.0,0.0,0.0,0.0,0.0,0.0,0.0,0.0,0.0,0.0,2.9871,3.0525,3.0874,3.1003,0.0,0.0,3.006,3.0659,2.9959,2.9271,0.0,0.0,0.0,0.0,0.0,0.0,0.0,0.0,0.0,0.0,0.0,0.0,0.0,0.0,0.0,0.0,0.0,0.0,0.0,0.0,0.0,0.0,0.0,0.0,0.0,0.0,0.0,0.0,0.0,0.0,0.0,0.0,0.0,0.0,0.0,0.0,0.0,0.0,0.0,0.0,0.0,0.0,0.0,0.0,0.0,0.0,0.0,0.0,0.0,0.0,0.0,0.0,0.0,0.0,0.0,1.8569,2.0243,2.0992,2.0627,2.0627,2.0221,1.943,1.8905,1.8198,0.0,0.0,0.0,0.0,0.0,0.0,0.0,0.0,0.0,0.0,0.0,0.0,0.0,0.0,0.0,0.0,0.0,0.0,0.0,0.0,0.0,0.0,0.0,0.0,0.0,0.0,0.0,0.0,0.0,0.0,0.0,0.0,0.0,0.0,0.0,0.0,0.0,0.0,0.0,0.0,0.0,3.1845,3.0757,3.1613,3.2164,0.0,0.0,3.0554,3.0598,3.0555,3.0192,2.9248,0.0,0.0,0.0,0.0,0.0,0.0,0.0,0.0,0.0,0.0,0.0,0.0,0.0,0.0,0.0,0.0,0.0,0.0,0.0,0.0,0.0,0.0,0.0,0.0,0.0,0.0,0.0,0.0,0.0,0.0,0.0,0.0,0.0,0.0,0.0,0.0,0.0,0.0,0.0,0.0,0.0,0.0,0.0,0.0,0.0,0.0,0.0,0.0,0.0,0.0,0.0,0.0,0.0,1.7648,1.8189,1.9752,2.0432,2.0302,2.0302,2.0092,1.9732,1.9213,1.8358,0.0,0.0,0.0,0.0,0.0,0.0,0.0,0.0,0.0,0.0,0.0,0.0,0.0,0.0,0.0,0.0,0.0,0.0,0.0,0.0,0.0,0.0,0.0,0.0,0.0,0.0,0.0,0.0,2.334,2.3869,2.4775,0.0,0.0,0.0,0.0,0.0,0.0,0.0,0.0,0.0,0.0,3.1828,3.1772,3.2208,0.0,0.0,3.1322,3.1062,3.076,3.0367,3.0017,2.9747,2.9182,0.0,0.0,0.0,0.0,0.0,0.0,0.0,0.0,0.0,0.0,0.0,0.0,0.0,0.0,0.0,0.0,0.0,0.0,0.0,0.0,0.0,0.0,0.0,0.0,0.0,0.0,0.0,0.0,0.0,0.0,0.0,0.0,0.0,0.0,0.0,0.0,0.0,0.0,0.0,0.0,0.0,0.0,0.0,0.0,0.0,0.0,0.0,0.0,0.0,0.0,0.0,0.0,1.7917,1.8533,1.9973,2.069,2.0582,2.0464,2.0252,1.9907,1.9518,1.8762,0.0,0.0,0.0,0.0,0.0,0.0,0.0,0.0,0.0,0.0,0.0,0.0,0.0,0.0,0.0,0.0,0.0,0.0,0.0,0.0,0.0,0.0,0.0,0.0,0.0,0.0,0.0,0.0,2.4762,2.5144,2.5597,0.0,0.0,0.0,0.0,0.0,0.0,0.0,0.0,0.0,0.0,3.2399,3.2677,3.2608,3.2353,3.1951,3.1544,3.124,3.1173,3.0763,3.0454,3.0412,0.0,0.0,0.0,0.0,0.0,0.0,0.0,0.0,0.0,0.0,0.0,0.0,0.0,0.0,0.0,0.0,0.0,0.0,0.0,0.0,0.0,0.0,0.0,0.0,0.0,0.0,0.0,0.0,0.0,0.0,1.7796,0.0,0.0,0.0,0.0,0.0,0.0,0.0,0.0,0.0,0.0,0.0,0.0,0.0,0.0,0.0,0.0,0.0,0.0,0.0,0.0,0.0,0.0,1.9009,1.9768,2.1266,2.1956,2.1651,2.1348,2.0791,1.9992,1.9904,1.9495,1.8706,0.0,0.0,0.0,0.0,0.0,0.0,0.0,0.0,0.0,0.0,0.0,0.0,0.0,0.0,0.0,0.0,0.0,0.0,0.0,0.0,0.0,0.0,0.0,0.0,0.0,0.0,2.5882,2.5956,2.5972,0.0,0.0,0.0,0.0,0.0,0.0,0.0,0.0,0.0,0.0,3.3487,3.3921,3.3404,3.2861,3.2637,3.2767,3.1714,3.1144,3.1898,3.1973,3.1768,0.0,0.0,0.0,0.0,0.0,0.0,0.0,0.0,0.0,0.0,0.0,0.0,0.0,0.0,0.0,0.0,0.0,0.0,0.0,0.0,0.0,0.0,0.0,0.0,0.0,0.0,0.0,1.9385,1.8531,0.0,0.0,0.0,0.0,0.0,0.0,0.0,0.0,0.0,0.0,0.0,2.3623,2.4176,0.0,0.0,0.0,0.0,0.0,0.0,0.0,0.0,0.0,0.0,0.0,0.0,1.9074,1.9511,2.0815,2.1486,2.138,2.1557,2.1651,2.1585,2.153,2.1047,2.0144,0.0,0.0,0.0,0.0,0.0,0.0,0.0,0.0,0.0,0.0,0.0,0.0,0.0,0.0,0.0,0.0,0.0,0.0,0.0,0.0,0.0,0.0,0.0,0.0,0.0,2.6483,0.0,0.0,0.0,0.0,0.0,0.0,0.0,0.0,0.0,0.0,0.0,3.3113,3.4477,3.4698,3.4799,3.5011,3.4539,3.405,0.0,0.0,0.0,0.0,0.0,0.0,0.0,0.0,0.0,0.0,0.0,0.0,0.0,0.0,3.3342,3.1863,3.1002,3.0845,3.1957,0.0,0.0,0.0,0.0,0.0,0.0,0.0,0.0,0.0,0.0,0.0,0.0,0.0,0.0,2.0853,0.0,2.1109,0.0,0.0,0.0,0.0,0.0,0.0,0.0,0.0,2.5078,2.5673,2.6059,2.6306,2.6144,0.0,2.5359,2.4181,0.0,0.0,0.0,0.0,0.0,0.0,0.0,0.0,1.9996,2.0374,2.1343,2.1913,2.1963,2.2125,2.2372,2.2634,2.2548,2.2262,2.172,2.1101,2.0627,0.0,0.0,0.0,0.0,0.0,0.0,0.0,0.0,0.0,0.0,0.0,0.0,0.0,0.0,0.0,0.0,0.0,0.0,0.0,0.0,0.0,0.0,0.0,2.7419,0.0,0.0,0.0,0.0,0.0,0.0,0.0,0.0,0.0,3.3688,3.4054,3.4891,3.6483,3.623,3.6013,3.6181,0.0,0.0,0.0,0.0,0.0,0.0,0.0,3.4839,3.5557,3.5035,3.4737,3.5312,3.5317,3.5197,3.4949,0.0,0.0,3.3336,3.2525,3.2442,3.3851,3.4359,3.4773,3.5386,3.5982,3.6231,0.0,0.0,0.0,0.0,0.0,0.0,0.0,0.0,2.1551,2.1889,0.0,2.268,0.0,0.0,0.0,0.0,0.0,2.4945,0.0,0.0,2.8595,2.9235,2.9218,2.8855,2.8396,2.7868,2.8091,2.7233,2.5345,2.3082,0.0,0.0,0.0,0.0,0.0,0.0,2.1748,2.2297,2.2857,2.3248,2.3398,2.3108,2.301,2.3165,2.3039,2.3113,2.3395,2.3246,2.2673,2.1507,2.1385,0.0,0.0,0.0,0.0,0.0,0.0,0.0,0.0,0.0,0.0,0.0,0.0,0.0,0.0,0.0,0.0,0.0,0.0,0.0,0.0,2.7585,0.0,0.0,0.0,0.0,0.0,0.0,0.0,0.0,0.0,0.0,3.4652,3.6232,3.7765,3.8366,0.0,0.0,0.0,0.0,3.5233,3.5686,3.5229,3.5201,3.6276,3.6413,3.6402,3.6335,0.0,0.0,3.6175,3.6042,3.581,3.5098,3.5048,3.5197,3.5909,3.528,3.511,3.6057,3.5743,3.5427,3.5706,3.6034,3.6005,2.2676,0.0,0.0,0.0,0.0,2.2146,2.2805,2.3968,2.3733,2.3839,2.422,2.4743,0.0,0.0,0.0,0.0,0.0,0.0,2.7072,2.8137,2.8525,2.8869,2.931,2.9175,2.883,2.8219,2.8328,2.7657,2.6348,2.5647,2.4044,2.1624,0.0,0.0,0.0,0.0,2.2711,2.3137,2.3621,2.3992,2.4187,2.4016,2.4089,2.4423,2.442,2.4237,2.3904,2.3879,2.3486,2.2727,2.186,0.0,0.0,0.0,0.0,0.0,0.0,0.0,0.0,0.0,0.0,0.0,0.0,0.0,0.0,0.0,0.0,0.0,0.0,0.0,2.8311,2.9122,2.9746,0.0,0.0,0.0,0.0,0.0,0.0,0.0,0.0,0.0,3.7986,3.8112,3.8302,0.0,0.0,3.8025,3.7395,3.6977,3.6776,3.6714,3.6853,0.0,3.7559,3.7455,3.759,3.8278,3.814,3.7656,3.6928,3.6804,3.6721,3.6489,3.6473,3.6704,3.7275,3.6092,3.5359,3.6114,3.6219,3.6541,3.7706,3.8291,3.8556,2.5022,2.4476,2.347,2.3398,2.3953,2.4314,2.5101,2.6194,2.591,2.6171,2.687,2.704,2.6634,2.5833,2.6127,0.0,0.0,0.0,2.8203,2.9091,2.9314,2.9601,2.9964,2.9719,2.9431,2.9065,2.8913,2.8323,2.7386,2.7466,2.6187,2.3736,0.0,0.0,2.2455,2.3409,2.4103,2.4512,2.4848,2.5122,2.535,2.5057,2.5085,2.5315,2.5127,2.4842,2.4462,2.4448,2.4177,2.3581,2.2863,2.2144,0.0,0.0,0.0,0.0,0.0,0.0,0.0,0.0,0.0,0.0,0.0,2.3942,2.4002,0.0,0.0,0.0,2.7019,2.8437,3.0567,3.1363,0.0,0.0,0.0,0.0,0.0,0.0,0.0,3.7135,3.8491,3.9487,3.9866,3.9835,3.974,3.974,3.925,3.8744,3.8333,0.0,3.7508,3.7623,3.7886,3.8217,3.8523,3.8428,3.8556,3.9206,3.8941,3.8394,3.7698,3.7533,3.745,3.7201,3.7119,3.7251,3.7698,3.6671,3.609,3.7034,3.704,3.7246,3.8364,3.8926,3.9319,2.7637,2.7676,2.6101,2.5529,2.578,2.718,2.777,2.7758,2.7731,2.8474,2.9666,2.924,2.8899,2.8564,2.753,0.0,2.7816,2.8922,2.9693,3.0179,3.0738,3.1024,3.096,3.0414,3.0153,3.0074,2.9692,2.9136,2.842,2.8552,2.7789,2.6156,2.5664,2.5365,2.5246,2.5389,2.5737,2.6175,2.6312,2.644,2.661,2.6164,2.5941,2.5887,2.5317,2.4978,2.4937,2.4883,2.4611,2.4055,2.4028,2.324,2.1648,0.0,0.0,0.0,0.0,0.0,0.0,0.0,0.0,0.0,0.0,0.0,0.0,0.0,0.0,0.0,2.9407,0.0,3.3251,3.3959,0.0,0.0,0.0,3.6519,3.6629,3.7796,3.8618,3.8635,0.0,0.0,4.0688,4.1209,4.1557,4.1509,4.034,3.9471,3.9439,3.8331,3.7746,3.8278,3.842,3.8644,3.9137,3.9212,3.9222,3.9299,3.9315,3.9017,3.8444,3.8295,3.7987,3.7483,3.7301,3.7334,3.7301,3.7359,3.7594,3.8573,3.8053,3.7582,3.8051,3.8511,3.8931,2.7706,2.8032,2.8294,2.812,2.77,2.8067,2.8234,2.8234,2.8234,2.8778,2.9691,2.9604,2.9833,3.0383,3.0121,3.0032,3.0189,3.0451,3.0647,3.079,3.0921,3.1024,3.0973,3.0843,3.0555,3.0087,2.9692,2.9136,2.842,2.8291,2.7934,2.7393,2.7377,2.6724,2.5419,2.6166,2.6746,2.7176,2.7149,2.6996,2.6776,2.6644,2.6389,2.593,2.5317,2.4801,2.4313,2.3865,2.3567,2.3418,2.337,2.3139,2.2717,2.2107,0.0,0.0,0.0,0.0,0.0,0.0,0.0,0.0,0.0,2.8194,2.6677,0.0,3.0163,0.0,3.1394,3.3172,3.4747,3.5493,0.0,0.0,3.7449,3.7638,3.8649,3.906,3.9487,4.004,4.0846,4.1351,4.1351,4.1494,4.1383,4.0909,4.0072,3.9313,3.8807,3.8257,3.7931,3.8335,3.8572,3.8849,3.9218,3.9315,3.9315,3.9315,3.9315,3.9232,3.9083,3.905,3.8984,3.8791,3.8785,3.8801,3.8778,3.9004,3.9354,3.9764,3.8653,3.775,3.8558,3.9382,4.0032,2.9042,2.9303,2.9858,2.9896,2.9549,2.9549,2.9537,2.9549,2.9549,2.9819,3.0266,3.0254,3.0545,3.0986,3.1024,3.1024,3.1024,3.1024,3.1024,3.1024,3.1024,3.1024,3.1024,3.1024,3.0686,3.0087,2.9977,2.9421,2.8584,2.8491,2.8286,2.7934,2.8046,2.7618,2.6747,2.724,2.7624,2.7862,2.7894,2.7841,2.7623,2.7352,2.6901,2.6321,2.571,2.5113,2.4502,2.4436,2.4255,2.3939,2.4146,2.412,2.3873,2.367,2.3415,0.0,0.0,0.0,0.0,0.0,0.0,0.0,0.0,0.0,0.0,0.0,3.2692,3.2945,3.4304,3.5726,3.7101,3.7859,3.8713,3.9771,3.955,3.9598,4.034,4.0435,4.0593,4.1004,4.1367,4.1588,4.1588,4.132,4.102,4.064,3.9708,3.8934,3.8569,3.8159,3.8017,3.8363,3.8611,3.8914,3.9228,3.9315,3.9315,3.9315,3.9315,3.9315,3.9315,3.9315,3.9352,3.9511,3.9432,3.9415,3.9696,3.9816,4.0045,4.0363,3.9816,3.9409,3.9978,4.053,4.0981,3.0698,3.0773,3.0911,3.1024,3.1024,3.1024,3.1024,3.1024,3.1024,3.1024,3.1024,3.1024,3.1024,3.1024,3.1024,3.1024,3.1024,3.1024,3.1024,3.1024,3.1024,3.0947,3.0882,3.0919,3.0618,3.0045,3.0194,2.9711,2.8747,2.8811,2.8605,2.8158,2.8243,2.8346,2.8436,2.8546,2.8514,2.8365,2.8509,2.8587,2.8587,2.8085,2.7501,2.6806,2.6272,2.5676,2.5064,2.5576,2.5607,2.5019,2.5592,2.5704,2.5214,2.5619,2.5858,0.0,2.6497,0.0,0.0,0.0,0.0,0.0,0.0,0.0,0.0,3.3745,3.5252,3.655,3.7417,3.8395,3.9534,4.0293,4.0956,4.1509,4.1588,4.1588,4.1588,4.1588,4.1588,4.1588,4.1588,4.1573,4.143,4.0956,4.0593,4.0214,3.9297,3.8554,3.8424,3.8168,3.8103,3.8391,3.8683,3.9013,3.9245,3.9315,3.9325,3.9352,3.9405,3.9405,3.9484,3.9468,3.9573,3.9858,3.9687,3.9687,4.0302,4.0204,4.0303,4.0949,4.0972,4.1007,4.1296,4.1455,4.1721,3.0811,3.0949,3.0986,3.1024,3.1024,3.1024,3.1024,3.1024,3.1024,3.1024,3.1024,3.1024,3.1024,3.1024,3.1024,3.1024,3.1024,3.1024,3.1024,3.1024,3.1024,3.0738,3.032,3.044,3.0211,2.9631,2.9504,2.924,2.8856,2.8731,2.8533,2.83,2.8903,2.9251,2.93,0.0,0.0,0.0,2.8573,2.8587,2.8587,2.8492,2.7908,2.685,2.6655,0.0,2.5097,2.5578,2.5854,2.5738,2.6716,0.0,0.0,0.0,0.0,0.0,0.0,0.0,0.0,0.0,0.0,0.0,3.3439,3.3,3.3103,3.541,3.7212,3.8065,3.9266,4.0119,4.0372,4.1004,4.1446,4.1573,4.1588,4.1588,4.1588,4.1588,4.1588,4.1588,4.1588,4.1383,4.0893,4.0672,4.0151,3.9155,3.8681,3.8377,3.8073,3.8187,3.8403,3.8667,3.8985,3.9218,3.9299,3.9342,3.9441,3.9694,3.9781,3.9867,4.0095,4.017,4.017,4.0311,4.0245,4.0195,4.04,4.0604,4.089,4.1468,4.1507,4.148,4.1499,4.1825,4.2095,3.0911,0.0,3.1394,3.1542,0.0,3.1529,3.175,3.2042,3.1296,3.1024,3.1024,3.1024,3.1024,3.1024,3.1024,3.1024,3.1024,3.1024,3.1024,3.1024,3.1086,3.0834,3.027,3.0451,3.0259,2.9699,2.9644,2.9627,2.9536,2.9544,2.9498,2.9407,2.9797,2.9981,3.0011,3.0315,3.0192,2.9529,2.9546,2.9529,2.9529,2.9529,2.9111,2.8213,0.0,0.0,0.0,0.0,0.0,0.0,0.0,0.0,0.0,0.0,0.0,3.0413,3.1427,3.2041,3.211,3.3094,3.4175,3.5198,3.5365,3.5527,3.5726,3.745,3.8902,3.9945,4.0688,4.1083,4.1099,4.1399,4.1588,4.1588,4.1588,4.1588,4.1588,4.1588,4.1588,4.1557,4.1304,4.0972,4.064,3.9945,3.9345,3.8618,3.8342,3.82,3.8171,3.8262,3.8532,3.8958,3.9175,3.9379,3.9563,3.9616,3.9729,4.0054,4.0154,4.0212,4.0392,4.04,4.0449,4.0635,4.0538,4.0514,4.0896,4.1007,4.1146,4.1661,4.1874,4.1977,4.2008,4.2133,4.2297,3.1371,3.1445,3.2051,3.229,3.229,3.2304,3.2648,3.3108,0.0,0.0,0.0,3.1384,3.1371,3.1371,3.1371,3.1408,3.1408,3.1394,3.1431,3.1445,3.1653,3.1351,3.0708,3.0872,3.0603,2.9965,3.0103,3.0185,3.024,3.0419,3.048,3.051,3.0614,3.0718,3.0807,3.0837,3.0852,3.0807,3.0614,3.048,3.048,3.048,3.0234,2.9624,2.9696,2.9461,2.8902,2.9528,2.9704,2.9241,2.977,3.0428,3.1105,3.1628,3.2428,3.3506,3.426,3.4674,3.469,3.5426,3.5827,3.5857,3.6535,3.7372,3.823,3.903,4.0008,4.132,4.1525,4.1588,4.1588,4.1588,4.1588,4.1588,4.1588,4.1588,4.1588,4.1462,4.1449,4.145,4.0992,4.0547,4.0497,3.9618,3.8745,3.8674,3.8473,3.8298,3.8583,3.8655,3.881,3.9282,3.9441,3.9547,3.9884,3.9986,4.0121,4.0458,4.0514,4.0538,4.057,4.0594,4.0731,4.103,4.0819,4.0937,4.1408,4.134,4.13,4.177,4.21,4.2308,4.2512,4.2434,4.2416,3.2861,3.2911,3.3003,3.3038,3.3052,3.3038,3.3122,3.3192,3.2981,3.2911,3.2911,3.2861,3.2911,3.2875,3.2911,3.2875,3.2911,3.3087,3.3157,3.3143,3.3304,3.2752,3.1712,3.1848,3.1276,3.0244,3.0368,3.0446,3.0464,3.0524,3.048,3.0569,3.1058,3.1623,3.2104,3.2132,3.2117,3.2089,3.1058,3.048,3.048,3.048,3.0205,2.9653,3.0111,3.011,2.9522,3.0563,3.1351,3.1827,3.2465,3.3167,3.3889,3.3981,3.415,3.4366,3.4982,3.5367,3.5353,3.5999,3.6369,3.64,3.6754,3.7357,3.823,3.8937,3.9724,4.064,4.1225,4.1588,4.1588,4.1621,4.1654,4.1621,4.1621,4.1588,4.1607,4.118,4.1024,4.1352,4.0834,4.038,4.0255,4.002,3.9637,3.9352,3.9154,3.9305,3.9542,3.9408,3.9379,3.9694,3.9824,3.9961,4.0262,4.0343,4.049,4.086,4.0931,4.1007,4.1277,4.134,4.1346,4.1475,4.1408,4.1453,4.1604,4.1582,4.1609,4.1849,4.1917,4.2124,4.2472,4.2512,4.2611,3.3192,3.3262,3.363,3.3802,3.3837,3.4254,3.4206,3.3871,3.4254,3.3968,3.3213,3.3332,3.3367,3.3353,3.3457,3.3478,3.3463,3.3581,3.3616,3.3602,3.3411,3.2853,3.204,3.1809,3.1426,3.0925,3.0984,3.1204,3.1522,3.1551,3.1507,3.1551,3.1851,3.2132,3.237,3.2398,3.2398,3.2398,3.1836,3.1536,3.1507,3.1551,3.1386,3.1142,3.141,3.1414,3.1138,3.2011,3.2628,3.2921,3.3614,3.4291,3.4998,3.5044,3.5183,3.5568,3.5861,3.603,3.603,3.6322,3.6492,3.6492,3.6708,3.7063,3.7544,3.8355,3.9172,3.9945,4.0656,4.1051,4.11,4.1709,4.2158,4.2158,4.2443,4.2453,4.2096,4.1805,4.1522,4.1305,4.0709,4.0266,4.02,3.9874,3.964,3.9418,3.9568,3.9851,4.0161,4.0045,3.9978,4.0112,4.0179,4.0336,4.0635,4.0707,4.0873,4.1255,4.134,4.1386,4.1582,4.1604,4.1604,4.1604,4.1604,4.1604,4.1604,4.1604,4.1648,4.1697,4.1849,4.2019,4.2187,4.2391,4.265,3.3713,3.3782,3.4341,3.4562,3.4643,3.5246,3.5133,3.4658,3.5246,3.482,3.3817,3.3905,3.3988,3.4007,3.4177,3.423,3.423,3.4264,3.4283,3.4211,3.3762,3.3247,3.2635,3.2099,3.1797,3.1712,3.1709,3.1936,3.237,3.2398,3.2398,3.2398,3.2398,3.2398,3.2398,3.2398,3.2398,3.2398,3.2398,3.2398,3.2398,3.2398,3.2398,3.2398,3.2398,3.2398,3.2428,3.3044,3.3475,3.366,3.4335,3.5044,3.5691,3.5858,3.6166,3.6646,3.6831,3.6906,3.6906,3.6922,3.6892,3.6906,3.7028,3.7194,3.7436,3.8132,3.8782,3.9296,3.9929,4.0404,4.0674,4.1579,4.2405,4.2543,4.31,4.3112,4.2526,4.2274,4.1917,4.1216,4.0568,4.0217,4.0241,3.991,3.9722,3.9919,4.0128,4.0424,4.0618,4.0683,4.0683,4.0659,4.0611,4.0683,4.1047,4.114,4.1272,4.1582,4.1582,4.1582,4.1604,4.1604,4.1604,4.1604,4.1604,4.1604,4.1604,4.1604,4.1604,4.1609,4.1719,4.187,4.2023,4.2331,4.265,3.5246,3.5294,3.5326,3.5392,3.5392,3.5457,3.5424,3.5392,3.5472,3.5439,3.5213,3.5429,3.5479,3.5512,3.5655,3.572,3.572,3.5911,3.5928,3.5867,3.5492,3.4926,3.4163,3.3519,3.2903,3.2361,3.2287,3.2315,3.2398,3.2398,3.2398,3.2398,3.2398,3.2425,3.2425,3.2425,3.2425,3.2398,3.2398,3.2398,3.2398,3.2398,3.2398,3.2398,3.2398,3.2398,3.2425,3.3044,3.3706,3.4382,3.5074,3.5722,3.6384,3.6904,3.7249,3.7312,3.7809,3.8153,3.8108,3.8153,3.8096,3.8153,3.8193,3.8351,3.849,3.8766,3.8845,3.884,3.9249,3.9893,4.0369,4.1162,4.1885,4.2393,4.3048,4.3201,4.2493,4.1794,4.1311,4.1129,4.0526,4.0222,4.0671,4.0683,4.0758,4.0825,4.1076,4.1277,4.1323,4.1363,4.1368,4.1363,4.1186,4.1117,4.1408,4.1538,4.1538,4.1604,4.1604,4.1604,4.1604,4.1604,4.1604,4.1604,4.1604,4.1604,4.1604,4.1604,4.1604,4.1604,4.167,4.174,4.2145,4.2409,4.2611,3.5489,3.5489,3.5489,3.5489,3.5489,3.5489,3.5489,3.5489,3.5489,3.5489,3.5587,3.6133,3.6196,3.5894,3.6163,3.6304,3.6304,3.6352,3.6383,3.6321,3.5753,3.5167,3.4474,3.3737,3.3044,3.2428,3.2398,3.2398,3.2398,3.2398,3.2398,3.2437,3.2695,3.2868,3.2895,3.3172,3.3188,3.2895,3.2868,3.2853,3.2841,3.2559,3.2398,3.2398,3.2398,3.2574,3.2966,3.3959,3.4879,3.5518,3.6575,3.7274,3.7531,3.7796,3.7924,3.7924,3.8153,3.8351,3.8407,3.8435,3.8435,3.8435,3.8596,3.8734,3.8695,3.8947,3.904,3.9035,3.9523,4.0046,4.034,4.1262,4.2032,4.2333,4.2898,4.303,4.2249,4.191,4.1563,4.1057,4.073,4.0597,4.0847,4.1012,4.1111,4.1232,4.1431,4.1604,4.1604,4.1604,4.1604,4.1582,4.1431,4.1431,4.1582,4.1604,4.1604,4.1604,4.1604,4.1604,4.1604,4.1604,4.1604,4.1604,4.1604,4.1604,4.1604,4.1604,4.1604,4.1604,4.1604,4.1697,4.2002,4.2124,4.2313,3.6189,3.6037,3.6022,3.6037,3.6005,3.6037,3.6037,3.6037,3.6068,3.6085,3.6148,3.689,3.6981,3.6631,3.6876,3.6997,3.6997,3.6997,3.6997,3.6919,3.6279,3.5652,3.4919,3.4216,3.3529,3.2951,3.2841,3.2857,3.283,3.283,3.283,3.2895,3.3224,3.3417,3.3459,3.3818,3.3793,3.3443,3.3433,3.3417,3.3381,3.3029,3.283,3.2846,3.3045,3.3338,3.3767,3.5143,3.6101,3.6513,3.7658,3.8306,3.8306,3.8463,3.8613,3.8767,3.8794,3.8849,3.893,3.9001,3.8984,3.9011,3.9209,3.9315,3.9305,3.948,3.961,3.9729,4.0105,4.0354,4.0288,4.1228,4.1931,4.2149,4.2774,4.2861,4.2147,4.1992,4.1709,4.105,4.0881,4.0894,4.0918,4.1082,4.1209,4.1232,4.1431,4.1604,4.1604,4.1604,4.1604,4.1604,4.1604,4.1604,4.1604,4.1604,4.1604,4.1604,4.1604,4.1604,4.1604,4.1604,4.1604,4.1604,4.1604,4.1604,4.1604,4.1604,4.1604,4.1604,4.1604,4.1653,4.1874,4.1895,4.2082,3.7956,3.7312,3.7294,3.7251,3.731,3.728,3.728,3.7221,3.7383,3.7472,3.7442,3.7803,3.7946,3.7889,3.8092,3.8193,3.8165,3.8108,3.8124,3.8044,3.7471,3.6831,3.612,3.5435,3.4704,3.3954,3.388,3.3866,3.386,3.3869,3.3919,3.391,3.4009,3.4002,3.405,3.419,3.4043,3.4131,3.4131,3.405,3.4025,3.4,3.4007,3.4113,3.4623,3.4988,3.5244,3.6443,3.7243,3.7243,3.7984,3.8362,3.839,3.8849,3.9391,3.9876,3.9969,3.9969,3.9969,4.007,4.0138,4.0188,4.0229,4.0444,4.0436,4.0485,4.0541,4.0793,4.0748,4.0595,4.0256,4.0832,4.1469,4.1931,4.2639,4.2654,4.2026,4.1871,4.1671,4.1084,4.0894,4.0912,4.0894,4.1071,4.1169,4.1255,4.1453,4.1604,4.1604,4.1604,4.1604,4.1604,4.1604,4.1604,4.1604,4.1604,4.1604,4.1604,4.1604,4.1604,4.1604,4.1604,4.1604,4.1604,4.1604,4.1604,4.1604,4.1604,4.1604,4.1604,4.1604,4.1675,4.1805,4.187,4.2019,3.8078,3.7399,3.7383,3.7383,3.7383,3.7488,3.7531,3.7531,3.7677,3.7735,3.7835,3.8314,3.8564,3.8608,3.9183,3.9055,3.8334,3.8306,3.8306,3.829,3.8047,3.7588,3.6924,3.6632,3.5886,3.4887,3.4725,3.4457,3.4027,3.4011,3.4011,3.4183,3.4873,3.526,3.5391,3.6115,3.6331,3.6017,3.5966,3.5992,3.5917,3.5983,3.6158,3.6413,3.5643,3.558,3.6386,3.7366,3.8034,3.8387,3.907,3.9454,3.9454,3.967,3.985,4.007,4.0113,4.0121,4.0213,4.0362,4.0436,4.0436,4.0631,4.0728,4.0721,4.0793,4.0864,4.0888,4.0894,4.0758,4.0697,4.083,4.1074,4.1295,4.155,4.1671,4.1378,4.1291,4.1164,4.0963,4.0894,4.0935,4.1006,4.1129,4.1232,4.134,4.1493,4.1582,4.1604,4.1604,4.1604,4.1604,4.1604,4.1604,4.1604,4.1604,4.1604,4.1604,4.1604,4.1604,4.1604,4.1604,4.1604,4.1604,4.1604,4.1604,4.1604,4.1604,4.1604,4.1604,4.1604,4.1613,4.1697,4.1778,4.186,3.8669,3.8075,3.8084,3.8084,3.8112,3.8222,3.8278,3.8278,3.8418,3.8474,3.8585,3.9076,3.9272,3.9368,3.9876,3.9679,3.893,3.8903,3.8876,3.8903,3.8859,3.8508,3.7933,3.786,3.7225,3.6231,3.6024,3.572,3.5325,3.5276,3.5251,3.535,3.6214,3.6593,3.6766,3.7485,3.7696,3.7394,3.7361,3.7344,3.7344,3.7344,3.7667,3.7997,3.707,3.6795,3.7695,3.843,3.8958,3.9344,3.9842,4.0113,4.0113,4.0113,4.0113,4.0113,4.0113,4.0138,4.0255,4.0395,4.051,4.0493,4.0728,4.0847,4.0769,4.0847,4.0894,4.0894,4.0894,4.0894,4.0894,4.0888,4.0894,4.0894,4.0894,4.0894,4.0894,4.0912,4.0912,4.0912,4.0894,4.0935,4.1029,4.1134,4.1249,4.134,4.1475,4.1604,4.1604,4.1604,4.1675,4.1766,4.1809,4.192,4.2029,4.2136,4.1809,4.1723,4.1719,4.1675,4.1697,4.1675,4.1653,4.1631,4.1626,4.1604,4.1604,4.1626,4.1626,4.1631,4.1574,4.1561,4.1635,4.1672,4.1848,3.994,3.9328,3.9405,3.9352,3.9335,3.9451,3.9635,3.9582,3.9729,3.9703,3.9687,3.9986,3.9969,4.0045,4.0045,4.0045,3.9969,3.9901,3.9901,3.9944,3.9969,3.9573,3.8983,3.8941,3.8553,3.7761,3.78,3.7783,3.7559,3.7485,3.7525,3.7715,3.7708,3.7793,3.7898,3.8017,3.8017,3.8019,3.807,3.8027,3.7932,3.8019,3.8364,3.8937,3.8847,3.8822,3.8997,3.9623,3.9944,4.0003,4.0062,4.0113,4.0113,4.0113,4.0113,4.0113,4.0113,4.0113,4.0163,4.037,4.0534,4.0534,4.0769,4.0894,4.0888,4.0871,4.0894,4.0894,4.0894,4.0894,4.0894,4.0894,4.0894,4.0894,4.0894,4.0894,4.0894,4.0894,4.0894,4.0894,4.0894,4.0894,4.0942,4.1088,4.1232,4.1351,4.1525,4.1719,4.1788,4.1809,4.1852,4.2092,4.2198,4.2279,4.2541,4.2716,4.2279,4.1899,4.1874,4.1852,4.192,4.1924,4.1966,4.1963,4.1984,4.1984,4.1984,4.1984,4.192,4.1899,4.1739,4.1711,4.1834,4.1951,4.1966,4.0331,4.0147,3.9691,3.9537,3.9642,3.9781,3.9833,3.9858,3.9986,4.0037,4.0037,4.007,4.0113,4.0113,4.0113,4.0113,4.0113,4.0113,4.0113,4.0096,4.0113,3.9994,3.9791,3.974,3.9385,3.8667,3.8142,3.7922,3.7956,3.7956,3.7898,3.799,3.843,3.8633,3.8684,3.9123,3.9419,3.9411,3.9436,3.9436,3.9419,3.9394,3.9537,3.9723,3.9757,3.9757,3.9774,3.9977,4.0096,4.0113,4.0113,4.0113,4.0113,4.0113,4.0121,4.023,4.0255,4.0255,4.0263,4.0478,4.06,4.06,4.0752,4.0871,4.0894,4.0894,4.0894,4.0894,4.0894,4.0894,4.0894,4.0894,4.0894,4.0894,4.0894,4.0894,4.0894,4.0894,4.0894,4.0894,4.0894,4.0935,4.1029,4.1175,4.1401,4.1692,4.1903,4.2071,4.234,4.234,4.2442,4.2581,4.2638,4.2676,4.2922,4.3051,4.2792,4.2482,4.236,4.2195,4.2218,4.2221,4.2262,4.23,4.232,4.232,4.234,4.234,4.2259,4.234,4.2364,4.2318,4.2291,4.2315,4.2392,4.085,4.0598,3.9933,3.9677,3.9781,3.991,3.9977,4.0003,4.0062,4.0113,4.0113,4.0113,4.0113,4.0113,4.0113,4.0113,4.0138,4.0254,4.0353,4.0328,4.0146,4.0096,4.0113,4.0113,3.991,3.9411,3.8937,3.8717,3.8717,3.8717,3.8717,3.8836,3.9174,3.9419,3.9428,3.9859,4.0113,4.0113,4.0079,4.0113,4.0096,4.0113,4.0113,4.0096,4.0096,4.0113,4.0113,4.0113,4.0113,4.0113,4.0113,4.0113,4.0113,4.0096,4.0121,4.0213,4.0263,4.0305,4.033,4.0551,4.0673,4.0631,4.0793,4.0912,4.0894,4.0894,4.0894,4.0894,4.0894,4.0894,4.0894,4.0894,4.0894,4.0894,4.0894,4.0894,4.0894,4.0894,4.0894,4.0918,4.1041,4.1117,4.1232,4.1574,4.176,4.2139,4.2322,4.2462,4.2734,4.2754,4.2848,4.2959,4.3032,4.3123,4.3266,4.3301,4.3283,4.3105,4.2941,4.2734,4.26,4.2581,4.26,4.2581,4.2599,4.258,4.2599,4.2638,4.262,4.2773,4.283,4.2576,4.2431,4.2796,4.2904,4.1594,4.0915,4.0272,4.0045,4.007,4.0196,4.0279,4.0221,4.0229,4.0279,4.0254,4.0303,4.0254,4.0229,4.0328,4.0328,4.0296,4.0635,4.0832,4.0731,4.0507,4.0328,4.0336,4.0353,4.0326,4.0201,4.0126,4.0135,4.008,4.009,4.0196,4.0133,4.0158,4.017,4.0226,4.0221,4.0303,4.0328,4.0279,4.0279,4.0279,4.0254,4.0254,4.0254,4.0279,4.0303,4.0328,4.0254,4.0171,4.0096,4.0113,4.0113,4.0096,4.0121,4.0196,4.0213,4.0288,4.0387,4.0412,4.068,4.0752,4.0697,4.0817,4.0894,4.0894,4.0965,4.1018,4.1018,4.1065,4.1065,4.1065,4.1088,4.1065,4.1012,4.1041,4.0995,4.0942,4.1012,4.1134,4.1157,4.1328,4.1539,4.16,4.2056,4.2364,4.2562,4.2716,4.2848,4.3014,4.3123,4.3123,4.3248,4.3424,4.351,4.3629,4.3627,4.3627,4.3525,4.3406,4.3248,4.3087,4.3051,4.3069,4.3032,4.2959,4.2904,4.2941,4.3051,4.3087,4.3141,4.3012,4.2667,4.2793,4.3224,4.3348,4.2948,4.2735,4.1479,4.1001,4.1071,4.1116,4.1116,4.1139,4.1099,4.1071,4.1116,4.1122,4.1094,4.1139,4.1116,4.1139,4.1122,4.1236,4.1321,4.1281,4.119,4.1139,4.1122,4.1116,4.1116,4.1094,4.1047,4.1139,4.1122,4.1071,4.1071,4.1139,4.1047,4.1076,4.1139,4.1071,4.1122,4.1122,4.1116,4.1094,4.1094,4.1094,4.1122,4.1122,4.1116,4.1094,4.1071,4.0784,4.0434,4.0121,4.0113,4.0113,4.0171,4.0434,4.0556,4.0549,4.1036,4.1169,4.083,4.1047,4.1094,4.0769,4.0918,4.0894,4.0912,4.1186,4.1305,4.1401,4.1622,4.1839,4.1839,4.1817,4.1839,4.1817,4.1556,4.1396,4.1401,4.1644,4.186,4.1881,4.1927,4.199,4.2095,4.2342,4.2676,4.2922,4.3123,4.3318,4.344,4.356,4.3594,4.3712,4.3844,4.391,4.3942,4.3958,4.3958,4.3908,4.3825,4.3777,4.3695,4.3679,4.3712,4.3728,4.356,4.3457,4.3594,4.3744,4.3677,4.3508,4.3502,4.3371,4.3527,4.3809,4.3793,4.361,4.3559,4.2018,4.1437,4.1503,4.1503,4.1503,4.1503,4.1503,4.1503,4.1503,4.1503,4.1503,4.1503,4.1481,4.1503,4.1525,4.17,4.1803,4.1825,4.1994,4.1867,4.1591,4.1503,4.1503,4.1503,4.1503,4.1481,4.1481,4.1503,4.1503,4.1459,4.1503,4.1503,4.1459,4.1503,4.1503,4.1481,4.1503,4.1503,4.1503,4.1503,4.1481,4.1481,4.1503,4.1503,4.1437,4.1213,4.0932,4.0689,4.0531,4.05,4.0707,4.0932,4.1065,4.1013,4.1561,4.1666,4.1445,4.1604,4.1644,4.144,4.1418,4.144,4.1507,4.1687,4.1799,4.1842,4.2074,4.2177,4.2216,4.2216,4.2216,4.2154,4.2115,4.2008,4.1821,4.2011,4.2175,4.2239,4.2378,4.2498,4.2498,4.2808,4.3105,4.3355,4.3543,4.3728,4.3892,4.3989,4.4005,4.4005,4.4005,4.3989,4.3989,4.3989,4.4005,4.3989,4.3989,4.4005,4.4005,4.4005,4.3989,4.3958,4.3989,4.4005,4.4005,4.4005,4.3942,4.386,4.3989,4.4005,4.4005,4.4005,4.4005,4.3955,4.3814,4.2287,4.1635,4.1678,4.1656,4.1743,4.1696,4.176,4.1721,4.1721,4.166,4.1785,4.1635,4.1807,4.17,4.1721,4.2118,4.2239,4.236,4.2518,4.242,4.1849,4.1825,4.1807,4.1785,4.1678,4.1739,4.1825,4.1743,4.1678,4.1785,4.1743,4.1678,4.1807,4.176,4.1656,4.1743,4.1807,4.1825,4.1825,4.1825,4.1846,4.1828,4.1807,4.1825,4.1782,4.1674,4.163,4.1678,4.1162,4.1071,4.1393,4.1481,4.1587,4.1713,4.1927,4.2115,4.2035,4.2115,4.2216,4.2095,4.2113,4.2216,4.2133,4.2177,4.2277,4.2259,4.23,4.2458,4.246,4.24,4.244,4.2519,4.2732,4.2711,4.2458,4.2358,4.2358,4.2358,4.2731,4.292,4.3087,4.3392,4.3771,4.3582,4.3765,4.3876,4.3974,4.3989,4.4005,4.4005,4.4005,4.4005,4.4005,4.4005,4.4005,4.4005,4.4005,4.4005,4.4005,4.4005,4.4005,4.4005,4.4005,4.4005,4.4005,4.4005,4.4005,4.4005,4.4005,4.4005,4.4005,4.4005,4.4005,4.4988,4.4826,4.3262,4.2596,4.2596,4.2614,4.2577,4.2575,4.2577,4.2518,4.2577,4.2577,4.2557,4.2557,4.2518,4.2614,4.2518,4.2655,4.275,4.275,4.2825,4.2825,4.2577,4.2537,4.2557,4.2537,4.2577,4.2577,4.2557,4.2498,4.2595,4.2557,4.2478,4.2577,4.2557,4.2498,4.2596,4.2596,4.2557,4.2518,4.2518,4.2518,4.2518,4.2518,4.2537,4.2634,4.2652,4.2398,4.2438,4.248,4.1976,4.1503,4.1652,4.1909,4.2011,4.2095,4.2555,4.2692,4.2378,4.2518,4.2577,4.232,4.2338,4.2216,4.2218,4.2557,4.2711,4.2807,4.3032,4.3124,4.3105,4.3196,4.3142,4.3124,4.3214,4.3286,4.3214,4.3178,4.3142,4.3178,4.325,4.3357,4.3375,4.3567,4.3788,4.382,4.3899,4.3992,4.4005,4.4005,4.4005,4.4005,4.4005,4.4005,4.4005,4.4005,4.4005,4.4005,4.4005,4.4005,4.4005,4.4005,4.4005,4.4005,4.4005,4.4005,4.4005,4.4005,4.4005,4.4005,4.4005,4.4005,4.4005,4.4005,4.4005,4.5635,4.5182,4.3969,4.3226,4.2955,4.2919,4.2919,4.2919,4.2919,4.2919,4.2919,4.2919,4.2919,4.2919,4.2919,4.29,4.2919,4.2975,4.2938,4.2938,4.2994,4.3031,4.3012,4.3013,4.3013,4.2938,4.29,4.2919,4.2919,4.2975,4.2956,4.2994,4.2994,4.2957,4.2995,4.2975,4.2901,4.2919,4.2938,4.2919,4.2919,4.2919,4.2919,4.2919,4.2957,4.303,4.303,4.2918,4.2939,4.2976,4.2635,4.2279,4.2297,4.2516,4.2595,4.2653,4.2939,4.3178,4.2958,4.2995,4.3087,4.2827,4.2808,4.2826,4.2827,4.305,4.3142,4.3232,4.3357,4.3479,4.3479,4.3479,4.3479,4.3479,4.3479,4.3479,4.3479,4.3479,4.3479,4.3479,4.3444,4.3515,4.3601,4.3719,4.382,4.3851,4.3913,4.4005,4.4005,4.4005,4.4005,4.4005,4.4005,4.4005,4.4005,4.4005,4.4005,4.4005,4.4005,4.4005,4.4005,4.4005,4.4005,4.4005,4.4005,4.4005,4.4005,4.4005,4.4005,4.4005,4.4005,4.4005,4.4005,4.4005,4.4005,4.6027,4.5298,4.4411,4.3631,4.3104,4.305,4.3069,4.305,4.3032,4.3105,4.3032,4.305,4.3105,4.3032,4.2995,4.2957,4.2938,4.303,4.303,4.2994,4.3087,4.3123,4.3123,4.3123,4.3105,4.2975,4.2957,4.2957,4.2994,4.305,4.3105,4.3123,4.3123,4.3105,4.3123,4.305,4.3013,4.3068,4.3012,4.2956,4.2956,4.2956,4.2956,4.2994,4.3068,4.3141,4.316,4.316,4.3214,4.3232,4.3232,4.3196,4.3178,4.3178,4.3233,4.3178,4.3323,4.334,4.3357,4.3427,4.3444,4.3479,4.3462,4.3462,4.3444,4.341,4.3427,4.3444,4.3479,4.3479,4.3479,4.3479,4.3479,4.3479,4.3479,4.3479,4.3479,4.3479,4.3479,4.3515,4.3532,4.3566,4.3634,4.3718,4.38,4.3899,4.3961,4.4005,4.4005,4.4005,4.4005,4.4005,4.4005,4.4005,4.4005,4.4005,4.4005,4.4005,4.4005,4.402,4.4005,4.4005,4.4005,4.4005,4.4005,4.4005,4.4005,4.4005,4.4005,4.4005,4.4005,4.4005,4.4005,4.4005,4.4005,4.5957,4.5533,4.4286,4.3672,4.358,4.3562,4.3528,4.3562,4.3528,4.3562,4.3545,4.3545,4.3528,4.3494,4.3303,4.3124,4.305,4.316,4.3178,4.3142,4.3214,4.3251,4.3304,4.3339,4.325,4.316,4.3178,4.3214,4.3178,4.3178,4.3232,4.3214,4.3178,4.3196,4.3196,4.316,4.3123,4.3178,4.3105,4.3068,4.3049,4.3068,4.3086,4.3123,4.3178,4.3233,4.3323,4.334,4.3394,4.3445,4.3463,4.3429,4.334,4.3251,4.3269,4.334,4.3376,4.3446,4.3497,4.3479,4.3479,4.3479,4.3479,4.3479,4.3479,4.3479,4.3479,4.3479,4.3479,4.3479,4.3479,4.3479,4.3479,4.3479,4.3479,4.3479,4.3479,4.3479,4.3479,4.3515,4.3531,4.3599,4.3682,4.3749,4.3849,4.3913,4.3958,4.4005,4.4005,4.4005,4.4005,4.4005,4.4005,4.4005,4.4005,4.4005,4.4005,4.4005,4.4005,4.4051,4.4036,4.4005,4.4005,4.4064,4.4051,4.4005,4.4005,4.4005,4.4005,4.4005,4.4005,4.4005,4.4005,4.4005,4.4005,4.6394,4.5809,4.477,4.4083,4.3751,4.3714,4.3714,4.3714,4.3714,4.3714,4.3714,4.3714,4.3714,4.3679,4.3677,4.3557,4.3539,4.3658,4.3677,4.3642,4.3724,4.3775,4.3775,4.3788,4.3818,4.3818,4.3818,4.3658,4.3494,4.3511,4.3511,4.346,4.3392,4.3304,4.3322,4.325,4.3268,4.3269,4.3214,4.316,4.316,4.316,4.3178,4.3214,4.3286,4.334,4.3376,4.3446,4.3463,4.3497,4.3479,4.348,4.3445,4.341,4.3375,4.3411,4.3446,4.3445,4.3497,4.3479,4.3479,4.3479,4.3479,4.3479,4.3479,4.3479,4.3479,4.3479,4.3479,4.3479,4.3479,4.3479,4.3479,4.3479,4.3479,4.3479,4.3479,4.3479,4.3513,4.3513,4.3565,4.3649,4.3765,4.383,4.3894,4.3942,4.3955,4.3989,4.4005,4.4005,4.4005,4.4048,4.4064,4.4109,4.4109,4.4124,4.414,4.4124,4.4109,4.4155,4.4155,4.4151,4.4181,4.4221,4.4166,4.4109,4.4005,4.4005,4.4005,4.4005,4.4005,4.4005,4.4005,4.4005,4.4005,4.6734,4.5867,4.5121,4.445,4.3913,4.3876,4.3892,4.3857,4.3921,4.3952,4.3905,4.3949,4.398,4.3965,4.4004,4.4076,4.4113,4.4198,4.4169,4.4121,4.4213,4.4318,4.4346,4.4374,4.4327,4.4256,4.4397,4.4237,4.3927,4.3881,4.3915,4.3884,4.3697,4.3632,4.3662,4.3627,4.3529,4.3512,4.3478,4.3408,4.3426,4.3426,4.3425,4.3442,4.3529,4.3632,4.3681,4.3712,4.3744,4.373,4.3681,4.3631,4.3664,4.3649,4.3599,4.36,4.3566,4.3496,4.3479,4.3479,4.3479,4.3479,4.3479,4.3479,4.3479,4.3479,4.3479,4.3479,4.3479,4.3479,4.3479,4.3479,4.3479,4.3479,4.3479,4.3479,4.3479,4.3513,4.3615,4.3632,4.3632,4.3699,4.3849,4.3894,4.3942,4.3958,4.3989,4.3989,4.4005,4.4005,4.402,4.4109,4.4166,4.4225,4.4254,4.4279,4.4322,4.436,4.436,4.4388,4.4374,4.4346,4.4402,4.4438,4.4388,4.4336,4.4166,4.4005,4.4005,4.4005,4.4005,4.4005,4.4005,4.4005,4.4005,4.6392,4.535,4.4797,4.4486,4.4397,4.4397,4.4397,4.4393,4.4505,4.4568,4.4513,4.4642,4.4681,4.4668,4.4538,4.4364,4.4247,4.4327,4.4402,4.4397,4.4416,4.4457,4.4411,4.4402,4.4511,4.4565,4.4676,4.4572,4.4383,4.4341,4.4313,4.4285,4.4246,4.4275,4.4158,4.4114,4.4289,4.4227,4.4173,4.4129,4.4114,4.4114,4.4125,4.4169,4.4217,4.4188,4.4158,4.4173,4.4202,4.4202,4.4045,4.4075,4.4202,4.406,4.4121,4.4057,4.3855,4.3496,4.3546,4.3597,4.3597,4.3614,4.358,4.3513,4.358,4.3582,4.3548,4.3479,4.3513,4.3531,4.3565,4.3548,4.3513,4.3529,4.3597,4.358,4.3582,4.3761,4.3825,4.3905,4.3949,4.3894,4.3929,4.3976,4.4005,4.4005,4.4005,4.4051,4.4082,4.4143,4.4173,4.4288,4.4355,4.4412,4.4426,4.4448,4.4484,4.4559,4.4585,4.4612,4.465,4.4637,4.4695,4.472,4.4656,4.4511,4.4308,4.4166,4.4067,4.4051,4.4091,4.4064,4.4005,4.4005,4.4005,4.6633,4.5702,4.4987,4.4719,4.4738,4.4738,4.4719,4.4732,4.4783,4.4808,4.4821,4.4858,4.4931,4.4967,4.4924,4.4869,4.4814,4.4814,4.4869,4.4826,4.4826,4.4869,4.4917,4.4917,4.4917,4.4905,4.5,4.5034,4.4875,4.472,4.4624,4.4612,4.4498,4.4374,4.4471,4.443,4.4402,4.4369,4.436,4.4379,4.436,4.436,4.4388,4.4416,4.443,4.4443,4.4425,4.4416,4.4416,4.4388,4.4246,4.4275,4.436,4.4289,4.4289,4.4313,4.4188,4.4023,4.4023,4.4026,4.3962,4.3992,4.3992,4.4023,4.3996,4.3873,4.3857,4.4008,4.3857,4.3779,4.3828,4.3918,4.3889,4.3857,4.3839,4.3934,4.3949,4.4008,4.4129,4.4202,4.4275,4.425,4.4225,4.425,4.4351,4.4379,4.4393,4.4407,4.4439,4.4472,4.45,4.4532,4.46,4.4635,4.4635,4.4629,4.463,4.4676,4.4726,4.4776,4.4927,4.4973,4.4973,4.4927,4.4837,4.4663,4.4471,4.4435,4.4421,4.4303,4.4217,4.4192,4.417,4.4036,4.4036,4.6681,4.5834,4.5166,4.4895,4.4895,4.4895,4.4883,4.4895,4.4931,4.4943,4.4955,4.4979,4.5068,4.5125,4.5148,4.517,4.5256,4.5277,4.5277,4.5277,4.5277,4.5256,4.5224,4.5256,4.5256,4.5277,4.5235,4.5235,4.5184,4.5076,4.4934,4.4903,4.4801,4.4682,4.4643,4.4682,4.4714,4.4714,4.4701,4.4682,4.4669,4.4675,4.4656,4.4643,4.463,4.4617,4.463,4.4643,4.4656,4.4656,4.4546,4.4565,4.4656,4.4591,4.4591,4.4656,4.463,4.4649,4.4552,4.4465,4.4443,4.4416,4.4416,4.4318,4.4332,4.4206,4.4151,4.4318,4.4221,4.4106,4.4136,4.4275,4.4217,4.4188,4.4217,4.4332,4.4397,4.4383,4.4438,4.4559,4.4637,4.4707,4.4688,4.4663,4.4688,4.4726,4.477,4.4758,4.4752,4.4751,4.4764,4.4783,4.4907,4.4943,4.4936,4.4905,4.4875,4.4856,4.4884,4.4977,4.5148,4.5201,4.5211,4.5129,4.5063,4.5063,4.5007,4.4891,4.477,4.4599,4.4484,4.4402,4.4336,4.4196,4.4048,4.6077,4.5311,4.5022,4.4919,4.4907,4.4895,4.4907,4.4943,4.5038,4.5095,4.514,4.5213,4.5297,4.5297,4.5277,4.5277,4.5277,4.5277,4.5277,4.5277,4.5277,4.5277,4.5277,4.5277,4.5277,4.5277,4.5277,4.5277,4.5277,4.5246,4.5205,4.5246,4.5117,4.5173,4.5162,4.5076,4.5087,4.5087,4.5087,4.5129,4.5121,4.5151,4.5151,4.5162,4.5194,4.5235,4.5235,4.5151,4.5129,4.5098,4.491,4.4887,4.5007,4.4898,4.4898,4.5023,4.5076,4.5076,4.5011,4.4745,4.4484,4.443,4.4471,4.4538,4.4552,4.4457,4.4416,4.4471,4.4443,4.4388,4.4374,4.4383,4.4498,4.4452,4.4506,4.4617,4.4669,4.4618,4.4695,4.4861,4.4954,4.5011,4.5063,4.5038,4.495,4.4973,4.4934,4.4941,4.4936,4.4943,4.4979,4.5038,4.5203,4.5267,4.5298,4.5248,4.5154,4.5156,4.518,4.5282,4.541,4.5429,4.5362,4.54,4.5362,4.5467,4.5476,4.5222,4.5019,4.4868,4.4758,4.4695,4.4591,4.4471,4.4265,4.627,4.554,4.5428,4.5301,4.5148,4.5148,4.5148,4.5162,4.529,4.54,4.5447,4.5531,4.5495,4.5458,4.5429,4.537,4.5317,4.5277,4.5288,4.5277,4.5277,4.5288,4.5277,4.5298,4.5277,4.5307,4.5307,4.5277,4.5277,4.5277,4.5277,4.5277,4.5277,4.5277,4.5277,4.5277,4.5277,4.5277,4.5277,4.5277,4.5277,4.5277,4.5277,4.5277,4.5277,4.5277,4.5267,4.5277,4.5277,4.5256,4.5162,4.5213,4.5275,4.5121,4.5173,4.5267,4.5277,4.5277,4.5277,4.5065,4.4965,4.4953,4.4965,4.491,4.4862,4.4789,4.4814,4.4826,4.4745,4.4669,4.465,4.4795,4.4941,4.4795,4.4795,4.4898,4.4946,4.4908,4.4977,4.5148,4.5222,4.5292,4.5341,4.54,4.5281,4.5199,4.5143,4.5106,4.5084,4.5103,4.5136,4.5148,4.5286,4.5328,4.5348,4.5369,4.5408,4.5429,4.5448,4.5467,4.5495,4.5495,4.5457,4.5568,4.5594,4.5568,4.5504,4.5391,4.5253,4.5096,4.5019,4.4962,4.4868,4.4726,4.4538,4.6221,4.5727,4.5688,4.5601,4.5419,4.541,4.5429,4.5448,4.5513,4.561,4.5688,4.568,4.566,4.5584,4.5566,4.5531,4.5457,4.5429,4.5419,4.5429,4.5438,4.541,4.539,4.537,4.5361,4.535,4.5317,4.5277,4.5277,4.5277,4.5277,4.5277,4.5277,4.5277,4.5277,4.5277,4.5277,4.5277,4.5277,4.5277,4.5277,4.5277,4.5277,4.5277,4.5277,4.5277,4.5277,4.5277,4.5277,4.5277,4.5267,4.5277,4.5297,4.5277,4.5277,4.5277,4.5277,4.5277,4.5277,4.5277,4.5277,4.5205,4.5235,4.5246,4.5235,4.5087,4.5076,4.5192,4.5065,4.4946,4.4946,4.5121,4.5194,4.5057,4.5135,4.5239,4.526,4.5262,4.5322,4.5419,4.5467,4.5467,4.5438,4.5458,4.5361,4.527,4.5237,4.5213,4.5224,4.5224,4.5235,4.5246,4.5277,4.5307,4.5307,4.5348,4.5418,4.5419,4.5438,4.5467,4.5475,4.5504,4.5522,4.5577,4.5594,4.5594,4.554,4.5475,4.5429,4.5352,4.5292,4.5222,4.5082,4.495,4.4807,4.5735,4.5688,4.5715,4.5708,4.5673,4.5673,4.5665,4.566,4.5692,4.5715,4.5727,4.5719,4.5731,4.5708,4.57,4.5676,4.5624,4.5632,4.5632,4.5616,4.5599,4.566,4.5627,4.5538,4.5495,4.5477,4.5429,4.537,4.5329,4.537,4.535,4.5329,4.535,4.5298,4.5288,4.5277,4.5277,4.5277,4.5277,4.5277,4.5277,4.5277,4.5277,4.5277,4.5277,4.5277,4.5277,4.5277,4.5277,4.5277,4.5277,4.5277,4.5277,4.5277,4.5277,4.5277,4.5277,4.5277,4.5277,4.5277,4.5277,4.5277,4.5277,4.5277,4.5277,4.5256,4.5216,4.5297,4.5235,4.5235,4.5277,4.5328,4.5328,4.5339,4.54,4.5429,4.5438,4.5486,4.5523,4.5541,4.5559,4.5568,4.5504,4.5448,4.538,4.532,4.5298,4.5288,4.5317,4.5317,4.5288,4.5307,4.5307,4.5328,4.5338,4.5369,4.5418,4.5419,4.5429,4.5457,4.5475,4.5513,4.554,4.5586,4.5594,4.5594,4.5594,4.5586,4.5522,4.5485,4.5522,4.5457,4.5302,4.5159,4.5041,4.5905,4.5886,4.5905,4.5892,4.5867,4.5749,4.5688,4.5704,4.5791,4.5867,4.5899,4.5905,4.5887,4.5847,4.5819,4.5791,4.5704,4.5688,4.5688,4.5696,4.5704,4.568,4.5673,4.5684,4.5643,4.5627,4.5584,4.5549,4.5584,4.554,4.5558,4.5538,4.5457,4.539,4.5309,4.5277,4.5277,4.5277,4.5277,4.5277,4.5277,4.5277,4.5277,4.5277,4.5277,4.5277,4.5277,4.5277,4.5277,4.5277,4.5277,4.5277,4.5277,4.5277,4.5277,4.5277,4.5277,4.5277,4.5277,4.5277,4.5277,4.5277,4.5277,4.5277,4.5277,4.5277,4.5277,4.5307,4.5307,4.5307,4.5307,4.5348,4.5369,4.5389,4.5419,4.5457,4.5485,4.5541,4.5577,4.5577,4.5586,4.5568,4.5513,4.5495,4.5438,4.539,4.537,4.5319,4.5328,4.5298,4.5288,4.5317,4.5347,4.5367,4.5388,4.5409,4.5419,4.5429,4.5429,4.5448,4.5485,4.5531,4.5568,4.5586,4.5594,4.5594,4.5594,4.5594,4.5594,4.5586,4.5594,4.5594,4.5485,4.539,4.5342,4.5982,4.5982,4.5982,4.5982,4.598,4.5867,4.5807,4.5821,4.5906,4.5966,4.5991,4.5997,4.5969,4.5943,4.5925,4.5893,4.5807,4.5794,4.5794,4.5807,4.5814,4.5827,4.5794,4.5783,4.5776,4.5781,4.5723,4.5673,4.5676,4.568,4.5673,4.564,4.5627,4.5549,4.5448,4.539,4.5277,4.5277,4.5277,4.5277,4.5277,4.5277,4.5277,4.5277,4.5277,4.5277,4.5277,4.5277,4.5277,4.5277,4.5277,4.5277,4.5277,4.5277,4.5277,4.5277,4.5277,4.5277,4.5277,4.5277,4.5277,4.5277,4.5297,4.5277,4.5277,4.5277,4.5277,4.5307,4.5317,4.5328,4.5338,4.5389,4.5419,4.5438,4.5477,4.5513,4.555,4.5577,4.5586,4.5594,4.5594,4.5568,4.555,4.5522,4.5504,4.5467,4.5438,4.538,4.5329,4.5329,4.5319,4.5348,4.5369,4.538,4.5409,4.5419,4.5438,4.5448,4.5467,4.5476,4.5504,4.5568,4.5577,4.5605,4.5586,4.5594,4.5594,4.5594,4.5594,4.5594,4.5594,4.5594,4.5594,4.5568,4.5504,4.5982,4.5982,4.5982,4.5982,4.5997,4.5986,4.5986,4.5991,4.5997,4.5997,4.5982,4.5982,4.5991,4.5997,4.5997,4.5986,4.5975,4.5975,4.5969,4.5975,4.5953,4.595,4.5947,4.5918,4.5893,4.5854,4.5819,4.5778,4.5719,4.5757,4.5757,4.5727,4.5739,4.57,4.5618,4.5495,4.538,4.537,4.539,4.538,4.536,4.5329,4.5309,4.5298,4.5277,4.5277,4.5277,4.5277,4.5277,4.5277,4.5277,4.5277,4.5277,4.5277,4.5277,4.5277,4.5277,4.5277,4.5277,4.5277,4.5298,4.5317,4.5317,4.5307,4.5307,4.5317,4.5298,4.5338,4.5359,4.5398,4.5418,4.5438,4.5476,4.5504,4.5531,4.5577,4.5586,4.5594,4.5594,4.5594,4.5594,4.5586,4.5577,4.5577,4.554,4.5522,4.5505,4.5467,4.5419,4.538,4.537,4.538,4.54,4.54,4.5429,4.5476,4.5495,4.5523,4.5522,4.5559,4.5586,4.5605,4.5586,4.5586,4.5594,4.5594,4.5594,4.5594,4.5594,4.5594,4.5594,4.5594,4.5594,4.5594,4.5568,4.5982,4.5982,4.5982,4.5982,4.5982,4.5982,4.5982,4.5982,4.5982,4.5982,4.5982,4.5982,4.5982,4.5982,4.6002,4.5982,4.5982,4.5982,4.5997,4.5982,4.5982,4.5982,4.5991,4.5969,4.5958,4.5953,4.5929,4.5899,4.5898,4.5898,4.5911,4.5923,4.586,4.584,4.5783,4.5657,4.5607,4.5556,4.5556,4.5504,4.5457,4.5438,4.538,4.5339,4.5328,4.5317,4.5307,4.5297,4.5277,4.5277,4.5277,4.5277,4.5277,4.5277,4.5277,4.5277,4.5277,4.5277,4.5277,4.5288,4.5319,4.537,4.5389,4.5359,4.5359,4.536,4.5351,4.538,4.5429,4.5448,4.5467,4.5486,4.5504,4.5531,4.5549,4.5586,4.5594,4.5594,4.5594,4.5594,4.5594,4.5594,4.5594,4.5594,4.5577,4.5577,4.5559,4.5523,4.5495,4.5457,4.5429,4.5438,4.5458,4.5476,4.5495,4.5541,4.5559,4.5596,4.5586,4.5594,4.5594,4.5594,4.5594,4.5594,4.5594,4.5594,4.5594,4.5594,4.5594,4.5594,4.5594,4.5594,4.5594,4.5594,4.5594,4.5982,4.5982,4.5982,4.5982,4.5982,4.5982,4.5982,4.5982,4.5982,4.5982,4.5982,4.5982,4.5982,4.5982,4.5982,4.5982,4.5982,4.5982,4.5982,4.5982,4.6007,4.5982,4.5982,4.6002,4.5997,4.5982,4.5982,4.5961,4.5982,4.5982,4.5997,4.5986,4.5935,4.5923,4.5899,4.5861,4.5834,4.5793,4.5734,4.5657,4.5599,4.5584,4.5495,4.5419,4.538,4.5379,4.5317,4.5288,4.5307,4.5297,4.5277,4.5277,4.5277,4.5277,4.5277,4.5307,4.5328,4.5338,4.5339,4.541,4.5438,4.5465,4.5519,4.5577,4.5543,4.5535,4.5481,4.5491,4.5512,4.5522,4.5504,4.5514,4.5513,4.5531,4.5568,4.5594,4.5594,4.5594,4.5594,4.5594,4.5594,4.5594,4.5594,4.5594,4.5594,4.5586,4.5586,4.5568,4.555,4.5541,4.5485,4.5477,4.5514,4.555,4.5568,4.5568,4.5577,4.5605,4.5586,4.5594,4.5594,4.5594,4.5594,4.5594,4.5594,4.5594,4.5594,4.5594,4.5594,4.5594,4.5594,4.5594,4.5594,4.5594,4.5594,4.6017,4.6017,4.6032,4.6022,4.6012,4.6022,4.6022,4.6012,4.6022,4.6032,4.6007,4.5982,4.5982,4.6002,4.6012,4.6017,4.6027,4.6032,4.6042,4.6017,4.6037,4.6037,4.6022,4.6026,4.6012,4.6007,4.5982,4.5982,4.5982,4.5982,4.5982,4.5982,4.5991,4.598,4.5975,4.5969,4.5947,4.5929,4.5848,4.5749,4.5739,4.5708,4.566,4.5549,4.5495,4.5486,4.536,4.5328,4.5317,4.5307,4.5277,4.5277,4.5277,4.5317,4.5317,4.5309,4.535,4.5389,4.541,4.5473,4.5566,4.5634,4.5711,4.579,4.5764,4.5667,4.5615,4.563,4.5657,4.5661,4.5646,4.5658,4.5665,4.5665,4.566,4.5627,4.5594,4.5594,4.5594,4.5594,4.5594,4.5594,4.5594,4.5594,4.5594,4.5594,4.5594,4.5586,4.5586,4.5577,4.5559,4.5523,4.555,4.5577,4.5577,4.5586,4.5586,4.5594,4.5594,4.5594,4.5594,4.5594,4.5594,4.5594,4.5594,4.5594,4.5594,4.5594,4.5594,4.5594,4.5594,4.5594,4.5594,4.5594,4.5594,4.615,4.615,4.615,4.615,4.615,4.615,4.617,4.617,4.615,4.6093,4.6012,4.6002,4.6007,4.6017,4.6051,4.608,4.6084,4.6102,4.6127,4.6142,4.6138,4.6098,4.6084,4.608,4.6042,4.6012,4.5982,4.6012,4.6017,4.6012,4.6002,4.5982,4.6007,4.6017,4.6007,4.6007,4.6007,4.6012,4.5964,4.5886,4.5874,4.5833,4.5791,4.57,4.5651,4.5593,4.5504,4.5438,4.539,4.5338,4.5307,4.5277,4.5277,4.5338,4.5369,4.5379,4.54,4.5419,4.5457,4.5541,4.5623,4.5715,4.5809,4.5924,4.5925,4.5807,4.577,4.5795,4.582,4.5808,4.5783,4.5796,4.5803,4.5787,4.5754,4.5676,4.5593,4.5594,4.5594,4.5594,4.5594,4.5594,4.5594,4.5594,4.5594,4.5594,4.5594,4.5594,4.5594,4.5586,4.5586,4.5568,4.5568,4.5586,4.5594,4.5594,4.5594,4.5594,4.5594,4.5594,4.5594,4.5594,4.5594,4.5594,4.5594,4.5594,4.5594,4.5594,4.5594,4.5594,4.5594,4.5594,4.5594,4.5594,4.5594,4.6199,4.6199,4.6199,4.6199,4.6199,4.6199,4.6199,4.6199,4.6199,4.6154,4.6093,4.6089,4.6089,4.6089,4.6138,4.6146,4.615,4.6185,4.6189,4.6196,4.6203,4.6185,4.615,4.6127,4.6119,4.6093,4.6089,4.6093,4.608,4.6089,4.6089,4.6047,4.6066,4.6075,4.6042,4.6037,4.6047,4.6089,4.6047,4.6022,4.6,4.5972,4.5919,4.5826,4.5776,4.5712,4.5613,4.5563,4.5528,4.5493,4.5491,4.539,4.539,4.537,4.54,4.5419,4.5419,4.5438,4.5482,4.5603,4.5718,4.5808,4.5983,4.6135,4.6167,4.6057,4.6,4.6028,4.5983,4.5969,4.5878,4.5875,4.5869,4.5853,4.5794,4.5712,4.5643,4.5594,4.5594,4.5594,4.5594,4.5594,4.5594,4.5594,4.5594,4.5594,4.5594,4.5594,4.5594,4.5594,4.5594,4.5594,4.5594,4.5594,4.5594,4.5594,4.5594,4.5594,4.5594,4.5594,4.5594,4.5594,4.5594,4.5594,4.5594,4.5594,4.5594,4.5594,4.5594,4.5594,4.5594,4.5594,4.5594,4.5594,4.5594,4.6213,4.6213,4.6213,4.6213,4.6213,4.6213,4.6213,4.6213,4.6213,4.6213,4.6196,4.62,4.6216,4.6199,4.6206,4.6203,4.6209,4.6225,4.6219,4.6219,4.6238,4.6196,4.619,4.6203,4.6176,4.6169,4.6185,4.6185,4.6181,4.6181,4.615,4.6119,4.6146,4.6181,4.6134,4.6126,4.6134,4.6146,4.6146,4.6127,4.6111,4.6089,4.6016,4.5955,4.5925,4.5848,4.5742,4.5679,4.5699,4.5672,4.566,4.5574,4.5491,4.5465,4.5438,4.5457,4.553,4.5547,4.5594,4.577,4.5872,4.5963,4.6184,4.6277,4.6296,4.6269,4.6209,4.6176,4.6135,4.6095,4.6,4.5969,4.5969,4.5905,4.5847,4.5766,4.5696,4.5618,4.5629,4.562,4.5594,4.5594,4.5594,4.5594,4.5594,4.5594,4.5594,4.5594,4.5594,4.5594,4.5594,4.5594,4.5594,4.5594,4.5594,4.5594,4.5594,4.5594,4.5594,4.5594,4.5594,4.5594,4.5594,4.5594,4.5594,4.5594,4.5594,4.5594,4.5594,4.5594,4.5594,4.5594,4.5594,4.5594,4.5594,4.6288,4.6288,4.6288,4.6288,4.6269,4.6269,4.6269,4.6288,4.6288,4.6269,4.6275,4.6269,4.6261,4.6203,4.6209,4.6206,4.6201,4.6228,4.6269,4.6288,4.6253,4.6221,4.6211,4.6214,4.6206,4.6219,4.6216,4.6203,4.6219,4.6209,4.6199,4.6169,4.6173,4.6199,4.6192,4.6189,4.6173,4.6203,4.6203,4.6176,4.618,4.6165,4.6162,4.6142,4.6119,4.6041,4.5954,4.5922,4.5863,4.5834,4.5783,4.5696,4.5619,4.5574,4.558,4.5545,4.5632,4.5673,4.5769,4.5919,4.5996,4.6029,4.6192,4.6278,4.63,4.63,4.6269,4.6269,4.624,4.624,4.6181,4.6181,4.6176,4.6049,4.5944,4.5859,4.5775,4.5749,4.5723,4.5679,4.5612,4.5603,4.5594,4.5594,4.5594,4.5594,4.5594,4.5594,4.5594,4.5594,4.5594,4.5594,4.5594,4.5594,4.5594,4.5594,4.5594,4.5594,4.5594,4.5594,4.5594,4.5594,4.5594,4.5594,4.5594,4.5594,4.5594,4.5594,4.5594,4.5594,4.5594,4.5594,4.5594,4.5594,4.5594]}]]